<?xml version="1.0" encoding="utf-8"?>
<gpx xmlns:xsi="http://www.w3.org/2001/XMLSchema-instance" xmlns:xsd="http://www.w3.org/2001/XMLSchema" version="1.1" creator="Shapelink.com" xmlns="http://www.topografix.com/GPX/1/1" xmlns:gpxtpx="http://www.garmin.com/xmlschemas/TrackPointExtension/v1">
  <metadata>
    <name>Nordic Skiing 24.08 km, 2019-01-13</name>
    <desc></desc>
    <author><name>Stefan Östlund</name></author> 
    <time>2019-01-13T11:00:07Z</time>
  </metadata>
  <trk>
    <name>Nordic Skiing 24.08 km, 2019-01-13</name>
    <trkseg>
      <trkpt lat="60.095696611521" lon="15.90321272501">
        <ele>413</ele>
        <time>2019-01-13T11:01:02Z</time>
      </trkpt>
      <trkpt lat="60.095758553762" lon="15.903310709421">
        <ele>414</ele>
        <time>2019-01-13T11:01:08Z</time>
      </trkpt>
      <trkpt lat="60.09576961787" lon="15.903323869004">
        <ele>414</ele>
        <time>2019-01-13T11:01:09Z</time>
      </trkpt>
      <trkpt lat="60.095861064399" lon="15.903382542304">
        <ele>414.4</ele>
        <time>2019-01-13T11:01:15Z</time>
      </trkpt>
      <trkpt lat="60.095967011615" lon="15.903435515912">
        <ele>414.8</ele>
        <time>2019-01-13T11:01:21Z</time>
      </trkpt>
      <trkpt lat="60.096075389582" lon="15.90347591667">
        <ele>414.8</ele>
        <time>2019-01-13T11:01:27Z</time>
      </trkpt>
      <trkpt lat="60.096123166412" lon="15.903501397646">
        <ele>415.2</ele>
        <time>2019-01-13T11:01:30Z</time>
      </trkpt>
      <trkpt lat="60.096223497755" lon="15.903573062891">
        <ele>416</ele>
        <time>2019-01-13T11:01:36Z</time>
      </trkpt>
      <trkpt lat="60.096236238243" lon="15.903589575234">
        <ele>416.2</ele>
        <time>2019-01-13T11:01:37Z</time>
      </trkpt>
      <trkpt lat="60.096315782474" lon="15.903764086392">
        <ele>416.8</ele>
        <time>2019-01-13T11:01:43Z</time>
      </trkpt>
      <trkpt lat="60.096382502398" lon="15.904087040999">
        <ele>416</ele>
        <time>2019-01-13T11:01:49Z</time>
      </trkpt>
      <trkpt lat="60.096471350538" lon="15.90437194178">
        <ele>416.8</ele>
        <time>2019-01-13T11:01:55Z</time>
      </trkpt>
      <trkpt lat="60.096545195077" lon="15.904646700462">
        <ele>416.4</ele>
        <time>2019-01-13T11:02:01Z</time>
      </trkpt>
      <trkpt lat="60.096587942767" lon="15.904873347038">
        <ele>417</ele>
        <time>2019-01-13T11:02:07Z</time>
      </trkpt>
      <trkpt lat="60.096599006875" lon="15.90493939641">
        <ele>417.2</ele>
        <time>2019-01-13T11:02:09Z</time>
      </trkpt>
      <trkpt lat="60.096606215309" lon="15.904965715576">
        <ele>417.2</ele>
        <time>2019-01-13T11:02:10Z</time>
      </trkpt>
      <trkpt lat="60.096695566363" lon="15.905105609487">
        <ele>417.4</ele>
        <time>2019-01-13T11:02:16Z</time>
      </trkpt>
      <trkpt lat="60.096824815261" lon="15.905168138461">
        <ele>417.6</ele>
        <time>2019-01-13T11:02:22Z</time>
      </trkpt>
      <trkpt lat="60.096927493536" lon="15.905201246966">
        <ele>418.4</ele>
        <time>2019-01-13T11:02:27Z</time>
      </trkpt>
      <trkpt lat="60.097063196497" lon="15.905261596646">
        <ele>418.6</ele>
        <time>2019-01-13T11:02:33Z</time>
      </trkpt>
      <trkpt lat="60.097176268328" lon="15.905358239953">
        <ele>419.4</ele>
        <time>2019-01-13T11:02:39Z</time>
      </trkpt>
      <trkpt lat="60.097195127603" lon="15.905380200531">
        <ele>419.4</ele>
        <time>2019-01-13T11:02:40Z</time>
      </trkpt>
      <trkpt lat="60.097287160865" lon="15.905590753859">
        <ele>419.8</ele>
        <time>2019-01-13T11:02:46Z</time>
      </trkpt>
      <trkpt lat="60.097341978491" lon="15.905865009627">
        <ele>419.6</ele>
        <time>2019-01-13T11:02:52Z</time>
      </trkpt>
      <trkpt lat="60.09737978086" lon="15.906155107186">
        <ele>418.4</ele>
        <time>2019-01-13T11:02:57Z</time>
      </trkpt>
      <trkpt lat="60.097441052549" lon="15.906506141158">
        <ele>418.6</ele>
        <time>2019-01-13T11:03:03Z</time>
      </trkpt>
      <trkpt lat="60.097485476619" lon="15.906797328364">
        <ele>419.2</ele>
        <time>2019-01-13T11:03:09Z</time>
      </trkpt>
      <trkpt lat="60.097485644257" lon="15.906898581716">
        <ele>419.4</ele>
        <time>2019-01-13T11:03:11Z</time>
      </trkpt>
      <trkpt lat="60.09752227316" lon="15.907123971007">
        <ele>420</ele>
        <time>2019-01-13T11:03:17Z</time>
      </trkpt>
      <trkpt lat="60.097613552051" lon="15.907290351722">
        <ele>419.8</ele>
        <time>2019-01-13T11:03:22Z</time>
      </trkpt>
      <trkpt lat="60.097770042124" lon="15.907489589485">
        <ele>419</ele>
        <time>2019-01-13T11:03:28Z</time>
      </trkpt>
      <trkpt lat="60.097930304052" lon="15.907611629949">
        <ele>419.4</ele>
        <time>2019-01-13T11:03:34Z</time>
      </trkpt>
      <trkpt lat="60.098084195736" lon="15.907698550252">
        <ele>419.6</ele>
        <time>2019-01-13T11:03:40Z</time>
      </trkpt>
      <trkpt lat="60.098290977209" lon="15.907771808058">
        <ele>419.4</ele>
        <time>2019-01-13T11:03:46Z</time>
      </trkpt>
      <trkpt lat="60.098499267424" lon="15.907884293156">
        <ele>419.4</ele>
        <time>2019-01-13T11:03:52Z</time>
      </trkpt>
      <trkpt lat="60.098658272067" lon="15.908114711587">
        <ele>418.8</ele>
        <time>2019-01-13T11:03:58Z</time>
      </trkpt>
      <trkpt lat="60.098695152427" lon="15.90825192329">
        <ele>418.2</ele>
        <time>2019-01-13T11:04:01Z</time>
      </trkpt>
      <trkpt lat="60.098757178487" lon="15.908472534898">
        <ele>417.8</ele>
        <time>2019-01-13T11:04:07Z</time>
      </trkpt>
      <trkpt lat="60.098841751858" lon="15.908744695191">
        <ele>418.6</ele>
        <time>2019-01-13T11:04:13Z</time>
      </trkpt>
      <trkpt lat="60.098977287181" lon="15.909086006159">
        <ele>418.6</ele>
        <time>2019-01-13T11:04:19Z</time>
      </trkpt>
      <trkpt lat="60.099115756169" lon="15.909344671593">
        <ele>419</ele>
        <time>2019-01-13T11:04:25Z</time>
      </trkpt>
      <trkpt lat="60.099224134136" lon="15.909590093625">
        <ele>419</ele>
        <time>2019-01-13T11:04:31Z</time>
      </trkpt>
      <trkpt lat="60.099267217102" lon="15.909700818524">
        <ele>418.8</ele>
        <time>2019-01-13T11:04:34Z</time>
      </trkpt>
      <trkpt lat="60.099314658656" lon="15.909868624162">
        <ele>419.2</ele>
        <time>2019-01-13T11:04:38Z</time>
      </trkpt>
      <trkpt lat="60.099413732714" lon="15.910192836054">
        <ele>419.4</ele>
        <time>2019-01-13T11:04:44Z</time>
      </trkpt>
      <trkpt lat="60.099535186445" lon="15.910375561474">
        <ele>419.4</ele>
        <time>2019-01-13T11:04:50Z</time>
      </trkpt>
      <trkpt lat="60.099671224682" lon="15.910390062161">
        <ele>419.8</ele>
        <time>2019-01-13T11:04:56Z</time>
      </trkpt>
      <trkpt lat="60.099810699498" lon="15.91035242743">
        <ele>420.2</ele>
        <time>2019-01-13T11:05:02Z</time>
      </trkpt>
      <trkpt lat="60.099831654248" lon="15.910341614779">
        <ele>420.4</ele>
        <time>2019-01-13T11:05:03Z</time>
      </trkpt>
      <trkpt lat="60.099933242876" lon="15.910278331434">
        <ele>420.8</ele>
        <time>2019-01-13T11:05:09Z</time>
      </trkpt>
      <trkpt lat="60.099954532902" lon="15.910266764412">
        <ele>420.6</ele>
        <time>2019-01-13T11:05:10Z</time>
      </trkpt>
      <trkpt lat="60.100077998289" lon="15.910125948492">
        <ele>420.2</ele>
        <time>2019-01-13T11:05:16Z</time>
      </trkpt>
      <trkpt lat="60.100215796725" lon="15.909922519779">
        <ele>421</ele>
        <time>2019-01-13T11:05:22Z</time>
      </trkpt>
      <trkpt lat="60.100351248229" lon="15.909776171805">
        <ele>421.2</ele>
        <time>2019-01-13T11:05:28Z</time>
      </trkpt>
      <trkpt lat="60.100459123282" lon="15.909728143518">
        <ele>421.4</ele>
        <time>2019-01-13T11:05:32Z</time>
      </trkpt>
      <trkpt lat="60.100584265049" lon="15.909617921533">
        <ele>422.2</ele>
        <time>2019-01-13T11:05:38Z</time>
      </trkpt>
      <trkpt lat="60.100794902196" lon="15.9093742597">
        <ele>421.6</ele>
        <time>2019-01-13T11:05:44Z</time>
      </trkpt>
      <trkpt lat="60.100914344271" lon="15.909195809049">
        <ele>421</ele>
        <time>2019-01-13T11:05:48Z</time>
      </trkpt>
      <trkpt lat="60.101016435813" lon="15.908959690926">
        <ele>420.4</ele>
        <time>2019-01-13T11:05:52Z</time>
      </trkpt>
      <trkpt lat="60.101215673576" lon="15.908824323241">
        <ele>419.8</ele>
        <time>2019-01-13T11:05:58Z</time>
      </trkpt>
      <trkpt lat="60.101395968245" lon="15.908863634352">
        <ele>420.2</ele>
        <time>2019-01-13T11:06:03Z</time>
      </trkpt>
      <trkpt lat="60.101555475802" lon="15.908824658517">
        <ele>420</ele>
        <time>2019-01-13T11:06:07Z</time>
      </trkpt>
      <trkpt lat="60.101635690585" lon="15.908749724331">
        <ele>420</ele>
        <time>2019-01-13T11:06:09Z</time>
      </trkpt>
      <trkpt lat="60.101707774925" lon="15.908637658328">
        <ele>419.6</ele>
        <time>2019-01-13T11:06:11Z</time>
      </trkpt>
      <trkpt lat="60.101815566159" lon="15.908380585455">
        <ele>419.2</ele>
        <time>2019-01-13T11:06:14Z</time>
      </trkpt>
      <trkpt lat="60.101852865614" lon="15.908307914382">
        <ele>419.2</ele>
        <time>2019-01-13T11:06:15Z</time>
      </trkpt>
      <trkpt lat="60.101929895275" lon="15.908166176453">
        <ele>418.8</ele>
        <time>2019-01-13T11:06:17Z</time>
      </trkpt>
      <trkpt lat="60.102053276843" lon="15.907953443831">
        <ele>418</ele>
        <time>2019-01-13T11:06:20Z</time>
      </trkpt>
      <trkpt lat="60.102088983737" lon="15.90787473779">
        <ele>417.8</ele>
        <time>2019-01-13T11:06:21Z</time>
      </trkpt>
      <trkpt lat="60.102141202974" lon="15.907685474488">
        <ele>417</ele>
        <time>2019-01-13T11:06:23Z</time>
      </trkpt>
      <trkpt lat="60.102161235715" lon="15.907579527272">
        <ele>416.4</ele>
        <time>2019-01-13T11:06:24Z</time>
      </trkpt>
      <trkpt lat="60.102184956492" lon="15.907343912063">
        <ele>415.2</ele>
        <time>2019-01-13T11:06:26Z</time>
      </trkpt>
      <trkpt lat="60.102171629271" lon="15.90710360299">
        <ele>413.8</ele>
        <time>2019-01-13T11:06:28Z</time>
      </trkpt>
      <trkpt lat="60.102128881581" lon="15.906893384938">
        <ele>412.8</ele>
        <time>2019-01-13T11:06:30Z</time>
      </trkpt>
      <trkpt lat="60.102061826381" lon="15.906547128649">
        <ele>412.2</ele>
        <time>2019-01-13T11:06:34Z</time>
      </trkpt>
      <trkpt lat="60.102049002074" lon="15.906359122632">
        <ele>412.2</ele>
        <time>2019-01-13T11:06:36Z</time>
      </trkpt>
      <trkpt lat="60.102055539956" lon="15.905919994891">
        <ele>412</ele>
        <time>2019-01-13T11:06:41Z</time>
      </trkpt>
      <trkpt lat="60.102064508589" lon="15.905529146894">
        <ele>412.4</ele>
        <time>2019-01-13T11:06:45Z</time>
      </trkpt>
      <trkpt lat="60.102127959572" lon="15.905095635026">
        <ele>411.6</ele>
        <time>2019-01-13T11:06:49Z</time>
      </trkpt>
      <trkpt lat="60.102152099444" lon="15.904985664498">
        <ele>411</ele>
        <time>2019-01-13T11:06:50Z</time>
      </trkpt>
      <trkpt lat="60.102183866845" lon="15.904903186602">
        <ele>410.2</ele>
        <time>2019-01-13T11:06:51Z</time>
      </trkpt>
      <trkpt lat="60.102219322282" lon="15.904830180253">
        <ele>410</ele>
        <time>2019-01-13T11:06:52Z</time>
      </trkpt>
      <trkpt lat="60.102442951374" lon="15.904496748271">
        <ele>410.2</ele>
        <time>2019-01-13T11:06:58Z</time>
      </trkpt>
      <trkpt lat="60.102474551137" lon="15.90444402612">
        <ele>410.2</ele>
        <time>2019-01-13T11:06:59Z</time>
      </trkpt>
      <trkpt lat="60.10264780501" lon="15.904086202809">
        <ele>410.4</ele>
        <time>2019-01-13T11:07:05Z</time>
      </trkpt>
      <trkpt lat="60.10282131034" lon="15.903833488524">
        <ele>411.2</ele>
        <time>2019-01-13T11:07:11Z</time>
      </trkpt>
      <trkpt lat="60.102842348909" lon="15.903809432471">
        <ele>411.4</ele>
        <time>2019-01-13T11:07:12Z</time>
      </trkpt>
      <trkpt lat="60.102912337774" lon="15.903654786416">
        <ele>412</ele>
        <time>2019-01-13T11:07:16Z</time>
      </trkpt>
      <trkpt lat="60.102970424341" lon="15.903264022238">
        <ele>412</ele>
        <time>2019-01-13T11:07:22Z</time>
      </trkpt>
      <trkpt lat="60.10294368608" lon="15.903038716766">
        <ele>412.4</ele>
        <time>2019-01-13T11:07:26Z</time>
      </trkpt>
      <trkpt lat="60.102853748293" lon="15.902803436833">
        <ele>413.2</ele>
        <time>2019-01-13T11:07:32Z</time>
      </trkpt>
      <trkpt lat="60.102814437182" lon="15.902718863462">
        <ele>413.4</ele>
        <time>2019-01-13T11:07:34Z</time>
      </trkpt>
      <trkpt lat="60.102664484991" lon="15.902457934915">
        <ele>413.8</ele>
        <time>2019-01-13T11:07:40Z</time>
      </trkpt>
      <trkpt lat="60.102530123134" lon="15.902172447401">
        <ele>414.6</ele>
        <time>2019-01-13T11:07:46Z</time>
      </trkpt>
      <trkpt lat="60.102407579756" lon="15.901866256594">
        <ele>415</ele>
        <time>2019-01-13T11:07:52Z</time>
      </trkpt>
      <trkpt lat="60.102287215672" lon="15.90155646157">
        <ele>414.8</ele>
        <time>2019-01-13T11:07:58Z</time>
      </trkpt>
      <trkpt lat="60.10220524069" lon="15.901246918003">
        <ele>415.2</ele>
        <time>2019-01-13T11:08:04Z</time>
      </trkpt>
      <trkpt lat="60.102163498828" lon="15.901053044656">
        <ele>415.8</ele>
        <time>2019-01-13T11:08:08Z</time>
      </trkpt>
      <trkpt lat="60.102060988191" lon="15.90072832985">
        <ele>416.2</ele>
        <time>2019-01-13T11:08:14Z</time>
      </trkpt>
      <trkpt lat="60.101946742894" lon="15.900563457877">
        <ele>416</ele>
        <time>2019-01-13T11:08:18Z</time>
      </trkpt>
      <trkpt lat="60.101858816763" lon="15.900538479815">
        <ele>415.2</ele>
        <time>2019-01-13T11:08:20Z</time>
      </trkpt>
      <trkpt lat="60.101813051589" lon="15.900543676593">
        <ele>414.6</ele>
        <time>2019-01-13T11:08:21Z</time>
      </trkpt>
      <trkpt lat="60.101716324463" lon="15.900569241388">
        <ele>413</ele>
        <time>2019-01-13T11:08:23Z</time>
      </trkpt>
      <trkpt lat="60.101563354788" lon="15.900634033475">
        <ele>411.8</ele>
        <time>2019-01-13T11:08:26Z</time>
      </trkpt>
      <trkpt lat="60.101387921621" lon="15.900694131698">
        <ele>411.4</ele>
        <time>2019-01-13T11:08:30Z</time>
      </trkpt>
      <trkpt lat="60.101193377722" lon="15.900753978464">
        <ele>412.8</ele>
        <time>2019-01-13T11:08:36Z</time>
      </trkpt>
      <trkpt lat="60.101155575353" lon="15.900771328997">
        <ele>413</ele>
        <time>2019-01-13T11:08:37Z</time>
      </trkpt>
      <trkpt lat="60.100934209374" lon="15.900811394479">
        <ele>412.8</ele>
        <time>2019-01-13T11:08:43Z</time>
      </trkpt>
      <trkpt lat="60.100767912478" lon="15.900765880762">
        <ele>413.2</ele>
        <time>2019-01-13T11:08:49Z</time>
      </trkpt>
      <trkpt lat="60.100606560903" lon="15.900645516678">
        <ele>414</ele>
        <time>2019-01-13T11:08:54Z</time>
      </trkpt>
      <trkpt lat="60.100440180188" lon="15.900411158754">
        <ele>413.4</ele>
        <time>2019-01-13T11:09:00Z</time>
      </trkpt>
      <trkpt lat="60.100230045955" lon="15.900401016655">
        <ele>413.8</ele>
        <time>2019-01-13T11:09:06Z</time>
      </trkpt>
      <trkpt lat="60.100071460407" lon="15.900623053186">
        <ele>413.8</ele>
        <time>2019-01-13T11:09:12Z</time>
      </trkpt>
      <trkpt lat="60.099891752471" lon="15.900888005045">
        <ele>414</ele>
        <time>2019-01-13T11:09:18Z</time>
      </trkpt>
      <trkpt lat="60.099728975973" lon="15.901016751029">
        <ele>414</ele>
        <time>2019-01-13T11:09:24Z</time>
      </trkpt>
      <trkpt lat="60.099519260835" lon="15.901076513976">
        <ele>413.6</ele>
        <time>2019-01-13T11:09:30Z</time>
      </trkpt>
      <trkpt lat="60.099363692771" lon="15.901132421249">
        <ele>413.6</ele>
        <time>2019-01-13T11:09:36Z</time>
      </trkpt>
      <trkpt lat="60.099198317884" lon="15.901238200827">
        <ele>413.4</ele>
        <time>2019-01-13T11:09:42Z</time>
      </trkpt>
      <trkpt lat="60.099110056477" lon="15.901236021533">
        <ele>413.4</ele>
        <time>2019-01-13T11:09:45Z</time>
      </trkpt>
      <trkpt lat="60.098937473156" lon="15.901239793388">
        <ele>414.2</ele>
        <time>2019-01-13T11:09:51Z</time>
      </trkpt>
      <trkpt lat="60.098811577018" lon="15.901220682656">
        <ele>415</ele>
        <time>2019-01-13T11:09:56Z</time>
      </trkpt>
      <trkpt lat="60.09867981355" lon="15.901200398458">
        <ele>415.8</ele>
        <time>2019-01-13T11:10:02Z</time>
      </trkpt>
      <trkpt lat="60.098633880738" lon="15.901182125916">
        <ele>416.2</ele>
        <time>2019-01-13T11:10:04Z</time>
      </trkpt>
      <trkpt lat="60.098475379009" lon="15.901113394336">
        <ele>416.8</ele>
        <time>2019-01-13T11:10:10Z</time>
      </trkpt>
      <trkpt lat="60.098360882255" lon="15.901022199264">
        <ele>417.2</ele>
        <time>2019-01-13T11:10:15Z</time>
      </trkpt>
      <trkpt lat="60.098156028619" lon="15.900898398601">
        <ele>417.4</ele>
        <time>2019-01-13T11:10:21Z</time>
      </trkpt>
      <trkpt lat="60.097959556883" lon="15.900802593484">
        <ele>417</ele>
        <time>2019-01-13T11:10:27Z</time>
      </trkpt>
      <trkpt lat="60.097800300783" lon="15.900786500236">
        <ele>417.8</ele>
        <time>2019-01-13T11:10:33Z</time>
      </trkpt>
      <trkpt lat="60.097717403792" lon="15.900762276545">
        <ele>418.4</ele>
        <time>2019-01-13T11:10:37Z</time>
      </trkpt>
      <trkpt lat="60.097600308649" lon="15.900766718952">
        <ele>419.4</ele>
        <time>2019-01-13T11:10:43Z</time>
      </trkpt>
      <trkpt lat="60.097474580149" lon="15.900766802771">
        <ele>420.4</ele>
        <time>2019-01-13T11:10:49Z</time>
      </trkpt>
      <trkpt lat="60.097455553236" lon="15.900764036744">
        <ele>420.6</ele>
        <time>2019-01-13T11:10:50Z</time>
      </trkpt>
      <trkpt lat="60.097352204409" lon="15.900782393105">
        <ele>421.4</ele>
        <time>2019-01-13T11:10:55Z</time>
      </trkpt>
      <trkpt lat="60.097331417297" lon="15.900797396706">
        <ele>421.6</ele>
        <time>2019-01-13T11:10:56Z</time>
      </trkpt>
      <trkpt lat="60.0972004082" lon="15.900901918999">
        <ele>420.8</ele>
        <time>2019-01-13T11:11:02Z</time>
      </trkpt>
      <trkpt lat="60.097053557312" lon="15.901074837596">
        <ele>420.8</ele>
        <time>2019-01-13T11:11:08Z</time>
      </trkpt>
      <trkpt lat="60.096988429949" lon="15.901153543637">
        <ele>420.6</ele>
        <time>2019-01-13T11:11:10Z</time>
      </trkpt>
      <trkpt lat="60.096813667334" lon="15.901281032336">
        <ele>420.2</ele>
        <time>2019-01-13T11:11:16Z</time>
      </trkpt>
      <trkpt lat="60.096669917749" lon="15.901231495307">
        <ele>418.8</ele>
        <time>2019-01-13T11:11:19Z</time>
      </trkpt>
      <trkpt lat="60.096609735707" lon="15.901201152829">
        <ele>417.6</ele>
        <time>2019-01-13T11:11:20Z</time>
      </trkpt>
      <trkpt lat="60.096471853452" lon="15.901134600543">
        <ele>415.8</ele>
        <time>2019-01-13T11:11:22Z</time>
      </trkpt>
      <trkpt lat="60.096347298418" lon="15.901074334682">
        <ele>414</ele>
        <time>2019-01-13T11:11:24Z</time>
      </trkpt>
      <trkpt lat="60.096052758452" lon="15.901065701325">
        <ele>414</ele>
        <time>2019-01-13T11:11:30Z</time>
      </trkpt>
      <trkpt lat="60.095925605029" lon="15.901182796468">
        <ele>415.2</ele>
        <time>2019-01-13T11:11:33Z</time>
      </trkpt>
      <trkpt lat="60.095745058903" lon="15.901426039206">
        <ele>415.6</ele>
        <time>2019-01-13T11:11:39Z</time>
      </trkpt>
      <trkpt lat="60.095595777264" lon="15.901474821864">
        <ele>413.8</ele>
        <time>2019-01-13T11:11:43Z</time>
      </trkpt>
      <trkpt lat="60.095511874445" lon="15.901489154913">
        <ele>412.4</ele>
        <time>2019-01-13T11:11:45Z</time>
      </trkpt>
      <trkpt lat="60.095389582524" lon="15.901512959509">
        <ele>411.2</ele>
        <time>2019-01-13T11:11:48Z</time>
      </trkpt>
      <trkpt lat="60.09514432813" lon="15.901526705825">
        <ele>411</ele>
        <time>2019-01-13T11:11:54Z</time>
      </trkpt>
      <trkpt lat="60.094928242748" lon="15.901398965669">
        <ele>411.2</ele>
        <time>2019-01-13T11:12:00Z</time>
      </trkpt>
      <trkpt lat="60.094749373002" lon="15.901241385949">
        <ele>410</ele>
        <time>2019-01-13T11:12:05Z</time>
      </trkpt>
      <trkpt lat="60.094647700555" lon="15.901202326295">
        <ele>408.6</ele>
        <time>2019-01-13T11:12:07Z</time>
      </trkpt>
      <trkpt lat="60.094448211335" lon="15.901075172872">
        <ele>407.6</ele>
        <time>2019-01-13T11:12:11Z</time>
      </trkpt>
      <trkpt lat="60.09420555533" lon="15.900852214332">
        <ele>408.2</ele>
        <time>2019-01-13T11:12:17Z</time>
      </trkpt>
      <trkpt lat="60.094098350829" lon="15.900688515825">
        <ele>408.2</ele>
        <time>2019-01-13T11:12:20Z</time>
      </trkpt>
      <trkpt lat="60.093968179922" lon="15.900465473466">
        <ele>407.8</ele>
        <time>2019-01-13T11:12:24Z</time>
      </trkpt>
      <trkpt lat="60.093750585798" lon="15.90013908228">
        <ele>407</ele>
        <time>2019-01-13T11:12:30Z</time>
      </trkpt>
      <trkpt lat="60.093612200629" lon="15.89991193279">
        <ele>406.6</ele>
        <time>2019-01-13T11:12:34Z</time>
      </trkpt>
      <trkpt lat="60.09357858921" lon="15.899856863707">
        <ele>406.4</ele>
        <time>2019-01-13T11:12:35Z</time>
      </trkpt>
      <trkpt lat="60.09350566668" lon="15.899748653378">
        <ele>406.4</ele>
        <time>2019-01-13T11:12:37Z</time>
      </trkpt>
      <trkpt lat="60.093467277578" lon="15.899711186285">
        <ele>406.4</ele>
        <time>2019-01-13T11:12:38Z</time>
      </trkpt>
      <trkpt lat="60.093373819393" lon="15.899574393677">
        <ele>406.4</ele>
        <time>2019-01-13T11:12:41Z</time>
      </trkpt>
      <trkpt lat="60.09321230018" lon="15.899225538999">
        <ele>406.4</ele>
        <time>2019-01-13T11:12:47Z</time>
      </trkpt>
      <trkpt lat="60.093179946046" lon="15.898890011542">
        <ele>405.6</ele>
        <time>2019-01-13T11:12:51Z</time>
      </trkpt>
      <trkpt lat="60.093150944672" lon="15.898736706591">
        <ele>405.4</ele>
        <time>2019-01-13T11:12:53Z</time>
      </trkpt>
      <trkpt lat="60.093009709657" lon="15.898447531041">
        <ele>405.2</ele>
        <time>2019-01-13T11:12:59Z</time>
      </trkpt>
      <trkpt lat="60.092835785232" lon="15.898135389085">
        <ele>404.6</ele>
        <time>2019-01-13T11:13:05Z</time>
      </trkpt>
      <trkpt lat="60.092769484403" lon="15.897946963973">
        <ele>404.4</ele>
        <time>2019-01-13T11:13:08Z</time>
      </trkpt>
      <trkpt lat="60.092809801342" lon="15.897566844808">
        <ele>404.4</ele>
        <time>2019-01-13T11:13:13Z</time>
      </trkpt>
      <trkpt lat="60.092894458532" lon="15.89715261131">
        <ele>404</ele>
        <time>2019-01-13T11:13:19Z</time>
      </trkpt>
      <trkpt lat="60.092972829297" lon="15.896796548198">
        <ele>404.8</ele>
        <time>2019-01-13T11:13:25Z</time>
      </trkpt>
      <trkpt lat="60.093066371301" lon="15.896455404868">
        <ele>405.2</ele>
        <time>2019-01-13T11:13:31Z</time>
      </trkpt>
      <trkpt lat="60.093103251661" lon="15.896340740476">
        <ele>405.4</ele>
        <time>2019-01-13T11:13:33Z</time>
      </trkpt>
      <trkpt lat="60.093221268813" lon="15.895979899681">
        <ele>404.8</ele>
        <time>2019-01-13T11:13:39Z</time>
      </trkpt>
      <trkpt lat="60.093323108898" lon="15.895618807429">
        <ele>405.8</ele>
        <time>2019-01-13T11:13:45Z</time>
      </trkpt>
      <trkpt lat="60.093385470234" lon="15.895276909728">
        <ele>405.4</ele>
        <time>2019-01-13T11:13:51Z</time>
      </trkpt>
      <trkpt lat="60.09343022958" lon="15.894977005346">
        <ele>405.8</ele>
        <time>2019-01-13T11:13:57Z</time>
      </trkpt>
      <trkpt lat="60.093479934247" lon="15.894652625816">
        <ele>406</ele>
        <time>2019-01-13T11:14:03Z</time>
      </trkpt>
      <trkpt lat="60.09352410686" lon="15.894259095611">
        <ele>406</ele>
        <time>2019-01-13T11:14:09Z</time>
      </trkpt>
      <trkpt lat="60.093570961681" lon="15.893848633968">
        <ele>406.6</ele>
        <time>2019-01-13T11:14:15Z</time>
      </trkpt>
      <trkpt lat="60.093613541733" lon="15.893479495092">
        <ele>406.8</ele>
        <time>2019-01-13T11:14:21Z</time>
      </trkpt>
      <trkpt lat="60.093661486201" lon="15.893122929066">
        <ele>406.2</ele>
        <time>2019-01-13T11:14:27Z</time>
      </trkpt>
      <trkpt lat="60.093748490323" lon="15.892779606442">
        <ele>406</ele>
        <time>2019-01-13T11:14:33Z</time>
      </trkpt>
      <trkpt lat="60.093851336236" lon="15.89246964378">
        <ele>406.6</ele>
        <time>2019-01-13T11:14:39Z</time>
      </trkpt>
      <trkpt lat="60.093907494966" lon="15.892294629708">
        <ele>406.8</ele>
        <time>2019-01-13T11:14:45Z</time>
      </trkpt>
      <trkpt lat="60.093930796648" lon="15.89222321592">
        <ele>408</ele>
        <time>2019-01-13T11:14:48Z</time>
      </trkpt>
      <trkpt lat="60.093972370872" lon="15.892002520493">
        <ele>408.8</ele>
        <time>2019-01-13T11:14:54Z</time>
      </trkpt>
      <trkpt lat="60.093980501315" lon="15.891957761147">
        <ele>409</ele>
        <time>2019-01-13T11:14:55Z</time>
      </trkpt>
      <trkpt lat="60.094056776605" lon="15.891728935277">
        <ele>410</ele>
        <time>2019-01-13T11:15:01Z</time>
      </trkpt>
      <trkpt lat="60.094067505437" lon="15.891698257523">
        <ele>410</ele>
        <time>2019-01-13T11:15:02Z</time>
      </trkpt>
      <trkpt lat="60.094127771298" lon="15.891628603934">
        <ele>411.2</ele>
        <time>2019-01-13T11:15:08Z</time>
      </trkpt>
      <trkpt lat="60.094157443224" lon="15.891619802939">
        <ele>412</ele>
        <time>2019-01-13T11:15:11Z</time>
      </trkpt>
      <trkpt lat="60.094173117377" lon="15.891612929781">
        <ele>412.4</ele>
        <time>2019-01-13T11:15:13Z</time>
      </trkpt>
      <trkpt lat="60.094235562532" lon="15.891617875102">
        <ele>413.4</ele>
        <time>2019-01-13T11:15:18Z</time>
      </trkpt>
      <trkpt lat="60.094385179447" lon="15.891600105474">
        <ele>413.4</ele>
        <time>2019-01-13T11:15:24Z</time>
      </trkpt>
      <trkpt lat="60.094570670894" lon="15.891520225967">
        <ele>413.4</ele>
        <time>2019-01-13T11:15:30Z</time>
      </trkpt>
      <trkpt lat="60.094743757129" lon="15.891324760059">
        <ele>413.4</ele>
        <time>2019-01-13T11:15:36Z</time>
      </trkpt>
      <trkpt lat="60.094909802568" lon="15.891052432128">
        <ele>413.4</ele>
        <time>2019-01-13T11:15:42Z</time>
      </trkpt>
      <trkpt lat="60.095063526614" lon="15.890783037862">
        <ele>413.6</ele>
        <time>2019-01-13T11:15:48Z</time>
      </trkpt>
      <trkpt lat="60.095201576507" lon="15.890528228102">
        <ele>413.6</ele>
        <time>2019-01-13T11:15:54Z</time>
      </trkpt>
      <trkpt lat="60.095397880605" lon="15.890250200479">
        <ele>412</ele>
        <time>2019-01-13T11:16:00Z</time>
      </trkpt>
      <trkpt lat="60.095596783092" lon="15.890063367928">
        <ele>411.8</ele>
        <time>2019-01-13T11:16:06Z</time>
      </trkpt>
      <trkpt lat="60.095748327844" lon="15.89008080228">
        <ele>412</ele>
        <time>2019-01-13T11:16:10Z</time>
      </trkpt>
      <trkpt lat="60.095967346891" lon="15.890356985885">
        <ele>410.8</ele>
        <time>2019-01-13T11:16:16Z</time>
      </trkpt>
      <trkpt lat="60.096121070937" lon="15.890560498417">
        <ele>409.8</ele>
        <time>2019-01-13T11:16:20Z</time>
      </trkpt>
      <trkpt lat="60.096273621517" lon="15.89078991102">
        <ele>408.6</ele>
        <time>2019-01-13T11:16:24Z</time>
      </trkpt>
      <trkpt lat="60.096364816589" lon="15.890971043879">
        <ele>407.6</ele>
        <time>2019-01-13T11:16:27Z</time>
      </trkpt>
      <trkpt lat="60.096639910547" lon="15.891164917226">
        <ele>408</ele>
        <time>2019-01-13T11:16:33Z</time>
      </trkpt>
      <trkpt lat="60.096754072025" lon="15.891218980481">
        <ele>408.6</ele>
        <time>2019-01-13T11:16:36Z</time>
      </trkpt>
      <trkpt lat="60.096952387779" lon="15.891330375932">
        <ele>408.6</ele>
        <time>2019-01-13T11:16:42Z</time>
      </trkpt>
      <trkpt lat="60.097113068802" lon="15.891469431653">
        <ele>408.8</ele>
        <time>2019-01-13T11:16:48Z</time>
      </trkpt>
      <trkpt lat="60.097221111493" lon="15.891644613363">
        <ele>408.6</ele>
        <time>2019-01-13T11:16:53Z</time>
      </trkpt>
      <trkpt lat="60.097328064537" lon="15.891991959299">
        <ele>408.2</ele>
        <time>2019-01-13T11:20:01Z</time>
      </trkpt>
      <trkpt lat="60.097341307939" lon="15.892012578773">
        <ele>408.6</ele>
        <time>2019-01-13T11:20:04Z</time>
      </trkpt>
      <trkpt lat="60.097376344281" lon="15.892126153518">
        <ele>408.8</ele>
        <time>2019-01-13T11:20:10Z</time>
      </trkpt>
      <trkpt lat="60.097449182992" lon="15.89223746515">
        <ele>409.4</ele>
        <time>2019-01-13T11:20:16Z</time>
      </trkpt>
      <trkpt lat="60.097523530445" lon="15.892282224496">
        <ele>409.6</ele>
        <time>2019-01-13T11:20:19Z</time>
      </trkpt>
      <trkpt lat="60.097694772662" lon="15.892397978535">
        <ele>410.2</ele>
        <time>2019-01-13T11:20:25Z</time>
      </trkpt>
      <trkpt lat="60.097894932434" lon="15.892597970669">
        <ele>410.2</ele>
        <time>2019-01-13T11:20:31Z</time>
      </trkpt>
      <trkpt lat="60.098081681166" lon="15.892835346077">
        <ele>410.6</ele>
        <time>2019-01-13T11:20:37Z</time>
      </trkpt>
      <trkpt lat="60.098148149633" lon="15.892892175359">
        <ele>410.8</ele>
        <time>2019-01-13T11:20:39Z</time>
      </trkpt>
      <trkpt lat="60.098338167306" lon="15.893079259367">
        <ele>410.8</ele>
        <time>2019-01-13T11:20:45Z</time>
      </trkpt>
      <trkpt lat="60.098563891873" lon="15.89328017351">
        <ele>410</ele>
        <time>2019-01-13T11:20:51Z</time>
      </trkpt>
      <trkpt lat="60.098805290593" lon="15.893367429089">
        <ele>409.8</ele>
        <time>2019-01-13T11:20:57Z</time>
      </trkpt>
      <trkpt lat="60.098880057141" lon="15.893374134609">
        <ele>409.6</ele>
        <time>2019-01-13T11:20:59Z</time>
      </trkpt>
      <trkpt lat="60.099101255482" lon="15.89344110599">
        <ele>409.6</ele>
        <time>2019-01-13T11:21:05Z</time>
      </trkpt>
      <trkpt lat="60.099323878746" lon="15.893485110965">
        <ele>410.2</ele>
        <time>2019-01-13T11:21:11Z</time>
      </trkpt>
      <trkpt lat="60.0995473402" lon="15.893573204734">
        <ele>409.8</ele>
        <time>2019-01-13T11:21:17Z</time>
      </trkpt>
      <trkpt lat="60.099628141716" lon="15.893660125037">
        <ele>410</ele>
        <time>2019-01-13T11:21:19Z</time>
      </trkpt>
      <trkpt lat="60.09979376806" lon="15.893789876849">
        <ele>410.2</ele>
        <time>2019-01-13T11:21:23Z</time>
      </trkpt>
      <trkpt lat="60.099887393883" lon="15.893780153845">
        <ele>410.2</ele>
        <time>2019-01-13T11:21:25Z</time>
      </trkpt>
      <trkpt lat="60.100078333565" lon="15.893594746217">
        <ele>410.4</ele>
        <time>2019-01-13T11:21:31Z</time>
      </trkpt>
      <trkpt lat="60.100106748206" lon="15.893573707648">
        <ele>410.6</ele>
        <time>2019-01-13T11:21:32Z</time>
      </trkpt>
      <trkpt lat="60.100145304946" lon="15.89356264354">
        <ele>410.8</ele>
        <time>2019-01-13T11:21:33Z</time>
      </trkpt>
      <trkpt lat="60.100264998478" lon="15.893526852827">
        <ele>410.8</ele>
        <time>2019-01-13T11:21:36Z</time>
      </trkpt>
      <trkpt lat="60.100560125177" lon="15.893438172325">
        <ele>410</ele>
        <time>2019-01-13T11:21:42Z</time>
      </trkpt>
      <trkpt lat="60.100663054909" lon="15.893415708833">
        <ele>410</ele>
        <time>2019-01-13T11:21:44Z</time>
      </trkpt>
      <trkpt lat="60.100750226669" lon="15.893436831221">
        <ele>409.4</ele>
        <time>2019-01-13T11:21:46Z</time>
      </trkpt>
      <trkpt lat="60.101013585967" lon="15.893531127596">
        <ele>409.6</ele>
        <time>2019-01-13T11:21:52Z</time>
      </trkpt>
      <trkpt lat="60.101324722095" lon="15.893615617148">
        <ele>410.2</ele>
        <time>2019-01-13T11:21:58Z</time>
      </trkpt>
      <trkpt lat="60.101463358721" lon="15.893688204402">
        <ele>410</ele>
        <time>2019-01-13T11:22:01Z</time>
      </trkpt>
      <trkpt lat="60.101565031168" lon="15.893715864672">
        <ele>409.8</ele>
        <time>2019-01-13T11:22:03Z</time>
      </trkpt>
      <trkpt lat="60.101758066325" lon="15.893766826624">
        <ele>410.6</ele>
        <time>2019-01-13T11:22:08Z</time>
      </trkpt>
      <trkpt lat="60.101879268599" lon="15.89374872172">
        <ele>410.8</ele>
        <time>2019-01-13T11:22:14Z</time>
      </trkpt>
      <trkpt lat="60.102000135597" lon="15.893633805871">
        <ele>411.6</ele>
        <time>2019-01-13T11:22:18Z</time>
      </trkpt>
      <trkpt lat="60.102174814393" lon="15.893412942806">
        <ele>411.8</ele>
        <time>2019-01-13T11:22:24Z</time>
      </trkpt>
      <trkpt lat="60.10236701136" lon="15.89317288519">
        <ele>411.8</ele>
        <time>2019-01-13T11:22:30Z</time>
      </trkpt>
      <trkpt lat="60.102556358481" lon="15.893022094809">
        <ele>412.4</ele>
        <time>2019-01-13T11:22:36Z</time>
      </trkpt>
      <trkpt lat="60.102654007616" lon="15.892970797581">
        <ele>412.6</ele>
        <time>2019-01-13T11:22:39Z</time>
      </trkpt>
      <trkpt lat="60.102847880963" lon="15.892902485096">
        <ele>412.6</ele>
        <time>2019-01-13T11:22:45Z</time>
      </trkpt>
      <trkpt lat="60.103048962744" lon="15.892796454061">
        <ele>412.6</ele>
        <time>2019-01-13T11:22:51Z</time>
      </trkpt>
      <trkpt lat="60.103243087548" lon="15.892691596492">
        <ele>412.4</ele>
        <time>2019-01-13T11:22:57Z</time>
      </trkpt>
      <trkpt lat="60.103394967576" lon="15.892466123382">
        <ele>413</ele>
        <time>2019-01-13T11:23:03Z</time>
      </trkpt>
      <trkpt lat="60.10353125727" lon="15.892039317034">
        <ele>411.4</ele>
        <time>2019-01-13T11:23:09Z</time>
      </trkpt>
      <trkpt lat="60.103676850873" lon="15.891758774841">
        <ele>410.4</ele>
        <time>2019-01-13T11:23:14Z</time>
      </trkpt>
      <trkpt lat="60.103911041159" lon="15.891506647289">
        <ele>409.8</ele>
        <time>2019-01-13T11:23:20Z</time>
      </trkpt>
      <trkpt lat="60.1041322395" lon="15.891349402845">
        <ele>410.2</ele>
        <time>2019-01-13T11:23:26Z</time>
      </trkpt>
      <trkpt lat="60.104227960798" lon="15.891202971052">
        <ele>410.2</ele>
        <time>2019-01-13T11:23:29Z</time>
      </trkpt>
      <trkpt lat="60.104305912468" lon="15.89114865634">
        <ele>410.2</ele>
        <time>2019-01-13T11:23:31Z</time>
      </trkpt>
      <trkpt lat="60.104517387805" lon="15.891338506375">
        <ele>410.2</ele>
        <time>2019-01-13T11:23:37Z</time>
      </trkpt>
      <trkpt lat="60.104652001119" lon="15.89167671604">
        <ele>410.2</ele>
        <time>2019-01-13T11:23:43Z</time>
      </trkpt>
      <trkpt lat="60.104770856461" lon="15.891957761147">
        <ele>410.4</ele>
        <time>2019-01-13T11:23:49Z</time>
      </trkpt>
      <trkpt lat="60.104930950751" lon="15.892118693627">
        <ele>410.8</ele>
        <time>2019-01-13T11:23:55Z</time>
      </trkpt>
      <trkpt lat="60.105072101947" lon="15.892174517081">
        <ele>411.4</ele>
        <time>2019-01-13T11:24:00Z</time>
      </trkpt>
      <trkpt lat="60.105282487637" lon="15.892171583416">
        <ele>412</ele>
        <time>2019-01-13T11:24:06Z</time>
      </trkpt>
      <trkpt lat="60.10550854748" lon="15.89211760398">
        <ele>411.4</ele>
        <time>2019-01-13T11:24:12Z</time>
      </trkpt>
      <trkpt lat="60.105763273421" lon="15.892078795783">
        <ele>411.4</ele>
        <time>2019-01-13T11:24:18Z</time>
      </trkpt>
      <trkpt lat="60.105991512558" lon="15.892055661739">
        <ele>411.4</ele>
        <time>2019-01-13T11:24:24Z</time>
      </trkpt>
      <trkpt lat="60.10620592156" lon="15.892084244018">
        <ele>411</ele>
        <time>2019-01-13T11:24:30Z</time>
      </trkpt>
      <trkpt lat="60.106419743829" lon="15.89215280796">
        <ele>411.6</ele>
        <time>2019-01-13T11:24:36Z</time>
      </trkpt>
      <trkpt lat="60.10661747285" lon="15.892284655247">
        <ele>411.8</ele>
        <time>2019-01-13T11:24:42Z</time>
      </trkpt>
      <trkpt lat="60.106827942359" lon="15.892394458137">
        <ele>411.6</ele>
        <time>2019-01-13T11:24:48Z</time>
      </trkpt>
      <trkpt lat="60.107069089622" lon="15.892485737028">
        <ele>411.8</ele>
        <time>2019-01-13T11:24:54Z</time>
      </trkpt>
      <trkpt lat="60.107335382585" lon="15.892493532195">
        <ele>410.8</ele>
        <time>2019-01-13T11:25:00Z</time>
      </trkpt>
      <trkpt lat="60.107575021106" lon="15.892457741482">
        <ele>410.8</ele>
        <time>2019-01-13T11:25:06Z</time>
      </trkpt>
      <trkpt lat="60.107812899428" lon="15.892433936886">
        <ele>410.8</ele>
        <time>2019-01-13T11:25:12Z</time>
      </trkpt>
      <trkpt lat="60.107927731458" lon="15.892411389575">
        <ele>410.4</ele>
        <time>2019-01-13T11:25:15Z</time>
      </trkpt>
      <trkpt lat="60.108120179882" lon="15.892375095948">
        <ele>411.4</ele>
        <time>2019-01-13T11:25:21Z</time>
      </trkpt>
      <trkpt lat="60.10828882371" lon="15.892384651314">
        <ele>412.2</ele>
        <time>2019-01-13T11:25:27Z</time>
      </trkpt>
      <trkpt lat="60.108370044321" lon="15.892385238047">
        <ele>412.4</ele>
        <time>2019-01-13T11:25:30Z</time>
      </trkpt>
      <trkpt lat="60.108546567135" lon="15.892396134517">
        <ele>412.8</ele>
        <time>2019-01-13T11:25:36Z</time>
      </trkpt>
      <trkpt lat="60.108737842093" lon="15.892398313811">
        <ele>412.6</ele>
        <time>2019-01-13T11:25:42Z</time>
      </trkpt>
      <trkpt lat="60.108972116198" lon="15.892400493105">
        <ele>412.8</ele>
        <time>2019-01-13T11:25:48Z</time>
      </trkpt>
      <trkpt lat="60.109211251805" lon="15.892408372091">
        <ele>412.8</ele>
        <time>2019-01-13T11:25:54Z</time>
      </trkpt>
      <trkpt lat="60.109253412762" lon="15.892415412887">
        <ele>412.6</ele>
        <time>2019-01-13T11:25:55Z</time>
      </trkpt>
      <trkpt lat="60.109410573387" lon="15.89248556939">
        <ele>411.2</ele>
        <time>2019-01-13T11:25:59Z</time>
      </trkpt>
      <trkpt lat="60.109655743962" lon="15.892573914616">
        <ele>410.4</ele>
        <time>2019-01-13T11:26:05Z</time>
      </trkpt>
      <trkpt lat="60.109826986179" lon="15.892521276284">
        <ele>411</ele>
        <time>2019-01-13T11:26:09Z</time>
      </trkpt>
      <trkpt lat="60.110065367415" lon="15.892373922482">
        <ele>410.8</ele>
        <time>2019-01-13T11:26:15Z</time>
      </trkpt>
      <trkpt lat="60.110219510556" lon="15.892472325988">
        <ele>411</ele>
        <time>2019-01-13T11:26:19Z</time>
      </trkpt>
      <trkpt lat="60.110352363671" lon="15.89289041516">
        <ele>410.6</ele>
        <time>2019-01-13T11:26:25Z</time>
      </trkpt>
      <trkpt lat="60.110449845168" lon="15.893318143517">
        <ele>410.8</ele>
        <time>2019-01-13T11:26:31Z</time>
      </trkpt>
      <trkpt lat="60.110647155094" lon="15.893934548443">
        <ele>410.2</ele>
        <time>2019-01-13T11:26:41Z</time>
      </trkpt>
      <trkpt lat="60.110788893023" lon="15.894264040932">
        <ele>410.2</ele>
        <time>2019-01-13T11:26:47Z</time>
      </trkpt>
      <trkpt lat="60.110891738936" lon="15.894643321907">
        <ele>410</ele>
        <time>2019-01-13T11:26:53Z</time>
      </trkpt>
      <trkpt lat="60.111033476865" lon="15.894950518542">
        <ele>410</ele>
        <time>2019-01-13T11:26:59Z</time>
      </trkpt>
      <trkpt lat="60.111221315244" lon="15.895101057466">
        <ele>410.2</ele>
        <time>2019-01-13T11:27:05Z</time>
      </trkpt>
      <trkpt lat="60.111472856063" lon="15.895119497646">
        <ele>410.2</ele>
        <time>2019-01-13T11:27:11Z</time>
      </trkpt>
      <trkpt lat="60.111699586458" lon="15.895106338063">
        <ele>410.6</ele>
        <time>2019-01-13T11:27:17Z</time>
      </trkpt>
      <trkpt lat="60.111918689324" lon="15.895073564834">
        <ele>410.8</ele>
        <time>2019-01-13T11:27:23Z</time>
      </trkpt>
      <trkpt lat="60.112159920406" lon="15.894948087791">
        <ele>410.4</ele>
        <time>2019-01-13T11:27:29Z</time>
      </trkpt>
      <trkpt lat="60.112369384087" lon="15.89488027822">
        <ele>410.6</ele>
        <time>2019-01-13T11:27:35Z</time>
      </trkpt>
      <trkpt lat="60.112530568024" lon="15.894883211885">
        <ele>410.6</ele>
        <time>2019-01-13T11:27:39Z</time>
      </trkpt>
      <trkpt lat="60.112742378637" lon="15.89470174375">
        <ele>410</ele>
        <time>2019-01-13T11:27:45Z</time>
      </trkpt>
      <trkpt lat="60.112772721115" lon="15.894646087934">
        <ele>410.2</ele>
        <time>2019-01-13T11:27:46Z</time>
      </trkpt>
      <trkpt lat="60.112908591714" lon="15.894278709257">
        <ele>410.2</ele>
        <time>2019-01-13T11:27:52Z</time>
      </trkpt>
      <trkpt lat="60.112990650515" lon="15.893869756356">
        <ele>410.2</ele>
        <time>2019-01-13T11:27:58Z</time>
      </trkpt>
      <trkpt lat="60.113054939688" lon="15.89344362056">
        <ele>410.2</ele>
        <time>2019-01-13T11:28:04Z</time>
      </trkpt>
      <trkpt lat="60.113136327937" lon="15.892990662684">
        <ele>410.6</ele>
        <time>2019-01-13T11:28:10Z</time>
      </trkpt>
      <trkpt lat="60.113268091405" lon="15.892594701728">
        <ele>410.8</ele>
        <time>2019-01-13T11:28:16Z</time>
      </trkpt>
      <trkpt lat="60.113364399436" lon="15.89235564994">
        <ele>410.8</ele>
        <time>2019-01-13T11:28:20Z</time>
      </trkpt>
      <trkpt lat="60.113489373565" lon="15.892013836058">
        <ele>410.6</ele>
        <time>2019-01-13T11:28:26Z</time>
      </trkpt>
      <trkpt lat="60.1135954046" lon="15.89155936944">
        <ele>410.4</ele>
        <time>2019-01-13T11:28:32Z</time>
      </trkpt>
      <trkpt lat="60.113722306566" lon="15.891176819524">
        <ele>410.6</ele>
        <time>2019-01-13T11:28:38Z</time>
      </trkpt>
      <trkpt lat="60.113895057525" lon="15.890876579866">
        <ele>410.6</ele>
        <time>2019-01-13T11:28:44Z</time>
      </trkpt>
      <trkpt lat="60.114091948356" lon="15.890639707372">
        <ele>411</ele>
        <time>2019-01-13T11:28:50Z</time>
      </trkpt>
      <trkpt lat="60.11429613144" lon="15.890424208723">
        <ele>410.8</ele>
        <time>2019-01-13T11:28:56Z</time>
      </trkpt>
      <trkpt lat="60.114442647052" lon="15.890241567122">
        <ele>411</ele>
        <time>2019-01-13T11:29:00Z</time>
      </trkpt>
      <trkpt lat="60.114479946507" lon="15.890200914907">
        <ele>411.2</ele>
        <time>2019-01-13T11:29:01Z</time>
      </trkpt>
      <trkpt lat="60.114713382422" lon="15.889987679371">
        <ele>411.2</ele>
        <time>2019-01-13T11:29:07Z</time>
      </trkpt>
      <trkpt lat="60.11491303928" lon="15.889802104105">
        <ele>411</ele>
        <time>2019-01-13T11:29:13Z</time>
      </trkpt>
      <trkpt lat="60.115093920682" lon="15.889523489749">
        <ele>410.8</ele>
        <time>2019-01-13T11:29:19Z</time>
      </trkpt>
      <trkpt lat="60.115257451551" lon="15.889200954237">
        <ele>410.8</ele>
        <time>2019-01-13T11:29:25Z</time>
      </trkpt>
      <trkpt lat="60.115391897227" lon="15.888889818109">
        <ele>410.6</ele>
        <time>2019-01-13T11:29:31Z</time>
      </trkpt>
      <trkpt lat="60.11549977228" lon="15.888583962578">
        <ele>410.8</ele>
        <time>2019-01-13T11:29:37Z</time>
      </trkpt>
      <trkpt lat="60.115599265433" lon="15.888304090937">
        <ele>411.2</ele>
        <time>2019-01-13T11:29:43Z</time>
      </trkpt>
      <trkpt lat="60.115714851834" lon="15.887985411099">
        <ele>411.4</ele>
        <time>2019-01-13T11:29:49Z</time>
      </trkpt>
      <trkpt lat="60.115870755174" lon="15.887708389304">
        <ele>411.8</ele>
        <time>2019-01-13T11:29:55Z</time>
      </trkpt>
      <trkpt lat="60.115994052923" lon="15.887560197312">
        <ele>412</ele>
        <time>2019-01-13T11:30:01Z</time>
      </trkpt>
      <trkpt lat="60.116029927455" lon="15.88753186649">
        <ele>412.2</ele>
        <time>2019-01-13T11:30:03Z</time>
      </trkpt>
      <trkpt lat="60.116170156642" lon="15.887478641425">
        <ele>413</ele>
        <time>2019-01-13T11:30:09Z</time>
      </trkpt>
      <trkpt lat="60.11624911414" lon="15.887466739127">
        <ele>413.4</ele>
        <time>2019-01-13T11:30:12Z</time>
      </trkpt>
      <trkpt lat="60.116430498456" lon="15.887551815412">
        <ele>414</ele>
        <time>2019-01-13T11:30:18Z</time>
      </trkpt>
      <trkpt lat="60.116641135603" lon="15.887550390489">
        <ele>413.8</ele>
        <time>2019-01-13T11:30:24Z</time>
      </trkpt>
      <trkpt lat="60.116841630651" lon="15.887353834934">
        <ele>413.4</ele>
        <time>2019-01-13T11:30:30Z</time>
      </trkpt>
      <trkpt lat="60.116974735223" lon="15.88714210814">
        <ele>414</ele>
        <time>2019-01-13T11:30:36Z</time>
      </trkpt>
      <trkpt lat="60.117042628613" lon="15.887029036309">
        <ele>414.6</ele>
        <time>2019-01-13T11:30:40Z</time>
      </trkpt>
      <trkpt lat="60.117169530579" lon="15.886855782436">
        <ele>415.4</ele>
        <time>2019-01-13T11:30:46Z</time>
      </trkpt>
      <trkpt lat="60.117338090588" lon="15.886609186938">
        <ele>414.2</ele>
        <time>2019-01-13T11:30:52Z</time>
      </trkpt>
      <trkpt lat="60.117493574833" lon="15.886255638396">
        <ele>414</ele>
        <time>2019-01-13T11:30:58Z</time>
      </trkpt>
      <trkpt lat="60.117635648038" lon="15.885899323827">
        <ele>414.8</ele>
        <time>2019-01-13T11:31:04Z</time>
      </trkpt>
      <trkpt lat="60.117761963271" lon="15.885570753347">
        <ele>414.2</ele>
        <time>2019-01-13T11:31:10Z</time>
      </trkpt>
      <trkpt lat="60.117888278504" lon="15.885297419588">
        <ele>414.8</ele>
        <time>2019-01-13T11:31:16Z</time>
      </trkpt>
      <trkpt lat="60.118032195727" lon="15.885034814661">
        <ele>414.8</ele>
        <time>2019-01-13T11:31:22Z</time>
      </trkpt>
      <trkpt lat="60.118183153746" lon="15.884768186422">
        <ele>415.2</ele>
        <time>2019-01-13T11:31:28Z</time>
      </trkpt>
      <trkpt lat="60.118317515603" lon="15.884525614236">
        <ele>415.6</ele>
        <time>2019-01-13T11:31:34Z</time>
      </trkpt>
      <trkpt lat="60.118448859976" lon="15.884295111986">
        <ele>416</ele>
        <time>2019-01-13T11:31:40Z</time>
      </trkpt>
      <trkpt lat="60.118577857417" lon="15.884064023003">
        <ele>416.2</ele>
        <time>2019-01-13T11:31:46Z</time>
      </trkpt>
      <trkpt lat="60.118663185159" lon="15.88392010578">
        <ele>416.6</ele>
        <time>2019-01-13T11:31:50Z</time>
      </trkpt>
      <trkpt lat="60.118806012735" lon="15.88369630905">
        <ele>417.2</ele>
        <time>2019-01-13T11:31:56Z</time>
      </trkpt>
      <trkpt lat="60.118963340998" lon="15.883484749894">
        <ele>417</ele>
        <time>2019-01-13T11:32:02Z</time>
      </trkpt>
      <trkpt lat="60.119119747252" lon="15.883253241816">
        <ele>417.2</ele>
        <time>2019-01-13T11:32:08Z</time>
      </trkpt>
      <trkpt lat="60.119274309488" lon="15.882994576382">
        <ele>417.2</ele>
        <time>2019-01-13T11:32:14Z</time>
      </trkpt>
      <trkpt lat="60.119422669118" lon="15.882665586807">
        <ele>417.6</ele>
        <time>2019-01-13T11:32:20Z</time>
      </trkpt>
      <trkpt lat="60.119565245237" lon="15.882349086263">
        <ele>417</ele>
        <time>2019-01-13T11:32:26Z</time>
      </trkpt>
      <trkpt lat="60.119699187999" lon="15.882066783871">
        <ele>417</ele>
        <time>2019-01-13T11:32:32Z</time>
      </trkpt>
      <trkpt lat="60.119848302" lon="15.881766125118">
        <ele>417.2</ele>
        <time>2019-01-13T11:32:38Z</time>
      </trkpt>
      <trkpt lat="60.119983669685" lon="15.881488768047">
        <ele>417.2</ele>
        <time>2019-01-13T11:32:44Z</time>
      </trkpt>
      <trkpt lat="60.120120797569" lon="15.881216021021">
        <ele>417.6</ele>
        <time>2019-01-13T11:32:50Z</time>
      </trkpt>
      <trkpt lat="60.120250800838" lon="15.880974873758">
        <ele>417.4</ele>
        <time>2019-01-13T11:32:56Z</time>
      </trkpt>
      <trkpt lat="60.120339229883" lon="15.880837159141">
        <ele>417.8</ele>
        <time>2019-01-13T11:33:00Z</time>
      </trkpt>
      <trkpt lat="60.120454732465" lon="15.880612691859">
        <ele>418.6</ele>
        <time>2019-01-13T11:33:06Z</time>
      </trkpt>
      <trkpt lat="60.12049454649" lon="15.880574470395">
        <ele>419</ele>
        <time>2019-01-13T11:33:08Z</time>
      </trkpt>
      <trkpt lat="60.120599571697" lon="15.880404485463">
        <ele>419.6</ele>
        <time>2019-01-13T11:33:14Z</time>
      </trkpt>
      <trkpt lat="60.120743740377" lon="15.880219413111">
        <ele>419.8</ele>
        <time>2019-01-13T11:33:20Z</time>
      </trkpt>
      <trkpt lat="60.120900901002" lon="15.879958736021">
        <ele>418.6</ele>
        <time>2019-01-13T11:33:26Z</time>
      </trkpt>
      <trkpt lat="60.121074825427" lon="15.8796185147">
        <ele>418.6</ele>
        <time>2019-01-13T11:33:32Z</time>
      </trkpt>
      <trkpt lat="60.12120952256" lon="15.879200090252">
        <ele>418.4</ele>
        <time>2019-01-13T11:33:38Z</time>
      </trkpt>
      <trkpt lat="60.121259478684" lon="15.878894234721">
        <ele>417.8</ele>
        <time>2019-01-13T11:33:42Z</time>
      </trkpt>
      <trkpt lat="60.121277918864" lon="15.878559964549">
        <ele>418.2</ele>
        <time>2019-01-13T11:33:46Z</time>
      </trkpt>
      <trkpt lat="60.121312955206" lon="15.87812066917">
        <ele>418.2</ele>
        <time>2019-01-13T11:33:52Z</time>
      </trkpt>
      <trkpt lat="60.121373221067" lon="15.877737281064">
        <ele>418</ele>
        <time>2019-01-13T11:33:58Z</time>
      </trkpt>
      <trkpt lat="60.121506409458" lon="15.877391611508">
        <ele>418</ele>
        <time>2019-01-13T11:34:04Z</time>
      </trkpt>
      <trkpt lat="60.121649488491" lon="15.877156080118">
        <ele>418.2</ele>
        <time>2019-01-13T11:34:10Z</time>
      </trkpt>
      <trkpt lat="60.121786281099" lon="15.876861372514">
        <ele>418.6</ele>
        <time>2019-01-13T11:34:16Z</time>
      </trkpt>
      <trkpt lat="60.121890216659" lon="15.876461220608">
        <ele>418.4</ele>
        <time>2019-01-13T11:34:22Z</time>
      </trkpt>
      <trkpt lat="60.121968419786" lon="15.876053105897">
        <ele>418.4</ele>
        <time>2019-01-13T11:34:28Z</time>
      </trkpt>
      <trkpt lat="60.12202591962" lon="15.875702742477">
        <ele>418.2</ele>
        <time>2019-01-13T11:34:34Z</time>
      </trkpt>
      <trkpt lat="60.122085934024" lon="15.875389678512">
        <ele>419</ele>
        <time>2019-01-13T11:34:39Z</time>
      </trkpt>
      <trkpt lat="60.12220445409" lon="15.874992041176">
        <ele>418.4</ele>
        <time>2019-01-13T11:34:45Z</time>
      </trkpt>
      <trkpt lat="60.122290452384" lon="15.874615526228">
        <ele>418.4</ele>
        <time>2019-01-13T11:34:51Z</time>
      </trkpt>
      <trkpt lat="60.122335966101" lon="15.874248147551">
        <ele>418.4</ele>
        <time>2019-01-13T11:34:57Z</time>
      </trkpt>
      <trkpt lat="60.122327081287" lon="15.873998618388">
        <ele>418.8</ele>
        <time>2019-01-13T11:35:03Z</time>
      </trkpt>
      <trkpt lat="60.122273772403" lon="15.873714388159">
        <ele>419.8</ele>
        <time>2019-01-13T11:35:09Z</time>
      </trkpt>
      <trkpt lat="60.122202526253" lon="15.87332203142">
        <ele>419.6</ele>
        <time>2019-01-13T11:35:15Z</time>
      </trkpt>
      <trkpt lat="60.122130525732" lon="15.872925064636">
        <ele>419.2</ele>
        <time>2019-01-13T11:35:21Z</time>
      </trkpt>
      <trkpt lat="60.122111163543" lon="15.872564056203">
        <ele>419.4</ele>
        <time>2019-01-13T11:35:27Z</time>
      </trkpt>
      <trkpt lat="60.122140500193" lon="15.872240431044">
        <ele>420.2</ele>
        <time>2019-01-13T11:35:33Z</time>
      </trkpt>
      <trkpt lat="60.122189701946" lon="15.87192476869">
        <ele>421</ele>
        <time>2019-01-13T11:35:39Z</time>
      </trkpt>
      <trkpt lat="60.122198335303" lon="15.871881098991">
        <ele>421.2</ele>
        <time>2019-01-13T11:35:40Z</time>
      </trkpt>
      <trkpt lat="60.122233539283" lon="15.871646992524">
        <ele>422.2</ele>
        <time>2019-01-13T11:35:46Z</time>
      </trkpt>
      <trkpt lat="60.122243262287" lon="15.87156518518">
        <ele>422.4</ele>
        <time>2019-01-13T11:35:48Z</time>
      </trkpt>
      <trkpt lat="60.122262875933" lon="15.87136066682">
        <ele>423.2</ele>
        <time>2019-01-13T11:35:52Z</time>
      </trkpt>
      <trkpt lat="60.122273353308" lon="15.871302328796">
        <ele>423.4</ele>
        <time>2019-01-13T11:35:53Z</time>
      </trkpt>
      <trkpt lat="60.122306377994" lon="15.870926819676">
        <ele>423.6</ele>
        <time>2019-01-13T11:35:59Z</time>
      </trkpt>
      <trkpt lat="60.122275281145" lon="15.870627082932">
        <ele>423.8</ele>
        <time>2019-01-13T11:36:05Z</time>
      </trkpt>
      <trkpt lat="60.122234461292" lon="15.870284849955">
        <ele>424</ele>
        <time>2019-01-13T11:36:11Z</time>
      </trkpt>
      <trkpt lat="60.122205795194" lon="15.86994747848">
        <ele>424</ele>
        <time>2019-01-13T11:36:17Z</time>
      </trkpt>
      <trkpt lat="60.122193976715" lon="15.869617315439">
        <ele>424.2</ele>
        <time>2019-01-13T11:36:23Z</time>
      </trkpt>
      <trkpt lat="60.122207974488" lon="15.869277094118">
        <ele>424.4</ele>
        <time>2019-01-13T11:36:29Z</time>
      </trkpt>
      <trkpt lat="60.122231946722" lon="15.869079700373">
        <ele>424.6</ele>
        <time>2019-01-13T11:36:32Z</time>
      </trkpt>
      <trkpt lat="60.122235048025" lon="15.868683990874">
        <ele>424.6</ele>
        <time>2019-01-13T11:36:38Z</time>
      </trkpt>
      <trkpt lat="60.122191378326" lon="15.868376375144">
        <ele>424.4</ele>
        <time>2019-01-13T11:36:44Z</time>
      </trkpt>
      <trkpt lat="60.122118288158" lon="15.868085942309">
        <ele>424.4</ele>
        <time>2019-01-13T11:36:50Z</time>
      </trkpt>
      <trkpt lat="60.122053076976" lon="15.867771956335">
        <ele>424.8</ele>
        <time>2019-01-13T11:36:56Z</time>
      </trkpt>
      <trkpt lat="60.122074702278" lon="15.867311035654">
        <ele>424.4</ele>
        <time>2019-01-13T11:37:02Z</time>
      </trkpt>
      <trkpt lat="60.122103536014" lon="15.867065362165">
        <ele>423.4</ele>
        <time>2019-01-13T11:37:05Z</time>
      </trkpt>
      <trkpt lat="60.122096159942" lon="15.86684282272">
        <ele>422</ele>
        <time>2019-01-13T11:37:08Z</time>
      </trkpt>
      <trkpt lat="60.121924750087" lon="15.866621372922">
        <ele>422</ele>
        <time>2019-01-13T11:37:14Z</time>
      </trkpt>
      <trkpt lat="60.121851492281" lon="15.866595724308">
        <ele>423.2</ele>
        <time>2019-01-13T11:37:18Z</time>
      </trkpt>
      <trkpt lat="60.121744958332" lon="15.86655280898">
        <ele>424.4</ele>
        <time>2019-01-13T11:37:24Z</time>
      </trkpt>
      <trkpt lat="60.121653427984" lon="15.866519449018">
        <ele>425.4</ele>
        <time>2019-01-13T11:37:30Z</time>
      </trkpt>
      <trkpt lat="60.121594838503" lon="15.866492291662">
        <ele>426.6</ele>
        <time>2019-01-13T11:37:35Z</time>
      </trkpt>
      <trkpt lat="60.121514372263" lon="15.866466140134">
        <ele>427.4</ele>
        <time>2019-01-13T11:37:41Z</time>
      </trkpt>
      <trkpt lat="60.121500877404" lon="15.866462955012">
        <ele>427.6</ele>
        <time>2019-01-13T11:37:42Z</time>
      </trkpt>
      <trkpt lat="60.121385207184" lon="15.866476282233">
        <ele>428</ele>
        <time>2019-01-13T11:37:48Z</time>
      </trkpt>
      <trkpt lat="60.121268447317" lon="15.866506540892">
        <ele>428.6</ele>
        <time>2019-01-13T11:37:54Z</time>
      </trkpt>
      <trkpt lat="60.121187142887" lon="15.866532776239">
        <ele>429.8</ele>
        <time>2019-01-13T11:38:00Z</time>
      </trkpt>
      <trkpt lat="60.121138695505" lon="15.8665427507">
        <ele>430.4</ele>
        <time>2019-01-13T11:38:06Z</time>
      </trkpt>
      <trkpt lat="60.121112376339" lon="15.866545349089">
        <ele>430.8</ele>
        <time>2019-01-13T11:38:09Z</time>
      </trkpt>
      <trkpt lat="60.121059402731" lon="15.866530010212">
        <ele>431.4</ele>
        <time>2019-01-13T11:38:15Z</time>
      </trkpt>
      <trkpt lat="60.121045153501" lon="15.866516682991">
        <ele>431.8</ele>
        <time>2019-01-13T11:38:17Z</time>
      </trkpt>
      <trkpt lat="60.121002070535" lon="15.866495225327">
        <ele>432.6</ele>
        <time>2019-01-13T11:38:22Z</time>
      </trkpt>
      <trkpt lat="60.12098740221" lon="15.866482065744">
        <ele>432.8</ele>
        <time>2019-01-13T11:38:24Z</time>
      </trkpt>
      <trkpt lat="60.120979439405" lon="15.8664756955">
        <ele>433</ele>
        <time>2019-01-13T11:38:25Z</time>
      </trkpt>
      <trkpt lat="60.120955718628" lon="15.866458428786">
        <ele>433.2</ele>
        <time>2019-01-13T11:38:28Z</time>
      </trkpt>
      <trkpt lat="60.120937613724" lon="15.866445939755">
        <ele>433.6</ele>
        <time>2019-01-13T11:38:30Z</time>
      </trkpt>
      <trkpt lat="60.120920011734" lon="15.866437641674">
        <ele>434</ele>
        <time>2019-01-13T11:38:32Z</time>
      </trkpt>
      <trkpt lat="60.120902828839" lon="15.866423308625">
        <ele>434.2</ele>
        <time>2019-01-13T11:38:34Z</time>
      </trkpt>
      <trkpt lat="60.12087759932" lon="15.866407969748">
        <ele>434.6</ele>
        <time>2019-01-13T11:38:36Z</time>
      </trkpt>
      <trkpt lat="60.120833510526" lon="15.866385590075">
        <ele>435</ele>
        <time>2019-01-13T11:38:40Z</time>
      </trkpt>
      <trkpt lat="60.120783889678" lon="15.86638014184">
        <ele>435.8</ele>
        <time>2019-01-13T11:38:46Z</time>
      </trkpt>
      <trkpt lat="60.120774250493" lon="15.866383410781">
        <ele>436</ele>
        <time>2019-01-13T11:38:47Z</time>
      </trkpt>
      <trkpt lat="60.1207619291" lon="15.866391122129">
        <ele>436.2</ele>
        <time>2019-01-13T11:38:48Z</time>
      </trkpt>
      <trkpt lat="60.120704596904" lon="15.866421296969">
        <ele>437</ele>
        <time>2019-01-13T11:38:54Z</time>
      </trkpt>
      <trkpt lat="60.120684899439" lon="15.866433115448">
        <ele>437.6</ele>
        <time>2019-01-13T11:38:56Z</time>
      </trkpt>
      <trkpt lat="60.120668135639" lon="15.866449124877">
        <ele>438.2</ele>
        <time>2019-01-13T11:38:58Z</time>
      </trkpt>
      <trkpt lat="60.120648941088" lon="15.866462703555">
        <ele>438.4</ele>
        <time>2019-01-13T11:39:01Z</time>
      </trkpt>
      <trkpt lat="60.120602337724" lon="15.866500673562">
        <ele>439.4</ele>
        <time>2019-01-13T11:39:07Z</time>
      </trkpt>
      <trkpt lat="60.120556237274" lon="15.86654694165">
        <ele>440.4</ele>
        <time>2019-01-13T11:39:13Z</time>
      </trkpt>
      <trkpt lat="60.120543580605" lon="15.866555826464">
        <ele>440.6</ele>
        <time>2019-01-13T11:39:14Z</time>
      </trkpt>
      <trkpt lat="60.120524302235" lon="15.866571919712">
        <ele>440.8</ele>
        <time>2019-01-13T11:39:16Z</time>
      </trkpt>
      <trkpt lat="60.120509550091" lon="15.866577200309">
        <ele>441.2</ele>
        <time>2019-01-13T11:39:18Z</time>
      </trkpt>
      <trkpt lat="60.120479961984" lon="15.866597149231">
        <ele>441.6</ele>
        <time>2019-01-13T11:39:21Z</time>
      </trkpt>
      <trkpt lat="60.120469652247" lon="15.866598322697">
        <ele>441.6</ele>
        <time>2019-01-13T11:39:22Z</time>
      </trkpt>
      <trkpt lat="60.120440734692" lon="15.866599999077">
        <ele>442</ele>
        <time>2019-01-13T11:39:25Z</time>
      </trkpt>
      <trkpt lat="60.12041408025" lon="15.866619528904">
        <ele>442.6</ele>
        <time>2019-01-13T11:39:28Z</time>
      </trkpt>
      <trkpt lat="60.120383821591" lon="15.866632185573">
        <ele>443</ele>
        <time>2019-01-13T11:39:31Z</time>
      </trkpt>
      <trkpt lat="60.120356915692" lon="15.866655403436">
        <ele>443.4</ele>
        <time>2019-01-13T11:39:33Z</time>
      </trkpt>
      <trkpt lat="60.120345935403" lon="15.866668143924">
        <ele>443.6</ele>
        <time>2019-01-13T11:39:34Z</time>
      </trkpt>
      <trkpt lat="60.120288854664" lon="15.866712651813">
        <ele>444.8</ele>
        <time>2019-01-13T11:39:40Z</time>
      </trkpt>
      <trkpt lat="60.120242502757" lon="15.866757411159">
        <ele>445.6</ele>
        <time>2019-01-13T11:39:46Z</time>
      </trkpt>
      <trkpt lat="60.120222386197" lon="15.866781886307">
        <ele>445.8</ele>
        <time>2019-01-13T11:39:48Z</time>
      </trkpt>
      <trkpt lat="60.12019028352" lon="15.866819688676">
        <ele>446.4</ele>
        <time>2019-01-13T11:39:52Z</time>
      </trkpt>
      <trkpt lat="60.120166898019" lon="15.866861681995">
        <ele>447</ele>
        <time>2019-01-13T11:39:56Z</time>
      </trkpt>
      <trkpt lat="60.120157510291" lon="15.866874171026">
        <ele>447</ele>
        <time>2019-01-13T11:39:57Z</time>
      </trkpt>
      <trkpt lat="60.120121216664" lon="15.866922366951">
        <ele>448</ele>
        <time>2019-01-13T11:40:02Z</time>
      </trkpt>
      <trkpt lat="60.120067153409" lon="15.866983219545">
        <ele>449</ele>
        <time>2019-01-13T11:40:08Z</time>
      </trkpt>
      <trkpt lat="60.120042007709" lon="15.867021943923">
        <ele>449.4</ele>
        <time>2019-01-13T11:40:11Z</time>
      </trkpt>
      <trkpt lat="60.120011162317" lon="15.867083047974">
        <ele>450</ele>
        <time>2019-01-13T11:40:16Z</time>
      </trkpt>
      <trkpt lat="60.119991716309" lon="15.867105762923">
        <ele>450.6</ele>
        <time>2019-01-13T11:40:19Z</time>
      </trkpt>
      <trkpt lat="60.119961541469" lon="15.867139290523">
        <ele>451</ele>
        <time>2019-01-13T11:40:22Z</time>
      </trkpt>
      <trkpt lat="60.119883925075" lon="15.867203747334">
        <ele>451.8</ele>
        <time>2019-01-13T11:40:28Z</time>
      </trkpt>
      <trkpt lat="60.119830783829" lon="15.867243309902">
        <ele>452.2</ele>
        <time>2019-01-13T11:40:31Z</time>
      </trkpt>
      <trkpt lat="60.11972089712" lon="15.867332996232">
        <ele>452.6</ele>
        <time>2019-01-13T11:40:37Z</time>
      </trkpt>
      <trkpt lat="60.119554600224" lon="15.867389574057">
        <ele>452.2</ele>
        <time>2019-01-13T11:40:43Z</time>
      </trkpt>
      <trkpt lat="60.11937723922" lon="15.867393094455">
        <ele>452</ele>
        <time>2019-01-13T11:40:49Z</time>
      </trkpt>
      <trkpt lat="60.119220916785" lon="15.867379767234">
        <ele>452.6</ele>
        <time>2019-01-13T11:40:55Z</time>
      </trkpt>
      <trkpt lat="60.119134750853" lon="15.867372055886">
        <ele>453.4</ele>
        <time>2019-01-13T11:40:59Z</time>
      </trkpt>
      <trkpt lat="60.119023690678" lon="15.86738345527">
        <ele>454.4</ele>
        <time>2019-01-13T11:41:05Z</time>
      </trkpt>
      <trkpt lat="60.118921180041" lon="15.867438021439">
        <ele>455.4</ele>
        <time>2019-01-13T11:41:11Z</time>
      </trkpt>
      <trkpt lat="60.118879941093" lon="15.867461574578">
        <ele>455.6</ele>
        <time>2019-01-13T11:41:13Z</time>
      </trkpt>
      <trkpt lat="60.118845491484" lon="15.867492671427">
        <ele>456</ele>
        <time>2019-01-13T11:41:15Z</time>
      </trkpt>
      <trkpt lat="60.118821435431" lon="15.86751672748">
        <ele>456.4</ele>
        <time>2019-01-13T11:41:17Z</time>
      </trkpt>
      <trkpt lat="60.118811544789" lon="15.867535251479">
        <ele>456.6</ele>
        <time>2019-01-13T11:41:18Z</time>
      </trkpt>
      <trkpt lat="60.118734096033" lon="15.86767514539">
        <ele>457.2</ele>
        <time>2019-01-13T11:41:24Z</time>
      </trkpt>
      <trkpt lat="60.118694533465" lon="15.867762233331">
        <ele>457.8</ele>
        <time>2019-01-13T11:41:27Z</time>
      </trkpt>
      <trkpt lat="60.118621610935" lon="15.867952921556">
        <ele>458.6</ele>
        <time>2019-01-13T11:41:33Z</time>
      </trkpt>
      <trkpt lat="60.118589172982" lon="15.868018551833">
        <ele>459</ele>
        <time>2019-01-13T11:41:35Z</time>
      </trkpt>
      <trkpt lat="60.118517759194" lon="15.868247461522">
        <ele>459.2</ele>
        <time>2019-01-13T11:41:41Z</time>
      </trkpt>
      <trkpt lat="60.11844349556" lon="15.868477377039">
        <ele>459.6</ele>
        <time>2019-01-13T11:41:47Z</time>
      </trkpt>
      <trkpt lat="60.118396724558" lon="15.868634286207">
        <ele>460</ele>
        <time>2019-01-13T11:41:51Z</time>
      </trkpt>
      <trkpt lat="60.11835297104" lon="15.868785328045">
        <ele>461</ele>
        <time>2019-01-13T11:41:56Z</time>
      </trkpt>
      <trkpt lat="60.11830770878" lon="15.868957240814">
        <ele>462</ele>
        <time>2019-01-13T11:42:02Z</time>
      </trkpt>
      <trkpt lat="60.118305697124" lon="15.868985990731">
        <ele>462.2</ele>
        <time>2019-01-13T11:42:03Z</time>
      </trkpt>
      <trkpt lat="60.118290358247" lon="15.869096547992">
        <ele>462.8</ele>
        <time>2019-01-13T11:42:09Z</time>
      </trkpt>
      <trkpt lat="60.118288514229" lon="15.869120017312">
        <ele>463</ele>
        <time>2019-01-13T11:42:11Z</time>
      </trkpt>
      <trkpt lat="60.118277366302" lon="15.869190928186">
        <ele>463.2</ele>
        <time>2019-01-13T11:42:14Z</time>
      </trkpt>
      <trkpt lat="60.118258507027" lon="15.86935655453">
        <ele>464</ele>
        <time>2019-01-13T11:42:20Z</time>
      </trkpt>
      <trkpt lat="60.118255154267" lon="15.86938170023">
        <ele>464.2</ele>
        <time>2019-01-13T11:42:21Z</time>
      </trkpt>
      <trkpt lat="60.118207712713" lon="15.869526874738">
        <ele>465</ele>
        <time>2019-01-13T11:42:27Z</time>
      </trkpt>
      <trkpt lat="60.118195558958" lon="15.869558809777">
        <ele>465.2</ele>
        <time>2019-01-13T11:42:29Z</time>
      </trkpt>
      <trkpt lat="60.118174520389" lon="15.869633073411">
        <ele>465.6</ele>
        <time>2019-01-13T11:42:34Z</time>
      </trkpt>
      <trkpt lat="60.118147949766" lon="15.869667858296">
        <ele>466.2</ele>
        <time>2019-01-13T11:42:37Z</time>
      </trkpt>
      <trkpt lat="60.118106207904" lon="15.869700966801">
        <ele>466.8</ele>
        <time>2019-01-13T11:42:40Z</time>
      </trkpt>
      <trkpt lat="60.118077541806" lon="15.869727621243">
        <ele>467.2</ele>
        <time>2019-01-13T11:42:44Z</time>
      </trkpt>
      <trkpt lat="60.118062622024" lon="15.869747067251">
        <ele>467.4</ele>
        <time>2019-01-13T11:42:46Z</time>
      </trkpt>
      <trkpt lat="60.118053904848" lon="15.8697614003">
        <ele>467.8</ele>
        <time>2019-01-13T11:42:47Z</time>
      </trkpt>
      <trkpt lat="60.11803110608" lon="15.869783696154">
        <ele>468</ele>
        <time>2019-01-13T11:42:49Z</time>
      </trkpt>
      <trkpt lat="60.117973438608" lon="15.869852008639">
        <ele>468.6</ele>
        <time>2019-01-13T11:42:55Z</time>
      </trkpt>
      <trkpt lat="60.11795902174" lon="15.869882183479">
        <ele>469</ele>
        <time>2019-01-13T11:42:57Z</time>
      </trkpt>
      <trkpt lat="60.117934378954" lon="15.869932055784">
        <ele>469.8</ele>
        <time>2019-01-13T11:42:59Z</time>
      </trkpt>
      <trkpt lat="60.117871598523" lon="15.870107824227">
        <ele>470.6</ele>
        <time>2019-01-13T11:43:05Z</time>
      </trkpt>
      <trkpt lat="60.117838741475" lon="15.870207485018">
        <ele>471</ele>
        <time>2019-01-13T11:43:08Z</time>
      </trkpt>
      <trkpt lat="60.117762717642" lon="15.87042105583">
        <ele>471.6</ele>
        <time>2019-01-13T11:43:14Z</time>
      </trkpt>
      <trkpt lat="60.117726172558" lon="15.870522309182">
        <ele>472</ele>
        <time>2019-01-13T11:43:17Z</time>
      </trkpt>
      <trkpt lat="60.117647131241" lon="15.870687348793">
        <ele>472.6</ele>
        <time>2019-01-13T11:43:23Z</time>
      </trkpt>
      <trkpt lat="60.11762793669" lon="15.870740238582">
        <ele>473</ele>
        <time>2019-01-13T11:43:25Z</time>
      </trkpt>
      <trkpt lat="60.117605389379" lon="15.870796900226">
        <ele>473.4</ele>
        <time>2019-01-13T11:43:27Z</time>
      </trkpt>
      <trkpt lat="60.117516373601" lon="15.870948361159">
        <ele>474.2</ele>
        <time>2019-01-13T11:43:33Z</time>
      </trkpt>
      <trkpt lat="60.117469770237" lon="15.871039807688">
        <ele>475.2</ele>
        <time>2019-01-13T11:43:37Z</time>
      </trkpt>
      <trkpt lat="60.117380251545" lon="15.871175343011">
        <ele>475.8</ele>
        <time>2019-01-13T11:43:43Z</time>
      </trkpt>
      <trkpt lat="60.117284614066" lon="15.871362510838">
        <ele>476</ele>
        <time>2019-01-13T11:43:49Z</time>
      </trkpt>
      <trkpt lat="60.117242117833" lon="15.871435349549">
        <ele>476.2</ele>
        <time>2019-01-13T11:43:51Z</time>
      </trkpt>
      <trkpt lat="60.117126950527" lon="15.871617739693">
        <ele>476.8</ele>
        <time>2019-01-13T11:43:57Z</time>
      </trkpt>
      <trkpt lat="60.117009436289" lon="15.871755538129">
        <ele>477.4</ele>
        <time>2019-01-13T11:44:03Z</time>
      </trkpt>
      <trkpt lat="60.116920420511" lon="15.87188369738">
        <ele>478.2</ele>
        <time>2019-01-13T11:44:09Z</time>
      </trkpt>
      <trkpt lat="60.11688530035" lon="15.871934324056">
        <ele>478.2</ele>
        <time>2019-01-13T11:44:11Z</time>
      </trkpt>
      <trkpt lat="60.116848671447" lon="15.871982687619">
        <ele>478.8</ele>
        <time>2019-01-13T11:44:13Z</time>
      </trkpt>
      <trkpt lat="60.116754794167" lon="15.872105566273">
        <ele>479.8</ele>
        <time>2019-01-13T11:44:19Z</time>
      </trkpt>
      <trkpt lat="60.116691175546" lon="15.872181422468">
        <ele>479.8</ele>
        <time>2019-01-13T11:44:22Z</time>
      </trkpt>
      <trkpt lat="60.116569135082" lon="15.872362806784">
        <ele>480.2</ele>
        <time>2019-01-13T11:44:28Z</time>
      </trkpt>
      <trkpt lat="60.116447346075" lon="15.872548884964">
        <ele>480.6</ele>
        <time>2019-01-13T11:44:34Z</time>
      </trkpt>
      <trkpt lat="60.116338632832" lon="15.872625914625">
        <ele>480.8</ele>
        <time>2019-01-13T11:44:38Z</time>
      </trkpt>
      <trkpt lat="60.11622648301" lon="15.872604205504">
        <ele>481.6</ele>
        <time>2019-01-13T11:44:44Z</time>
      </trkpt>
      <trkpt lat="60.116191949582" lon="15.872573276293">
        <ele>482</ele>
        <time>2019-01-13T11:44:46Z</time>
      </trkpt>
      <trkpt lat="60.116053648232" lon="15.872504628532">
        <ele>482.2</ele>
        <time>2019-01-13T11:44:52Z</time>
      </trkpt>
      <trkpt lat="60.115896068512" lon="15.872449810906">
        <ele>481</ele>
        <time>2019-01-13T11:44:57Z</time>
      </trkpt>
      <trkpt lat="60.115692304523" lon="15.872489792569">
        <ele>480</ele>
        <time>2019-01-13T11:45:03Z</time>
      </trkpt>
      <trkpt lat="60.11549641952" lon="15.872656089465">
        <ele>480.2</ele>
        <time>2019-01-13T11:45:09Z</time>
      </trkpt>
      <trkpt lat="60.115309251693" lon="15.872869827915">
        <ele>480.2</ele>
        <time>2019-01-13T11:45:15Z</time>
      </trkpt>
      <trkpt lat="60.115105571523" lon="15.873040986313">
        <ele>480.6</ele>
        <time>2019-01-13T11:45:21Z</time>
      </trkpt>
      <trkpt lat="60.114917062592" lon="15.87316864265">
        <ele>479.8</ele>
        <time>2019-01-13T11:45:26Z</time>
      </trkpt>
      <trkpt lat="60.114827627719" lon="15.873240224076">
        <ele>478.6</ele>
        <time>2019-01-13T11:45:28Z</time>
      </trkpt>
      <trkpt lat="60.114735259181" lon="15.873318594841">
        <ele>477</ele>
        <time>2019-01-13T11:45:30Z</time>
      </trkpt>
      <trkpt lat="60.114629395784" lon="15.873410963379">
        <ele>475.6</ele>
        <time>2019-01-13T11:45:32Z</time>
      </trkpt>
      <trkpt lat="60.114466703105" lon="15.873542894485">
        <ele>474.2</ele>
        <time>2019-01-13T11:45:35Z</time>
      </trkpt>
      <trkpt lat="60.11430702791" lon="15.873665354044">
        <ele>473.2</ele>
        <time>2019-01-13T11:45:38Z</time>
      </trkpt>
      <trkpt lat="60.114062695525" lon="15.873846822179">
        <ele>472</ele>
        <time>2019-01-13T11:45:43Z</time>
      </trkpt>
      <trkpt lat="60.113795648191" lon="15.874015046912">
        <ele>471</ele>
        <time>2019-01-13T11:45:49Z</time>
      </trkpt>
      <trkpt lat="60.113613593323" lon="15.874180002704">
        <ele>469.6</ele>
        <time>2019-01-13T11:45:53Z</time>
      </trkpt>
      <trkpt lat="60.113456013603" lon="15.874327272687">
        <ele>468.2</ele>
        <time>2019-01-13T11:45:56Z</time>
      </trkpt>
      <trkpt lat="60.11334813855" lon="15.874435063921">
        <ele>467</ele>
        <time>2019-01-13T11:45:58Z</time>
      </trkpt>
      <trkpt lat="60.113182931301" lon="15.874613766029">
        <ele>465.8</ele>
        <time>2019-01-13T11:46:01Z</time>
      </trkpt>
      <trkpt lat="60.113074218058" lon="15.874721976358">
        <ele>464.8</ele>
        <time>2019-01-13T11:46:03Z</time>
      </trkpt>
      <trkpt lat="60.113019819527" lon="15.874764388772">
        <ele>464.4</ele>
        <time>2019-01-13T11:46:04Z</time>
      </trkpt>
      <trkpt lat="60.112848661129" lon="15.874858768966">
        <ele>463</ele>
        <time>2019-01-13T11:46:07Z</time>
      </trkpt>
      <trkpt lat="60.112471056534" lon="15.875029675907">
        <ele>462</ele>
        <time>2019-01-13T11:46:13Z</time>
      </trkpt>
      <trkpt lat="60.11222244938" lon="15.875126905947">
        <ele>463</ele>
        <time>2019-01-13T11:46:18Z</time>
      </trkpt>
      <trkpt lat="60.111972249665" lon="15.875038476902">
        <ele>461.6</ele>
        <time>2019-01-13T11:46:24Z</time>
      </trkpt>
      <trkpt lat="60.111871163951" lon="15.875003105284">
        <ele>460</ele>
        <time>2019-01-13T11:46:26Z</time>
      </trkpt>
      <trkpt lat="60.11174468108" lon="15.875006709501">
        <ele>458.6</ele>
        <time>2019-01-13T11:46:28Z</time>
      </trkpt>
      <trkpt lat="60.111609983947" lon="15.875025484957">
        <ele>457.2</ele>
        <time>2019-01-13T11:46:30Z</time>
      </trkpt>
      <trkpt lat="60.111474700081" lon="15.875057168539">
        <ele>455.8</ele>
        <time>2019-01-13T11:46:32Z</time>
      </trkpt>
      <trkpt lat="60.111409572718" lon="15.875084242076">
        <ele>455.2</ele>
        <time>2019-01-13T11:46:33Z</time>
      </trkpt>
      <trkpt lat="60.111292729032" lon="15.875158673348">
        <ele>454.6</ele>
        <time>2019-01-13T11:46:35Z</time>
      </trkpt>
      <trkpt lat="60.111131126" lon="15.875295298318">
        <ele>453.4</ele>
        <time>2019-01-13T11:46:38Z</time>
      </trkpt>
      <trkpt lat="60.110963068905" lon="15.875457823359">
        <ele>452.4</ele>
        <time>2019-01-13T11:46:42Z</time>
      </trkpt>
      <trkpt lat="60.110710019344" lon="15.875642895711">
        <ele>451</ele>
        <time>2019-01-13T11:46:47Z</time>
      </trkpt>
      <trkpt lat="60.110583871749" lon="15.875740712484">
        <ele>449.8</ele>
        <time>2019-01-13T11:46:49Z</time>
      </trkpt>
      <trkpt lat="60.110462753294" lon="15.875841043827">
        <ele>448.6</ele>
        <time>2019-01-13T11:46:51Z</time>
      </trkpt>
      <trkpt lat="60.110350938748" lon="15.875971047096">
        <ele>447.4</ele>
        <time>2019-01-13T11:46:53Z</time>
      </trkpt>
      <trkpt lat="60.110230407026" lon="15.876214289834">
        <ele>446.6</ele>
        <time>2019-01-13T11:46:56Z</time>
      </trkpt>
      <trkpt lat="60.110205931878" lon="15.87630179687">
        <ele>446.4</ele>
        <time>2019-01-13T11:46:57Z</time>
      </trkpt>
      <trkpt lat="60.110180115626" lon="15.876392069933">
        <ele>446.2</ele>
        <time>2019-01-13T11:46:58Z</time>
      </trkpt>
      <trkpt lat="60.110149689329" lon="15.876614609378">
        <ele>446.2</ele>
        <time>2019-01-13T11:47:00Z</time>
      </trkpt>
      <trkpt lat="60.110142397076" lon="15.877094976067">
        <ele>447.6</ele>
        <time>2019-01-13T11:47:06Z</time>
      </trkpt>
      <trkpt lat="60.110143151447" lon="15.877333944036">
        <ele>448.6</ele>
        <time>2019-01-13T11:47:11Z</time>
      </trkpt>
      <trkpt lat="60.110131919701" lon="15.877655976634">
        <ele>449.6</ele>
        <time>2019-01-13T11:47:17Z</time>
      </trkpt>
      <trkpt lat="60.110129824226" lon="15.877713811744">
        <ele>450</ele>
        <time>2019-01-13T11:47:18Z</time>
      </trkpt>
      <trkpt lat="60.110113060426" lon="15.878022265664">
        <ele>450.8</ele>
        <time>2019-01-13T11:47:24Z</time>
      </trkpt>
      <trkpt lat="60.110105265259" lon="15.878090661968">
        <ele>451</ele>
        <time>2019-01-13T11:47:26Z</time>
      </trkpt>
      <trkpt lat="60.110086154527" lon="15.878273806483">
        <ele>452</ele>
        <time>2019-01-13T11:47:31Z</time>
      </trkpt>
      <trkpt lat="60.110084897242" lon="15.878544709491">
        <ele>453</ele>
        <time>2019-01-13T11:47:37Z</time>
      </trkpt>
      <trkpt lat="60.110085148699" lon="15.878591312855">
        <ele>453.2</ele>
        <time>2019-01-13T11:47:38Z</time>
      </trkpt>
      <trkpt lat="60.110063523397" lon="15.878867831736">
        <ele>454.2</ele>
        <time>2019-01-13T11:47:44Z</time>
      </trkpt>
      <trkpt lat="60.110005772106" lon="15.879186930669">
        <ele>454.2</ele>
        <time>2019-01-13T11:47:50Z</time>
      </trkpt>
      <trkpt lat="60.109999820957" lon="15.879228923988">
        <ele>454.4</ele>
        <time>2019-01-13T11:47:51Z</time>
      </trkpt>
      <trkpt lat="60.109952714679" lon="15.879417097643">
        <ele>455</ele>
        <time>2019-01-13T11:47:57Z</time>
      </trkpt>
      <trkpt lat="60.109945338607" lon="15.879475519486">
        <ele>455.6</ele>
        <time>2019-01-13T11:47:59Z</time>
      </trkpt>
      <trkpt lat="60.109928407169" lon="15.879606360945">
        <ele>456.6</ele>
        <time>2019-01-13T11:48:03Z</time>
      </trkpt>
      <trkpt lat="60.109888174049" lon="15.8798364441">
        <ele>457</ele>
        <time>2019-01-13T11:48:09Z</time>
      </trkpt>
      <trkpt lat="60.109813994234" lon="15.880067952178">
        <ele>457.6</ele>
        <time>2019-01-13T11:48:14Z</time>
      </trkpt>
      <trkpt lat="60.109707208828" lon="15.880305998138">
        <ele>458</ele>
        <time>2019-01-13T11:48:20Z</time>
      </trkpt>
      <trkpt lat="60.109569410392" lon="15.880627863098">
        <ele>457.2</ele>
        <time>2019-01-13T11:48:26Z</time>
      </trkpt>
      <trkpt lat="60.109522220295" lon="15.880720566912">
        <ele>456.4</ele>
        <time>2019-01-13T11:48:27Z</time>
      </trkpt>
      <trkpt lat="60.109469498144" lon="15.880826933223">
        <ele>455.4</ele>
        <time>2019-01-13T11:48:28Z</time>
      </trkpt>
      <trkpt lat="60.109418787649" lon="15.880943776909">
        <ele>454.2</ele>
        <time>2019-01-13T11:48:29Z</time>
      </trkpt>
      <trkpt lat="60.109370004991" lon="15.881062632251">
        <ele>453.2</ele>
        <time>2019-01-13T11:48:30Z</time>
      </trkpt>
      <trkpt lat="60.109316779926" lon="15.881177967195">
        <ele>452.2</ele>
        <time>2019-01-13T11:48:31Z</time>
      </trkpt>
      <trkpt lat="60.109219130791" lon="15.881383407564">
        <ele>450.8</ele>
        <time>2019-01-13T11:48:33Z</time>
      </trkpt>
      <trkpt lat="60.109028191109" lon="15.881856146724">
        <ele>452</ele>
        <time>2019-01-13T11:48:39Z</time>
      </trkpt>
      <trkpt lat="60.108850913924" lon="15.882246072712">
        <ele>450.4</ele>
        <time>2019-01-13T11:48:44Z</time>
      </trkpt>
      <trkpt lat="60.108771369693" lon="15.882403987708">
        <ele>449.4</ele>
        <time>2019-01-13T11:48:46Z</time>
      </trkpt>
      <trkpt lat="60.108551680094" lon="15.882845210924">
        <ele>448.6</ele>
        <time>2019-01-13T11:48:52Z</time>
      </trkpt>
      <trkpt lat="60.10833073321" lon="15.883194149421">
        <ele>449.4</ele>
        <time>2019-01-13T11:48:58Z</time>
      </trkpt>
      <trkpt lat="60.108143900659" lon="15.883427836793">
        <ele>449.2</ele>
        <time>2019-01-13T11:49:04Z</time>
      </trkpt>
      <trkpt lat="60.107963438352" lon="15.883695554679">
        <ele>449.2</ele>
        <time>2019-01-13T11:49:10Z</time>
      </trkpt>
      <trkpt lat="60.107821616604" lon="15.883939803245">
        <ele>448.2</ele>
        <time>2019-01-13T11:49:14Z</time>
      </trkpt>
      <trkpt lat="60.107663031056" lon="15.88417743011">
        <ele>447.2</ele>
        <time>2019-01-13T11:49:18Z</time>
      </trkpt>
      <trkpt lat="60.107522885688" lon="15.884347917956">
        <ele>445.8</ele>
        <time>2019-01-13T11:49:21Z</time>
      </trkpt>
      <trkpt lat="60.107380644845" lon="15.884486973677">
        <ele>444.4</ele>
        <time>2019-01-13T11:49:24Z</time>
      </trkpt>
      <trkpt lat="60.107274949086" lon="15.884550005565">
        <ele>443.2</ele>
        <time>2019-01-13T11:49:26Z</time>
      </trkpt>
      <trkpt lat="60.107171851716" lon="15.884570708858">
        <ele>442.4</ele>
        <time>2019-01-13T11:49:28Z</time>
      </trkpt>
      <trkpt lat="60.107119045746" lon="15.884570708858">
        <ele>442</ele>
        <time>2019-01-13T11:49:29Z</time>
      </trkpt>
      <trkpt lat="60.106947887348" lon="15.884526536245">
        <ele>441</ele>
        <time>2019-01-13T11:49:32Z</time>
      </trkpt>
      <trkpt lat="60.106829115825" lon="15.884507090237">
        <ele>440</ele>
        <time>2019-01-13T11:49:34Z</time>
      </trkpt>
      <trkpt lat="60.106781087538" lon="15.884512203196">
        <ele>439.6</ele>
        <time>2019-01-13T11:49:35Z</time>
      </trkpt>
      <trkpt lat="60.106687210258" lon="15.884553106868">
        <ele>439.2</ele>
        <time>2019-01-13T11:49:37Z</time>
      </trkpt>
      <trkpt lat="60.106525607226" lon="15.884702807602">
        <ele>438.4</ele>
        <time>2019-01-13T11:49:40Z</time>
      </trkpt>
      <trkpt lat="60.106420833476" lon="15.884822165858">
        <ele>437</ele>
        <time>2019-01-13T11:49:42Z</time>
      </trkpt>
      <trkpt lat="60.106283202678" lon="15.8849829307">
        <ele>436.2</ele>
        <time>2019-01-13T11:49:45Z</time>
      </trkpt>
      <trkpt lat="60.106088155865" lon="15.885260455409">
        <ele>438</ele>
        <time>2019-01-13T11:49:51Z</time>
      </trkpt>
      <trkpt lat="60.105995703508" lon="15.885431865264">
        <ele>439.2</ele>
        <time>2019-01-13T11:49:55Z</time>
      </trkpt>
      <trkpt lat="60.105915656363" lon="15.885611237924">
        <ele>439.8</ele>
        <time>2019-01-13T11:50:01Z</time>
      </trkpt>
      <trkpt lat="60.105903167332" lon="15.885632025036">
        <ele>440.2</ele>
        <time>2019-01-13T11:50:02Z</time>
      </trkpt>
      <trkpt lat="60.105815995572" lon="15.885778959743">
        <ele>441</ele>
        <time>2019-01-13T11:50:08Z</time>
      </trkpt>
      <trkpt lat="60.10579688484" lon="15.885814498999">
        <ele>441.2</ele>
        <time>2019-01-13T11:50:09Z</time>
      </trkpt>
      <trkpt lat="60.105655733644" lon="15.886014658771">
        <ele>442</ele>
        <time>2019-01-13T11:50:15Z</time>
      </trkpt>
      <trkpt lat="60.105490358757" lon="15.886191852137">
        <ele>442.2</ele>
        <time>2019-01-13T11:50:21Z</time>
      </trkpt>
      <trkpt lat="60.105313919762" lon="15.886356556472">
        <ele>442.2</ele>
        <time>2019-01-13T11:50:27Z</time>
      </trkpt>
      <trkpt lat="60.105266645846" lon="15.886407686062">
        <ele>442.4</ele>
        <time>2019-01-13T11:50:29Z</time>
      </trkpt>
      <trkpt lat="60.105139492423" lon="15.886530816173">
        <ele>443</ele>
        <time>2019-01-13T11:50:35Z</time>
      </trkpt>
      <trkpt lat="60.104956012632" lon="15.88664841423">
        <ele>442</ele>
        <time>2019-01-13T11:50:41Z</time>
      </trkpt>
      <trkpt lat="60.104873618555" lon="15.886680433088">
        <ele>441</ele>
        <time>2019-01-13T11:50:43Z</time>
      </trkpt>
      <trkpt lat="60.104599278968" lon="15.8868353306">
        <ele>440.2</ele>
        <time>2019-01-13T11:50:49Z</time>
      </trkpt>
      <trkpt lat="60.104394090056" lon="15.886915377745">
        <ele>441</ele>
        <time>2019-01-13T11:50:55Z</time>
      </trkpt>
      <trkpt lat="60.104185716022" lon="15.887163649623">
        <ele>440.6</ele>
        <time>2019-01-13T11:51:01Z</time>
      </trkpt>
      <trkpt lat="60.104113044949" lon="15.887310835787">
        <ele>439.8</ele>
        <time>2019-01-13T11:51:04Z</time>
      </trkpt>
      <trkpt lat="60.10403668584" lon="15.887398929556">
        <ele>438.8</ele>
        <time>2019-01-13T11:51:06Z</time>
      </trkpt>
      <trkpt lat="60.103922356724" lon="15.887460201245">
        <ele>437.4</ele>
        <time>2019-01-13T11:51:08Z</time>
      </trkpt>
      <trkpt lat="60.103797466414" lon="15.887528429911">
        <ele>435.6</ele>
        <time>2019-01-13T11:51:10Z</time>
      </trkpt>
      <trkpt lat="60.103666038222" lon="15.887591210342">
        <ele>434</ele>
        <time>2019-01-13T11:51:12Z</time>
      </trkpt>
      <trkpt lat="60.103468476839" lon="15.887659019913">
        <ele>432.6</ele>
        <time>2019-01-13T11:51:15Z</time>
      </trkpt>
      <trkpt lat="60.103335623724" lon="15.88771626829">
        <ele>431.2</ele>
        <time>2019-01-13T11:51:17Z</time>
      </trkpt>
      <trkpt lat="60.103208889396" lon="15.887802853317">
        <ele>429.6</ele>
        <time>2019-01-13T11:51:19Z</time>
      </trkpt>
      <trkpt lat="60.103108558053" lon="15.887923468858">
        <ele>428.6</ele>
        <time>2019-01-13T11:51:21Z</time>
      </trkpt>
      <trkpt lat="60.102839163787" lon="15.888232677149">
        <ele>426.8</ele>
        <time>2019-01-13T11:51:25Z</time>
      </trkpt>
      <trkpt lat="60.102772192406" lon="15.88830300129">
        <ele>426.2</ele>
        <time>2019-01-13T11:51:26Z</time>
      </trkpt>
      <trkpt lat="60.102701030075" lon="15.888341977125">
        <ele>425.6</ele>
        <time>2019-01-13T11:51:27Z</time>
      </trkpt>
      <trkpt lat="60.10262685026" lon="15.888366955187">
        <ele>425.2</ele>
        <time>2019-01-13T11:51:28Z</time>
      </trkpt>
      <trkpt lat="60.102323593118" lon="15.888482625407">
        <ele>426.6</ele>
        <time>2019-01-13T11:51:34Z</time>
      </trkpt>
      <trkpt lat="60.102290819889" lon="15.888486648719">
        <ele>426.8</ele>
        <time>2019-01-13T11:51:35Z</time>
      </trkpt>
      <trkpt lat="60.102049588807" lon="15.888502574329">
        <ele>427.2</ele>
        <time>2019-01-13T11:51:41Z</time>
      </trkpt>
      <trkpt lat="60.101994603543" lon="15.88846225739">
        <ele>426.6</ele>
        <time>2019-01-13T11:51:42Z</time>
      </trkpt>
      <trkpt lat="60.101886309395" lon="15.888402159167">
        <ele>425.6</ele>
        <time>2019-01-13T11:51:44Z</time>
      </trkpt>
      <trkpt lat="60.101639713897" lon="15.88824768075">
        <ele>425.6</ele>
        <time>2019-01-13T11:51:50Z</time>
      </trkpt>
      <trkpt lat="60.101472830268" lon="15.888123712449">
        <ele>427</ele>
        <time>2019-01-13T11:51:56Z</time>
      </trkpt>
      <trkpt lat="60.101369062346" lon="15.888069481556">
        <ele>428.2</ele>
        <time>2019-01-13T11:52:00Z</time>
      </trkpt>
      <trkpt lat="60.101196311387" lon="15.887959846304">
        <ele>428.4</ele>
        <time>2019-01-13T11:52:06Z</time>
      </trkpt>
      <trkpt lat="60.101012328682" lon="15.887937801907">
        <ele>427.8</ele>
        <time>2019-01-13T11:52:12Z</time>
      </trkpt>
      <trkpt lat="60.10078367045" lon="15.888015753577">
        <ele>427.8</ele>
        <time>2019-01-13T11:52:18Z</time>
      </trkpt>
      <trkpt lat="60.100572111294" lon="15.888019273975">
        <ele>427</ele>
        <time>2019-01-13T11:52:23Z</time>
      </trkpt>
      <trkpt lat="60.100437833256" lon="15.887984405271">
        <ele>425.8</ele>
        <time>2019-01-13T11:52:26Z</time>
      </trkpt>
      <trkpt lat="60.100397851593" lon="15.887971832421">
        <ele>425.6</ele>
        <time>2019-01-13T11:52:27Z</time>
      </trkpt>
      <trkpt lat="60.100146226955" lon="15.887999911786">
        <ele>425.6</ele>
        <time>2019-01-13T11:52:33Z</time>
      </trkpt>
      <trkpt lat="60.100006416863" lon="15.88806411714">
        <ele>424.6</ele>
        <time>2019-01-13T11:52:36Z</time>
      </trkpt>
      <trkpt lat="60.099920921483" lon="15.888125388829">
        <ele>424</ele>
        <time>2019-01-13T11:52:38Z</time>
      </trkpt>
      <trkpt lat="60.099658148918" lon="15.888388077575">
        <ele>423.8</ele>
        <time>2019-01-13T11:52:44Z</time>
      </trkpt>
      <trkpt lat="60.099584639655" lon="15.888474494964">
        <ele>423.2</ele>
        <time>2019-01-13T11:52:46Z</time>
      </trkpt>
      <trkpt lat="60.099491684384" lon="15.888566612045">
        <ele>422.2</ele>
        <time>2019-01-13T11:52:48Z</time>
      </trkpt>
      <trkpt lat="60.099277107744" lon="15.888827121497">
        <ele>422</ele>
        <time>2019-01-13T11:52:54Z</time>
      </trkpt>
      <trkpt lat="60.099168226863" lon="15.888973972385">
        <ele>423.2</ele>
        <time>2019-01-13T11:52:58Z</time>
      </trkpt>
      <trkpt lat="60.098967647996" lon="15.889211347793">
        <ele>423.2</ele>
        <time>2019-01-13T11:53:04Z</time>
      </trkpt>
      <trkpt lat="60.098772433545" lon="15.889411759022">
        <ele>423.2</ele>
        <time>2019-01-13T11:53:10Z</time>
      </trkpt>
      <trkpt lat="60.098563137502" lon="15.889628431137">
        <ele>422.6</ele>
        <time>2019-01-13T11:53:16Z</time>
      </trkpt>
      <trkpt lat="60.098493651551" lon="15.889739407493">
        <ele>421.8</ele>
        <time>2019-01-13T11:53:18Z</time>
      </trkpt>
      <trkpt lat="60.098423495048" lon="15.889873853169">
        <ele>420.8</ele>
        <time>2019-01-13T11:53:20Z</time>
      </trkpt>
      <trkpt lat="60.098348896138" lon="15.89002631993">
        <ele>419.6</ele>
        <time>2019-01-13T11:53:22Z</time>
      </trkpt>
      <trkpt lat="60.098271698839" lon="15.890190186075">
        <ele>418.4</ele>
        <time>2019-01-13T11:53:24Z</time>
      </trkpt>
      <trkpt lat="60.098086207392" lon="15.890607939971">
        <ele>417.4</ele>
        <time>2019-01-13T11:53:29Z</time>
      </trkpt>
      <trkpt lat="60.097993671216" lon="15.890834167452">
        <ele>418.4</ele>
        <time>2019-01-13T11:53:33Z</time>
      </trkpt>
      <trkpt lat="60.097846568871" lon="15.891104986641">
        <ele>418.6</ele>
        <time>2019-01-13T11:53:39Z</time>
      </trkpt>
      <trkpt lat="60.097670968066" lon="15.891291316278">
        <ele>418.6</ele>
        <time>2019-01-13T11:53:45Z</time>
      </trkpt>
      <trkpt lat="60.097559321158" lon="15.891413105285">
        <ele>417.2</ele>
        <time>2019-01-13T11:53:48Z</time>
      </trkpt>
      <trkpt lat="60.097514897088" lon="15.891456020613">
        <ele>416</ele>
        <time>2019-01-13T11:53:49Z</time>
      </trkpt>
      <trkpt lat="60.097422109455" lon="15.891507066384">
        <ele>414.6</ele>
        <time>2019-01-13T11:53:51Z</time>
      </trkpt>
      <trkpt lat="60.097165790953" lon="15.891382678988">
        <ele>413.8</ele>
        <time>2019-01-13T11:53:57Z</time>
      </trkpt>
      <trkpt lat="60.09693302559" lon="15.891237755937">
        <ele>414.8</ele>
        <time>2019-01-13T11:54:03Z</time>
      </trkpt>
      <trkpt lat="60.096679808391" lon="15.89112770159">
        <ele>414.4</ele>
        <time>2019-01-13T11:54:09Z</time>
      </trkpt>
      <trkpt lat="60.096443606449" lon="15.890956040278">
        <ele>414.4</ele>
        <time>2019-01-13T11:54:15Z</time>
      </trkpt>
      <trkpt lat="60.096266999816" lon="15.890733333195">
        <ele>414.8</ele>
        <time>2019-01-13T11:54:21Z</time>
      </trkpt>
      <trkpt lat="60.096141187497" lon="15.890536358545">
        <ele>415.6</ele>
        <time>2019-01-13T11:54:27Z</time>
      </trkpt>
      <trkpt lat="60.096014453169" lon="15.890397805738">
        <ele>416.4</ele>
        <time>2019-01-13T11:54:33Z</time>
      </trkpt>
      <trkpt lat="60.095973800954" lon="15.890336617868">
        <ele>416.6</ele>
        <time>2019-01-13T11:54:35Z</time>
      </trkpt>
      <trkpt lat="60.095828626446" lon="15.890201250183">
        <ele>417.4</ele>
        <time>2019-01-13T11:54:41Z</time>
      </trkpt>
      <trkpt lat="60.095693761675" lon="15.890136458096">
        <ele>417.6</ele>
        <time>2019-01-13T11:54:47Z</time>
      </trkpt>
      <trkpt lat="60.095527045684" lon="15.890219355087">
        <ele>418.4</ele>
        <time>2019-01-13T11:54:53Z</time>
      </trkpt>
      <trkpt lat="60.095363011901" lon="15.890423202895">
        <ele>418.8</ele>
        <time>2019-01-13T11:54:59Z</time>
      </trkpt>
      <trkpt lat="60.095226889845" lon="15.890620848097">
        <ele>419</ele>
        <time>2019-01-13T11:55:05Z</time>
      </trkpt>
      <trkpt lat="60.095128234882" lon="15.89082092405">
        <ele>419.4</ele>
        <time>2019-01-13T11:55:11Z</time>
      </trkpt>
      <trkpt lat="60.094972080085" lon="15.89106986648">
        <ele>419.8</ele>
        <time>2019-01-13T11:55:17Z</time>
      </trkpt>
      <trkpt lat="60.094812656347" lon="15.891235492824">
        <ele>419.2</ele>
        <time>2019-01-13T11:55:23Z</time>
      </trkpt>
      <trkpt lat="60.09465650155" lon="15.891456942622">
        <ele>419.2</ele>
        <time>2019-01-13T11:55:29Z</time>
      </trkpt>
      <trkpt lat="60.094519960399" lon="15.891652659987">
        <ele>419.4</ele>
        <time>2019-01-13T11:55:35Z</time>
      </trkpt>
      <trkpt lat="60.094342012662" lon="15.89173455115">
        <ele>419.6</ele>
        <time>2019-01-13T11:55:41Z</time>
      </trkpt>
      <trkpt lat="60.094181415458" lon="15.891764223076">
        <ele>420</ele>
        <time>2019-01-13T11:55:47Z</time>
      </trkpt>
      <trkpt lat="60.093940938747" lon="15.891743352145">
        <ele>419.2</ele>
        <time>2019-01-13T11:55:53Z</time>
      </trkpt>
      <trkpt lat="60.09386105924" lon="15.891729019096">
        <ele>418.6</ele>
        <time>2019-01-13T11:55:55Z</time>
      </trkpt>
      <trkpt lat="60.093740192242" lon="15.891750560579">
        <ele>417.4</ele>
        <time>2019-01-13T11:55:58Z</time>
      </trkpt>
      <trkpt lat="60.093567776559" lon="15.891810239707">
        <ele>417.8</ele>
        <time>2019-01-13T11:56:04Z</time>
      </trkpt>
      <trkpt lat="60.093399048912" lon="15.892037053921">
        <ele>417.6</ele>
        <time>2019-01-13T11:56:10Z</time>
      </trkpt>
      <trkpt lat="60.093199392054" lon="15.89230619673">
        <ele>416.8</ele>
        <time>2019-01-13T11:56:16Z</time>
      </trkpt>
      <trkpt lat="60.093127978266" lon="15.892414993792">
        <ele>416</ele>
        <time>2019-01-13T11:56:18Z</time>
      </trkpt>
      <trkpt lat="60.093056648297" lon="15.892535776971">
        <ele>414.8</ele>
        <time>2019-01-13T11:56:20Z</time>
      </trkpt>
      <trkpt lat="60.093070059337" lon="15.892953698505">
        <ele>414</ele>
        <time>2019-01-13T11:56:26Z</time>
      </trkpt>
      <trkpt lat="60.093185310462" lon="15.893438004687">
        <ele>413.8</ele>
        <time>2019-01-13T11:56:32Z</time>
      </trkpt>
      <trkpt lat="60.093196709846" lon="15.893518051832">
        <ele>413.8</ele>
        <time>2019-01-13T11:56:33Z</time>
      </trkpt>
      <trkpt lat="60.093237781156" lon="15.894009566448">
        <ele>413.8</ele>
        <time>2019-01-13T11:56:39Z</time>
      </trkpt>
      <trkpt lat="60.09326678253" lon="15.89446621236">
        <ele>413.4</ele>
        <time>2019-01-13T11:56:45Z</time>
      </trkpt>
      <trkpt lat="60.093316822473" lon="15.894876841641">
        <ele>413.2</ele>
        <time>2019-01-13T11:56:51Z</time>
      </trkpt>
      <trkpt lat="60.093352110272" lon="15.895264672154">
        <ele>413</ele>
        <time>2019-01-13T11:56:57Z</time>
      </trkpt>
      <trkpt lat="60.093300393949" lon="15.895625596768">
        <ele>412.8</ele>
        <time>2019-01-13T11:57:03Z</time>
      </trkpt>
      <trkpt lat="60.093186400109" lon="15.896025832493">
        <ele>412.8</ele>
        <time>2019-01-13T11:57:09Z</time>
      </trkpt>
      <trkpt lat="60.093125715153" lon="15.896211826854">
        <ele>412.6</ele>
        <time>2019-01-13T11:57:12Z</time>
      </trkpt>
      <trkpt lat="60.092995544246" lon="15.89655749641">
        <ele>413</ele>
        <time>2019-01-13T11:57:18Z</time>
      </trkpt>
      <trkpt lat="60.092884484071" lon="15.896933173168">
        <ele>412.6</ele>
        <time>2019-01-13T11:57:24Z</time>
      </trkpt>
      <trkpt lat="60.092806029487" lon="15.897340114413">
        <ele>412.6</ele>
        <time>2019-01-13T11:57:30Z</time>
      </trkpt>
      <trkpt lat="60.092743332875" lon="15.897758119766">
        <ele>411.8</ele>
        <time>2019-01-13T11:57:36Z</time>
      </trkpt>
      <trkpt lat="60.092793624275" lon="15.898064226754">
        <ele>412</ele>
        <time>2019-01-13T11:57:42Z</time>
      </trkpt>
      <trkpt lat="60.092916251472" lon="15.898222225569">
        <ele>412.4</ele>
        <time>2019-01-13T11:57:48Z</time>
      </trkpt>
      <trkpt lat="60.093048098759" lon="15.898423391169">
        <ele>412.6</ele>
        <time>2019-01-13T11:57:54Z</time>
      </trkpt>
      <trkpt lat="60.093186064833" lon="15.898662610595">
        <ele>413</ele>
        <time>2019-01-13T11:58:00Z</time>
      </trkpt>
      <trkpt lat="60.093206935764" lon="15.899024457218">
        <ele>413</ele>
        <time>2019-01-13T11:58:06Z</time>
      </trkpt>
      <trkpt lat="60.093225375944" lon="15.899233334166">
        <ele>413</ele>
        <time>2019-01-13T11:58:11Z</time>
      </trkpt>
      <trkpt lat="60.093296873551" lon="15.899386220022">
        <ele>413.4</ele>
        <time>2019-01-13T11:58:17Z</time>
      </trkpt>
      <trkpt lat="60.093384296768" lon="15.899515636558">
        <ele>413.6</ele>
        <time>2019-01-13T11:58:22Z</time>
      </trkpt>
      <trkpt lat="60.093444143534" lon="15.89961353715">
        <ele>413.8</ele>
        <time>2019-01-13T11:58:26Z</time>
      </trkpt>
      <trkpt lat="60.093538607547" lon="15.899773799078">
        <ele>414.4</ele>
        <time>2019-01-13T11:58:32Z</time>
      </trkpt>
      <trkpt lat="60.093645309134" lon="15.89995719505">
        <ele>414.6</ele>
        <time>2019-01-13T11:58:38Z</time>
      </trkpt>
      <trkpt lat="60.093776569688" lon="15.900129024">
        <ele>414.6</ele>
        <time>2019-01-13T11:58:44Z</time>
      </trkpt>
      <trkpt lat="60.093814204419" lon="15.900170346767">
        <ele>415</ele>
        <time>2019-01-13T11:58:46Z</time>
      </trkpt>
      <trkpt lat="60.093914368124" lon="15.900350389979">
        <ele>415</ele>
        <time>2019-01-13T11:58:52Z</time>
      </trkpt>
      <trkpt lat="60.093945967887" lon="15.900483662189">
        <ele>415</ele>
        <time>2019-01-13T11:58:58Z</time>
      </trkpt>
      <trkpt lat="60.093953343959" lon="15.900503108197">
        <ele>415</ele>
        <time>2019-01-13T11:58:59Z</time>
      </trkpt>
      <trkpt lat="60.093977483831" lon="15.900552393769">
        <ele>415.4</ele>
        <time>2019-01-13T11:59:01Z</time>
      </trkpt>
      <trkpt lat="60.094016794942" lon="15.900602936626">
        <ele>415.6</ele>
        <time>2019-01-13T11:59:04Z</time>
      </trkpt>
      <trkpt lat="60.093982261514" lon="15.900687677635">
        <ele>415.4</ele>
        <time>2019-01-13T12:04:54Z</time>
      </trkpt>
      <trkpt lat="60.093969521026" lon="15.900682145581">
        <ele>415.2</ele>
        <time>2019-01-13T12:04:55Z</time>
      </trkpt>
      <trkpt lat="60.093868351493" lon="15.900696646268">
        <ele>415.4</ele>
        <time>2019-01-13T12:04:59Z</time>
      </trkpt>
      <trkpt lat="60.093786627968" lon="15.900725480004">
        <ele>415.4</ele>
        <time>2019-01-13T12:05:02Z</time>
      </trkpt>
      <trkpt lat="60.093605495109" lon="15.900839138568">
        <ele>414.4</ele>
        <time>2019-01-13T12:05:08Z</time>
      </trkpt>
      <trkpt lat="60.093601890892" lon="15.900951791304">
        <ele>414.2</ele>
        <time>2019-01-13T12:05:10Z</time>
      </trkpt>
      <trkpt lat="60.093669784282" lon="15.90108623698">
        <ele>414</ele>
        <time>2019-01-13T12:05:14Z</time>
      </trkpt>
      <trkpt lat="60.093875643746" lon="15.901139294407">
        <ele>414.2</ele>
        <time>2019-01-13T12:05:20Z</time>
      </trkpt>
      <trkpt lat="60.09393062901" lon="15.901137869484">
        <ele>415</ele>
        <time>2019-01-13T12:05:22Z</time>
      </trkpt>
      <trkpt lat="60.094084939789" lon="15.901132169792">
        <ele>415.8</ele>
        <time>2019-01-13T12:05:28Z</time>
      </trkpt>
      <trkpt lat="60.094113019154" lon="15.901139294407">
        <ele>416</ele>
        <time>2019-01-13T12:05:29Z</time>
      </trkpt>
      <trkpt lat="60.094287027398" lon="15.901207523073">
        <ele>416.8</ele>
        <time>2019-01-13T12:05:35Z</time>
      </trkpt>
      <trkpt lat="60.09441258826" lon="15.901266783106">
        <ele>417</ele>
        <time>2019-01-13T12:05:40Z</time>
      </trkpt>
      <trkpt lat="60.094528761394" lon="15.901431738898">
        <ele>417.8</ele>
        <time>2019-01-13T12:05:46Z</time>
      </trkpt>
      <trkpt lat="60.094599672268" lon="15.901597281423">
        <ele>418.2</ele>
        <time>2019-01-13T12:05:50Z</time>
      </trkpt>
      <trkpt lat="60.094707044407" lon="15.901813869719">
        <ele>418.6</ele>
        <time>2019-01-13T12:05:56Z</time>
      </trkpt>
      <trkpt lat="60.09483335964" lon="15.902011431102">
        <ele>419</ele>
        <time>2019-01-13T12:06:02Z</time>
      </trkpt>
      <trkpt lat="60.094876023511" lon="15.902074379171">
        <ele>419.2</ele>
        <time>2019-01-13T12:06:04Z</time>
      </trkpt>
      <trkpt lat="60.094936205553" lon="15.9021993533">
        <ele>419.4</ele>
        <time>2019-01-13T12:06:07Z</time>
      </trkpt>
      <trkpt lat="60.09504206895" lon="15.90239716614">
        <ele>420</ele>
        <time>2019-01-13T12:06:13Z</time>
      </trkpt>
      <trkpt lat="60.095096886576" lon="15.902524235744">
        <ele>420.4</ele>
        <time>2019-01-13T12:06:16Z</time>
      </trkpt>
      <trkpt lat="60.095218256488" lon="15.90275591146">
        <ele>420.8</ele>
        <time>2019-01-13T12:06:22Z</time>
      </trkpt>
      <trkpt lat="60.09536644848" lon="15.9027944682">
        <ele>421.4</ele>
        <time>2019-01-13T12:06:28Z</time>
      </trkpt>
      <trkpt lat="60.09547708956" lon="15.902877784286">
        <ele>422.2</ele>
        <time>2019-01-13T12:06:34Z</time>
      </trkpt>
      <trkpt lat="60.095525369304" lon="15.902953472843">
        <ele>422.6</ele>
        <time>2019-01-13T12:06:37Z</time>
      </trkpt>
      <trkpt lat="60.095625700647" lon="15.903173832994">
        <ele>423.4</ele>
        <time>2019-01-13T12:06:43Z</time>
      </trkpt>
      <trkpt lat="60.095721673402" lon="15.903276846545">
        <ele>423.8</ele>
        <time>2019-01-13T12:06:48Z</time>
      </trkpt>
      <trkpt lat="60.095835918699" lon="15.903353373292">
        <ele>424.4</ele>
        <time>2019-01-13T12:06:54Z</time>
      </trkpt>
      <trkpt lat="60.095940860087" lon="15.903402742683">
        <ele>424.8</ele>
        <time>2019-01-13T12:06:59Z</time>
      </trkpt>
      <trkpt lat="60.095965670511" lon="15.903421769596">
        <ele>424.8</ele>
        <time>2019-01-13T12:07:00Z</time>
      </trkpt>
      <trkpt lat="60.096118975462" lon="15.903477425412">
        <ele>425.4</ele>
        <time>2019-01-13T12:07:06Z</time>
      </trkpt>
      <trkpt lat="60.09618452192" lon="15.903521346568">
        <ele>425.8</ele>
        <time>2019-01-13T12:07:09Z</time>
      </trkpt>
      <trkpt lat="60.096208661792" lon="15.903537858911">
        <ele>425.8</ele>
        <time>2019-01-13T12:07:10Z</time>
      </trkpt>
      <trkpt lat="60.096300024502" lon="15.903615307667">
        <ele>426.8</ele>
        <time>2019-01-13T12:07:15Z</time>
      </trkpt>
      <trkpt lat="60.096318967596" lon="15.903651014561">
        <ele>427</ele>
        <time>2019-01-13T12:07:16Z</time>
      </trkpt>
      <trkpt lat="60.096407312822" lon="15.903941363577">
        <ele>426.8</ele>
        <time>2019-01-13T12:07:22Z</time>
      </trkpt>
      <trkpt lat="60.096537735186" lon="15.904294241567">
        <ele>426.8</ele>
        <time>2019-01-13T12:07:28Z</time>
      </trkpt>
      <trkpt lat="60.096665140066" lon="15.904650891412">
        <ele>427</ele>
        <time>2019-01-13T12:07:34Z</time>
      </trkpt>
      <trkpt lat="60.096739738976" lon="15.90494442555">
        <ele>427.6</ele>
        <time>2019-01-13T12:07:40Z</time>
      </trkpt>
      <trkpt lat="60.096836130826" lon="15.905092952818">
        <ele>428</ele>
        <time>2019-01-13T12:07:45Z</time>
      </trkpt>
      <trkpt lat="60.096988513768" lon="15.905178951112">
        <ele>428.4</ele>
        <time>2019-01-13T12:07:51Z</time>
      </trkpt>
      <trkpt lat="60.097110973327" lon="15.905222536992">
        <ele>429.2</ele>
        <time>2019-01-13T12:07:56Z</time>
      </trkpt>
      <trkpt lat="60.097257488939" lon="15.905279366274">
        <ele>429.6</ele>
        <time>2019-01-13T12:08:02Z</time>
      </trkpt>
      <trkpt lat="60.097358909929" lon="15.905351366795">
        <ele>430.2</ele>
        <time>2019-01-13T12:08:06Z</time>
      </trkpt>
      <trkpt lat="60.097455804693" lon="15.905673567031">
        <ele>430.4</ele>
        <time>2019-01-13T12:08:12Z</time>
      </trkpt>
      <trkpt lat="60.097508191568" lon="15.906113449143">
        <ele>429.2</ele>
        <time>2019-01-13T12:08:18Z</time>
      </trkpt>
      <trkpt lat="60.097525877377" lon="15.906171032796">
        <ele>429.2</ele>
        <time>2019-01-13T12:08:19Z</time>
      </trkpt>
      <trkpt lat="60.097626627815" lon="15.906548302115">
        <ele>429.4</ele>
        <time>2019-01-13T12:08:25Z</time>
      </trkpt>
      <trkpt lat="60.097679182328" lon="15.906855163474">
        <ele>430.2</ele>
        <time>2019-01-13T12:08:31Z</time>
      </trkpt>
      <trkpt lat="60.09768739659" lon="15.906907885625">
        <ele>430.2</ele>
        <time>2019-01-13T12:08:32Z</time>
      </trkpt>
      <trkpt lat="60.097803905" lon="15.907197731727">
        <ele>430.4</ele>
        <time>2019-01-13T12:08:38Z</time>
      </trkpt>
      <trkpt lat="60.098015883251" lon="15.907425719407">
        <ele>430.2</ele>
        <time>2019-01-13T12:08:44Z</time>
      </trkpt>
      <trkpt lat="60.098220150154" lon="15.907568379345">
        <ele>430.2</ele>
        <time>2019-01-13T12:08:50Z</time>
      </trkpt>
      <trkpt lat="60.098437744278" lon="15.907670135611">
        <ele>430.2</ele>
        <time>2019-01-13T12:08:56Z</time>
      </trkpt>
      <trkpt lat="60.098631533806" lon="15.907775244637">
        <ele>430</ele>
        <time>2019-01-13T12:09:02Z</time>
      </trkpt>
      <trkpt lat="60.098824317506" lon="15.908003399955">
        <ele>429.8</ele>
        <time>2019-01-13T12:09:08Z</time>
      </trkpt>
      <trkpt lat="60.098923475383" lon="15.90827120166">
        <ele>429.6</ele>
        <time>2019-01-13T12:09:12Z</time>
      </trkpt>
      <trkpt lat="60.098966642168" lon="15.908423668421">
        <ele>429.2</ele>
        <time>2019-01-13T12:09:14Z</time>
      </trkpt>
      <trkpt lat="60.099097567446" lon="15.908782832836">
        <ele>429</ele>
        <time>2019-01-13T12:09:20Z</time>
      </trkpt>
      <trkpt lat="60.099253638424" lon="15.909074522956">
        <ele>429</ele>
        <time>2019-01-13T12:09:26Z</time>
      </trkpt>
      <trkpt lat="60.099392777964" lon="15.909402339065">
        <ele>429.4</ele>
        <time>2019-01-13T12:09:32Z</time>
      </trkpt>
      <trkpt lat="60.099516243351" lon="15.909730909545">
        <ele>429.8</ele>
        <time>2019-01-13T12:09:38Z</time>
      </trkpt>
      <trkpt lat="60.099626046241" lon="15.910075237997">
        <ele>430</ele>
        <time>2019-01-13T12:09:44Z</time>
      </trkpt>
      <trkpt lat="60.09964708481" lon="15.910122679551">
        <ele>430.2</ele>
        <time>2019-01-13T12:09:45Z</time>
      </trkpt>
      <trkpt lat="60.099709529965" lon="15.91024765368">
        <ele>430.2</ele>
        <time>2019-01-13T12:09:48Z</time>
      </trkpt>
      <trkpt lat="60.099889237901" lon="15.910320073296">
        <ele>430.2</ele>
        <time>2019-01-13T12:09:54Z</time>
      </trkpt>
      <trkpt lat="60.100028125984" lon="15.910260310349">
        <ele>430.8</ele>
        <time>2019-01-13T12:10:00Z</time>
      </trkpt>
      <trkpt lat="60.100174893053" lon="15.910110525796">
        <ele>431.2</ele>
        <time>2019-01-13T12:10:06Z</time>
      </trkpt>
      <trkpt lat="60.100339681207" lon="15.909902403219">
        <ele>430.6</ele>
        <time>2019-01-13T12:10:12Z</time>
      </trkpt>
      <trkpt lat="60.100507486845" lon="15.909757396349">
        <ele>431.4</ele>
        <time>2019-01-13T12:10:18Z</time>
      </trkpt>
      <trkpt lat="60.100631455146" lon="15.909671481874">
        <ele>432.4</ele>
        <time>2019-01-13T12:10:23Z</time>
      </trkpt>
      <trkpt lat="60.100647967489" lon="15.909669805494">
        <ele>432.6</ele>
        <time>2019-01-13T12:10:25Z</time>
      </trkpt>
      <trkpt lat="60.100639669408" lon="15.909676678652">
        <ele>432.6</ele>
        <time>2019-01-13T12:10:30Z</time>
      </trkpt>
      <trkpt lat="60.100638412123" lon="15.909638038093">
        <ele>432.4</ele>
        <time>2019-01-13T12:12:09Z</time>
      </trkpt>
      <trkpt lat="60.100653918638" lon="15.909630242926">
        <ele>432.4</ele>
        <time>2019-01-13T12:12:11Z</time>
      </trkpt>
      <trkpt lat="60.100690296084" lon="15.909583723381">
        <ele>433.2</ele>
        <time>2019-01-13T12:12:13Z</time>
      </trkpt>
      <trkpt lat="60.100793561092" lon="15.909450115895">
        <ele>433</ele>
        <time>2019-01-13T12:12:16Z</time>
      </trkpt>
      <trkpt lat="60.100966228232" lon="15.909237047997">
        <ele>432.2</ele>
        <time>2019-01-13T12:12:20Z</time>
      </trkpt>
      <trkpt lat="60.10103512745" lon="15.909073852404">
        <ele>431.4</ele>
        <time>2019-01-13T12:12:22Z</time>
      </trkpt>
      <trkpt lat="60.101067230127" lon="15.908997409476">
        <ele>431</ele>
        <time>2019-01-13T12:12:23Z</time>
      </trkpt>
      <trkpt lat="60.101137721906" lon="15.908883750912">
        <ele>430.2</ele>
        <time>2019-01-13T12:12:25Z</time>
      </trkpt>
      <trkpt lat="60.101174350809" lon="15.908847624923">
        <ele>430</ele>
        <time>2019-01-13T12:12:26Z</time>
      </trkpt>
      <trkpt lat="60.101262444578" lon="15.908802781758">
        <ele>429.6</ele>
        <time>2019-01-13T12:12:28Z</time>
      </trkpt>
      <trkpt lat="60.101504094755" lon="15.908872686804">
        <ele>430.8</ele>
        <time>2019-01-13T12:12:34Z</time>
      </trkpt>
      <trkpt lat="60.101584058081" lon="15.908860281592">
        <ele>430.8</ele>
        <time>2019-01-13T12:12:36Z</time>
      </trkpt>
      <trkpt lat="60.101808693001" lon="15.908622319451">
        <ele>429.8</ele>
        <time>2019-01-13T12:12:42Z</time>
      </trkpt>
      <trkpt lat="60.101994855" lon="15.908275141153">
        <ele>429</ele>
        <time>2019-01-13T12:12:48Z</time>
      </trkpt>
      <trkpt lat="60.102076913801" lon="15.908144802608">
        <ele>428</ele>
        <time>2019-01-13T12:12:51Z</time>
      </trkpt>
      <trkpt lat="60.102188141614" lon="15.907903487707">
        <ele>427.2</ele>
        <time>2019-01-13T12:12:55Z</time>
      </trkpt>
      <trkpt lat="60.102228039458" lon="15.907717325708">
        <ele>426.4</ele>
        <time>2019-01-13T12:12:57Z</time>
      </trkpt>
      <trkpt lat="60.102241031403" lon="15.907487410191">
        <ele>425.2</ele>
        <time>2019-01-13T12:12:59Z</time>
      </trkpt>
      <trkpt lat="60.10222787182" lon="15.907262691452">
        <ele>423.6</ele>
        <time>2019-01-13T12:13:01Z</time>
      </trkpt>
      <trkpt lat="60.102123433346" lon="15.9067926345">
        <ele>423</ele>
        <time>2019-01-13T12:13:05Z</time>
      </trkpt>
      <trkpt lat="60.102078674" lon="15.906601946275">
        <ele>423</ele>
        <time>2019-01-13T12:13:07Z</time>
      </trkpt>
      <trkpt lat="60.102069621548" lon="15.906406983281">
        <ele>423</ele>
        <time>2019-01-13T12:13:09Z</time>
      </trkpt>
      <trkpt lat="60.102071214109" lon="15.906196346134">
        <ele>422.8</ele>
        <time>2019-01-13T12:13:11Z</time>
      </trkpt>
      <trkpt lat="60.102086469167" lon="15.905934663216">
        <ele>423</ele>
        <time>2019-01-13T12:13:14Z</time>
      </trkpt>
      <trkpt lat="60.102098874379" lon="15.905757805126">
        <ele>423.6</ele>
        <time>2019-01-13T12:13:16Z</time>
      </trkpt>
      <trkpt lat="60.102132904893" lon="15.905479526046">
        <ele>423.4</ele>
        <time>2019-01-13T12:13:19Z</time>
      </trkpt>
      <trkpt lat="60.10219518241" lon="15.905179034931">
        <ele>422.4</ele>
        <time>2019-01-13T12:13:22Z</time>
      </trkpt>
      <trkpt lat="60.102249916217" lon="15.905002931212">
        <ele>421.2</ele>
        <time>2019-01-13T12:13:24Z</time>
      </trkpt>
      <trkpt lat="60.102408669403" lon="15.904683413184">
        <ele>421</ele>
        <time>2019-01-13T12:13:29Z</time>
      </trkpt>
      <trkpt lat="60.102504725977" lon="15.904505633085">
        <ele>421.4</ele>
        <time>2019-01-13T12:13:32Z</time>
      </trkpt>
      <trkpt lat="60.102671944882" lon="15.904129621051">
        <ele>421.4</ele>
        <time>2019-01-13T12:13:38Z</time>
      </trkpt>
      <trkpt lat="60.102848886791" lon="15.903903980303">
        <ele>421.8</ele>
        <time>2019-01-13T12:13:44Z</time>
      </trkpt>
      <trkpt lat="60.102907476272" lon="15.903804654788">
        <ele>422.4</ele>
        <time>2019-01-13T12:13:48Z</time>
      </trkpt>
      <trkpt lat="60.102997497878" lon="15.903537523635">
        <ele>423.2</ele>
        <time>2019-01-13T12:13:54Z</time>
      </trkpt>
      <trkpt lat="60.10300990309" lon="15.903305847919">
        <ele>423.4</ele>
        <time>2019-01-13T12:13:58Z</time>
      </trkpt>
      <trkpt lat="60.102963383545" lon="15.902993370687">
        <ele>423.8</ele>
        <time>2019-01-13T12:14:04Z</time>
      </trkpt>
      <trkpt lat="60.102878055803" lon="15.902758845125">
        <ele>424.4</ele>
        <time>2019-01-13T12:14:10Z</time>
      </trkpt>
      <trkpt lat="60.10285483794" lon="15.902719450195">
        <ele>424.6</ele>
        <time>2019-01-13T12:14:11Z</time>
      </trkpt>
      <trkpt lat="60.102714944029" lon="15.902484421719">
        <ele>424.8</ele>
        <time>2019-01-13T12:14:17Z</time>
      </trkpt>
      <trkpt lat="60.102581504181" lon="15.902228857588">
        <ele>424.8</ele>
        <time>2019-01-13T12:14:23Z</time>
      </trkpt>
      <trkpt lat="60.102490560566" lon="15.901970778887">
        <ele>425.4</ele>
        <time>2019-01-13T12:14:29Z</time>
      </trkpt>
      <trkpt lat="60.102374974165" lon="15.901714628023">
        <ele>425</ele>
        <time>2019-01-13T12:14:35Z</time>
      </trkpt>
      <trkpt lat="60.102289646423" lon="15.901485718334">
        <ele>425.8</ele>
        <time>2019-01-13T12:14:41Z</time>
      </trkpt>
      <trkpt lat="60.102235834625" lon="15.901189501988">
        <ele>426.4</ele>
        <time>2019-01-13T12:14:47Z</time>
      </trkpt>
      <trkpt lat="60.10219685879" lon="15.901054050484">
        <ele>426.8</ele>
        <time>2019-01-13T12:14:50Z</time>
      </trkpt>
      <trkpt lat="60.102109770849" lon="15.9007492846">
        <ele>427.6</ele>
        <time>2019-01-13T12:14:56Z</time>
      </trkpt>
      <trkpt lat="60.101957555545" lon="15.900520710187">
        <ele>427.2</ele>
        <time>2019-01-13T12:15:02Z</time>
      </trkpt>
      <trkpt lat="60.101918998805" lon="15.90050201855">
        <ele>426.8</ele>
        <time>2019-01-13T12:15:03Z</time>
      </trkpt>
      <trkpt lat="60.101826881724" lon="15.900503778749">
        <ele>425.6</ele>
        <time>2019-01-13T12:15:05Z</time>
      </trkpt>
      <trkpt lat="60.101725460734" lon="15.900551387941">
        <ele>424.4</ele>
        <time>2019-01-13T12:15:07Z</time>
      </trkpt>
      <trkpt lat="60.101577184923" lon="15.900648617981">
        <ele>423.4</ele>
        <time>2019-01-13T12:15:10Z</time>
      </trkpt>
      <trkpt lat="60.101342659361" lon="15.900782476924">
        <ele>423.2</ele>
        <time>2019-01-13T12:15:16Z</time>
      </trkpt>
      <trkpt lat="60.101247943891" lon="15.900815250153">
        <ele>424.4</ele>
        <time>2019-01-13T12:15:19Z</time>
      </trkpt>
      <trkpt lat="60.101048203214" lon="15.900878114403">
        <ele>424.8</ele>
        <time>2019-01-13T12:15:25Z</time>
      </trkpt>
      <trkpt lat="60.100972347019" lon="15.900909043614">
        <ele>424.6</ele>
        <time>2019-01-13T12:15:27Z</time>
      </trkpt>
      <trkpt lat="60.100778557491" lon="15.90090770251">
        <ele>424.8</ele>
        <time>2019-01-13T12:15:33Z</time>
      </trkpt>
      <trkpt lat="60.100625168721" lon="15.900829834659">
        <ele>425.6</ele>
        <time>2019-01-13T12:15:39Z</time>
      </trkpt>
      <trkpt lat="60.1004777311" lon="15.900630680715">
        <ele>425.2</ele>
        <time>2019-01-13T12:15:45Z</time>
      </trkpt>
      <trkpt lat="60.10031344586" lon="15.900486009121">
        <ele>425</ele>
        <time>2019-01-13T12:15:51Z</time>
      </trkpt>
      <trkpt lat="60.100132145363" lon="15.90062523248">
        <ele>425</ele>
        <time>2019-01-13T12:15:57Z</time>
      </trkpt>
      <trkpt lat="60.099959394404" lon="15.900889932882">
        <ele>425</ele>
        <time>2019-01-13T12:16:03Z</time>
      </trkpt>
      <trkpt lat="60.099811872964" lon="15.901092858681">
        <ele>425.2</ele>
        <time>2019-01-13T12:16:09Z</time>
      </trkpt>
      <trkpt lat="60.099607186966" lon="15.901174666025">
        <ele>424.6</ele>
        <time>2019-01-13T12:16:15Z</time>
      </trkpt>
      <trkpt lat="60.099570977158" lon="15.901186149228">
        <ele>424.4</ele>
        <time>2019-01-13T12:16:16Z</time>
      </trkpt>
      <trkpt lat="60.099389592842" lon="15.901265442002">
        <ele>424.8</ele>
        <time>2019-01-13T12:16:22Z</time>
      </trkpt>
      <trkpt lat="60.099211645105" lon="15.901358816368">
        <ele>424.8</ele>
        <time>2019-01-13T12:16:28Z</time>
      </trkpt>
      <trkpt lat="60.099033278273" lon="15.901473816036">
        <ele>425.2</ele>
        <time>2019-01-13T12:16:34Z</time>
      </trkpt>
      <trkpt lat="60.098903945556" lon="15.901492088578">
        <ele>425.6</ele>
        <time>2019-01-13T12:16:39Z</time>
      </trkpt>
      <trkpt lat="60.098740498506" lon="15.901459985901">
        <ele>426.4</ele>
        <time>2019-01-13T12:16:45Z</time>
      </trkpt>
      <trkpt lat="60.098702863775" lon="15.901431487441">
        <ele>426.6</ele>
        <time>2019-01-13T12:16:47Z</time>
      </trkpt>
      <trkpt lat="60.098596413645" lon="15.901396032004">
        <ele>427.6</ele>
        <time>2019-01-13T12:16:52Z</time>
      </trkpt>
      <trkpt lat="60.098472277706" lon="15.90127985887">
        <ele>428.2</ele>
        <time>2019-01-13T12:16:58Z</time>
      </trkpt>
      <trkpt lat="60.098381166453" lon="15.901154717103">
        <ele>428.8</ele>
        <time>2019-01-13T12:17:02Z</time>
      </trkpt>
      <trkpt lat="60.098251247003" lon="15.901008620586">
        <ele>429</ele>
        <time>2019-01-13T12:17:08Z</time>
      </trkpt>
      <trkpt lat="60.098055026724" lon="15.900889765244">
        <ele>428.2</ele>
        <time>2019-01-13T12:17:14Z</time>
      </trkpt>
      <trkpt lat="60.097885041792" lon="15.900774095024">
        <ele>428.4</ele>
        <time>2019-01-13T12:17:20Z</time>
      </trkpt>
      <trkpt lat="60.097761408767" lon="15.900744674555">
        <ele>429.8</ele>
        <time>2019-01-13T12:17:25Z</time>
      </trkpt>
      <trkpt lat="60.097634003887" lon="15.900773256834">
        <ele>430.4</ele>
        <time>2019-01-13T12:17:31Z</time>
      </trkpt>
      <trkpt lat="60.097600979201" lon="15.900788428073">
        <ele>431</ele>
        <time>2019-01-13T12:17:33Z</time>
      </trkpt>
      <trkpt lat="60.09747952547" lon="15.900828158279">
        <ele>431.8</ele>
        <time>2019-01-13T12:17:39Z</time>
      </trkpt>
      <trkpt lat="60.09745857072" lon="15.900830086116">
        <ele>432.2</ele>
        <time>2019-01-13T12:17:40Z</time>
      </trkpt>
      <trkpt lat="60.097349773658" lon="15.900876186566">
        <ele>432.6</ele>
        <time>2019-01-13T12:17:46Z</time>
      </trkpt>
      <trkpt lat="60.097211053213" lon="15.901048853706">
        <ele>432.6</ele>
        <time>2019-01-13T12:17:52Z</time>
      </trkpt>
      <trkpt lat="60.097046348878" lon="15.901283379268">
        <ele>432</ele>
        <time>2019-01-13T12:17:58Z</time>
      </trkpt>
      <trkpt lat="60.096878040326" lon="15.901528046929">
        <ele>432.4</ele>
        <time>2019-01-13T12:18:04Z</time>
      </trkpt>
      <trkpt lat="60.096687771196" lon="15.901578086872">
        <ele>431.6</ele>
        <time>2019-01-13T12:18:10Z</time>
      </trkpt>
      <trkpt lat="60.096645861696" lon="15.901554952828">
        <ele>431</ele>
        <time>2019-01-13T12:18:11Z</time>
      </trkpt>
      <trkpt lat="60.096546368543" lon="15.901459399168">
        <ele>429</ele>
        <time>2019-01-13T12:18:13Z</time>
      </trkpt>
      <trkpt lat="60.096425585364" lon="15.90136451606">
        <ele>427</ele>
        <time>2019-01-13T12:18:15Z</time>
      </trkpt>
      <trkpt lat="60.096317961768" lon="15.901286732028">
        <ele>425.4</ele>
        <time>2019-01-13T12:18:17Z</time>
      </trkpt>
      <trkpt lat="60.095995426256" lon="15.901265944916">
        <ele>425.8</ele>
        <time>2019-01-13T12:18:23Z</time>
      </trkpt>
      <trkpt lat="60.095911355799" lon="15.901329228261">
        <ele>426.4</ele>
        <time>2019-01-13T12:18:25Z</time>
      </trkpt>
      <trkpt lat="60.09574111941" lon="15.901553863181">
        <ele>427.4</ele>
        <time>2019-01-13T12:18:30Z</time>
      </trkpt>
      <trkpt lat="60.095705580154" lon="15.901603819305">
        <ele>427.6</ele>
        <time>2019-01-13T12:18:31Z</time>
      </trkpt>
      <trkpt lat="60.095547832796" lon="15.901714376566">
        <ele>425.8</ele>
        <time>2019-01-13T12:18:35Z</time>
      </trkpt>
      <trkpt lat="60.095458481742" lon="15.901732146194">
        <ele>424.2</ele>
        <time>2019-01-13T12:18:37Z</time>
      </trkpt>
      <trkpt lat="60.09541254893" lon="15.901745557234">
        <ele>423.6</ele>
        <time>2019-01-13T12:18:38Z</time>
      </trkpt>
      <trkpt lat="60.095335183993" lon="15.901758213903">
        <ele>422.8</ele>
        <time>2019-01-13T12:18:40Z</time>
      </trkpt>
      <trkpt lat="60.09507056741" lon="15.901720830629">
        <ele>422</ele>
        <time>2019-01-13T12:18:46Z</time>
      </trkpt>
      <trkpt lat="60.094834030192" lon="15.901529388033">
        <ele>422.8</ele>
        <time>2019-01-13T12:18:52Z</time>
      </trkpt>
      <trkpt lat="60.094614172955" lon="15.901248762021">
        <ele>421.2</ele>
        <time>2019-01-13T12:18:58Z</time>
      </trkpt>
      <trkpt lat="60.094535886009" lon="15.901158991872">
        <ele>419.8</ele>
        <time>2019-01-13T12:19:00Z</time>
      </trkpt>
      <trkpt lat="60.094277388213" lon="15.900939889006">
        <ele>419.8</ele>
        <time>2019-01-13T12:19:06Z</time>
      </trkpt>
      <trkpt lat="60.094058704442" lon="15.900659430632">
        <ele>420.4</ele>
        <time>2019-01-13T12:19:12Z</time>
      </trkpt>
      <trkpt lat="60.093854688996" lon="15.900353156006">
        <ele>419.4</ele>
        <time>2019-01-13T12:19:18Z</time>
      </trkpt>
      <trkpt lat="60.093749496151" lon="15.900192810259">
        <ele>418.8</ele>
        <time>2019-01-13T12:19:21Z</time>
      </trkpt>
      <trkpt lat="60.093545145429" lon="15.89984823035">
        <ele>418.4</ele>
        <time>2019-01-13T12:19:27Z</time>
      </trkpt>
      <trkpt lat="60.093472893451" lon="15.899735745252">
        <ele>418.2</ele>
        <time>2019-01-13T12:19:29Z</time>
      </trkpt>
      <trkpt lat="60.093292095868" lon="15.899418993251">
        <ele>418.2</ele>
        <time>2019-01-13T12:19:35Z</time>
      </trkpt>
      <trkpt lat="60.093259909372" lon="15.899359230304">
        <ele>418</ele>
        <time>2019-01-13T12:19:36Z</time>
      </trkpt>
      <trkpt lat="60.093229985989" lon="15.899295611683">
        <ele>417.8</ele>
        <time>2019-01-13T12:19:37Z</time>
      </trkpt>
      <trkpt lat="60.093209282696" lon="15.899216486547">
        <ele>417.6</ele>
        <time>2019-01-13T12:19:38Z</time>
      </trkpt>
      <trkpt lat="60.093181454788" lon="15.898855478114">
        <ele>417.6</ele>
        <time>2019-01-13T12:19:42Z</time>
      </trkpt>
      <trkpt lat="60.093131582483" lon="15.898558423578">
        <ele>416.6</ele>
        <time>2019-01-13T12:19:46Z</time>
      </trkpt>
      <trkpt lat="60.093101240005" lon="15.898504779418">
        <ele>416.6</ele>
        <time>2019-01-13T12:19:47Z</time>
      </trkpt>
      <trkpt lat="60.092918514585" lon="15.898235468971">
        <ele>416.4</ele>
        <time>2019-01-13T12:19:53Z</time>
      </trkpt>
      <trkpt lat="60.092765209634" lon="15.897918046418">
        <ele>416.2</ele>
        <time>2019-01-13T12:19:59Z</time>
      </trkpt>
      <trkpt lat="60.092798401958" lon="15.897482271437">
        <ele>415.8</ele>
        <time>2019-01-13T12:20:05Z</time>
      </trkpt>
      <trkpt lat="60.092901499328" lon="15.897098045141">
        <ele>416</ele>
        <time>2019-01-13T12:20:11Z</time>
      </trkpt>
      <trkpt lat="60.092977439342" lon="15.896761763313">
        <ele>416.8</ele>
        <time>2019-01-13T12:20:17Z</time>
      </trkpt>
      <trkpt lat="60.09307902797" lon="15.896379297216">
        <ele>417</ele>
        <time>2019-01-13T12:20:23Z</time>
      </trkpt>
      <trkpt lat="60.093190088145" lon="15.896035471678">
        <ele>416.8</ele>
        <time>2019-01-13T12:20:29Z</time>
      </trkpt>
      <trkpt lat="60.093284887434" lon="15.895675133797">
        <ele>417</ele>
        <time>2019-01-13T12:20:35Z</time>
      </trkpt>
      <trkpt lat="60.093351188263" lon="15.895373469216">
        <ele>417.2</ele>
        <time>2019-01-13T12:20:41Z</time>
      </trkpt>
      <trkpt lat="60.093395528514" lon="15.895033080257">
        <ele>417.4</ele>
        <time>2019-01-13T12:20:47Z</time>
      </trkpt>
      <trkpt lat="60.093445903733" lon="15.894678693525">
        <ele>417.2</ele>
        <time>2019-01-13T12:20:53Z</time>
      </trkpt>
      <trkpt lat="60.093499631712" lon="15.8942700759">
        <ele>417</ele>
        <time>2019-01-13T12:20:59Z</time>
      </trkpt>
      <trkpt lat="60.093549084922" lon="15.893856345316">
        <ele>417</ele>
        <time>2019-01-13T12:21:05Z</time>
      </trkpt>
      <trkpt lat="60.093639609442" lon="15.893369189288">
        <ele>417.2</ele>
        <time>2019-01-13T12:21:13Z</time>
      </trkpt>
      <trkpt lat="60.093703228063" lon="15.892987226105">
        <ele>417</ele>
        <time>2019-01-13T12:21:19Z</time>
      </trkpt>
      <trkpt lat="60.093806073976" lon="15.89262051798">
        <ele>417.4</ele>
        <time>2019-01-13T12:21:25Z</time>
      </trkpt>
      <trkpt lat="60.093877152488" lon="15.892377945794">
        <ele>417.8</ele>
        <time>2019-01-13T12:21:30Z</time>
      </trkpt>
      <trkpt lat="60.093917720884" lon="15.892189017768">
        <ele>418.8</ele>
        <time>2019-01-13T12:21:36Z</time>
      </trkpt>
      <trkpt lat="60.093951248484" lon="15.892036131912">
        <ele>420</ele>
        <time>2019-01-13T12:21:41Z</time>
      </trkpt>
      <trkpt lat="60.093953008683" lon="15.892009645108">
        <ele>420</ele>
        <time>2019-01-13T12:21:42Z</time>
      </trkpt>
      <trkpt lat="60.094008496861" lon="15.891788949681">
        <ele>420.4</ele>
        <time>2019-01-13T12:21:48Z</time>
      </trkpt>
      <trkpt lat="60.094035738036" lon="15.891708315803">
        <ele>420.8</ele>
        <time>2019-01-13T12:21:52Z</time>
      </trkpt>
      <trkpt lat="60.094041856823" lon="15.891695323858">
        <ele>421.2</ele>
        <time>2019-01-13T12:21:53Z</time>
      </trkpt>
      <trkpt lat="60.094078234269" lon="15.891652995263">
        <ele>422.2</ele>
        <time>2019-01-13T12:21:59Z</time>
      </trkpt>
      <trkpt lat="60.094118299751" lon="15.89163145378">
        <ele>423</ele>
        <time>2019-01-13T12:22:05Z</time>
      </trkpt>
      <trkpt lat="60.094124921452" lon="15.891630699409">
        <ele>423</ele>
        <time>2019-01-13T12:22:06Z</time>
      </trkpt>
      <trkpt lat="60.094142188166" lon="15.891633800712">
        <ele>423.2</ele>
        <time>2019-01-13T12:22:08Z</time>
      </trkpt>
      <trkpt lat="60.094159119604" lon="15.89162474826">
        <ele>423.6</ele>
        <time>2019-01-13T12:22:10Z</time>
      </trkpt>
      <trkpt lat="60.094198682172" lon="15.891615109075">
        <ele>424.2</ele>
        <time>2019-01-13T12:22:13Z</time>
      </trkpt>
      <trkpt lat="60.094216619438" lon="15.891615863446">
        <ele>424.2</ele>
        <time>2019-01-13T12:22:14Z</time>
      </trkpt>
      <trkpt lat="60.094382581058" lon="15.891601195121">
        <ele>424.6</ele>
        <time>2019-01-13T12:22:20Z</time>
      </trkpt>
      <trkpt lat="60.094570838532" lon="15.891492398059">
        <ele>424.6</ele>
        <time>2019-01-13T12:22:26Z</time>
      </trkpt>
      <trkpt lat="60.094739649998" lon="15.891305733146">
        <ele>424.2</ele>
        <time>2019-01-13T12:22:32Z</time>
      </trkpt>
      <trkpt lat="60.094908210007" lon="15.891113536179">
        <ele>423.6</ele>
        <time>2019-01-13T12:22:38Z</time>
      </trkpt>
      <trkpt lat="60.095058162198" lon="15.890873897658">
        <ele>424.2</ele>
        <time>2019-01-13T12:22:44Z</time>
      </trkpt>
      <trkpt lat="60.09520635419" lon="15.890607017962">
        <ele>424.8</ele>
        <time>2019-01-13T12:22:50Z</time>
      </trkpt>
      <trkpt lat="60.095314732157" lon="15.890415323909">
        <ele>423</ele>
        <time>2019-01-13T12:22:54Z</time>
      </trkpt>
      <trkpt lat="60.095540624362" lon="15.890240477475">
        <ele>422.4</ele>
        <time>2019-01-13T12:23:00Z</time>
      </trkpt>
      <trkpt lat="60.0956329929" lon="15.890204267667">
        <ele>422.6</ele>
        <time>2019-01-13T12:23:02Z</time>
      </trkpt>
      <trkpt lat="60.095840277287" lon="15.890291020332">
        <ele>422.8</ele>
        <time>2019-01-13T12:23:07Z</time>
      </trkpt>
      <trkpt lat="60.095961060466" lon="15.890419766316">
        <ele>422</ele>
        <time>2019-01-13T12:23:10Z</time>
      </trkpt>
      <trkpt lat="60.096001461224" lon="15.89047056063">
        <ele>421.8</ele>
        <time>2019-01-13T12:23:11Z</time>
      </trkpt>
      <trkpt lat="60.096125513344" lon="15.890617914432">
        <ele>420.6</ele>
        <time>2019-01-13T12:23:14Z</time>
      </trkpt>
      <trkpt lat="60.096247972903" lon="15.890771219383">
        <ele>419.4</ele>
        <time>2019-01-13T12:23:17Z</time>
      </trkpt>
      <trkpt lat="60.096418628387" lon="15.891012450465">
        <ele>418.4</ele>
        <time>2019-01-13T12:23:21Z</time>
      </trkpt>
      <trkpt lat="60.096472272547" lon="15.891060897847">
        <ele>418.2</ele>
        <time>2019-01-13T12:23:22Z</time>
      </trkpt>
      <trkpt lat="60.096735799483" lon="15.891197019903">
        <ele>419.4</ele>
        <time>2019-01-13T12:23:28Z</time>
      </trkpt>
      <trkpt lat="60.096955572901" lon="15.891317551625">
        <ele>419.8</ele>
        <time>2019-01-13T12:23:34Z</time>
      </trkpt>
      <trkpt lat="60.097120361055" lon="15.891496002276">
        <ele>420</ele>
        <time>2019-01-13T12:23:40Z</time>
      </trkpt>
      <trkpt lat="60.097247263021" lon="15.891767994931">
        <ele>420.2</ele>
        <time>2019-01-13T12:23:46Z</time>
      </trkpt>
      <trkpt lat="60.097318090076" lon="15.891947702867">
        <ele>420.4</ele>
        <time>2019-01-13T12:23:50Z</time>
      </trkpt>
      <trkpt lat="60.097433257382" lon="15.892154232883">
        <ele>421</ele>
        <time>2019-01-13T12:23:56Z</time>
      </trkpt>
      <trkpt lat="60.097539707512" lon="15.892236543141">
        <ele>421.4</ele>
        <time>2019-01-13T12:24:00Z</time>
      </trkpt>
      <trkpt lat="60.097716649421" lon="15.892378783984">
        <ele>421.8</ele>
        <time>2019-01-13T12:24:06Z</time>
      </trkpt>
      <trkpt lat="60.097897279366" lon="15.892568801657">
        <ele>422</ele>
        <time>2019-01-13T12:24:12Z</time>
      </trkpt>
      <trkpt lat="60.098090985075" lon="15.892817660268">
        <ele>421.8</ele>
        <time>2019-01-13T12:24:18Z</time>
      </trkpt>
      <trkpt lat="60.098273039943" lon="15.892965433165">
        <ele>421.8</ele>
        <time>2019-01-13T12:24:24Z</time>
      </trkpt>
      <trkpt lat="60.098469344041" lon="15.893166263489">
        <ele>422</ele>
        <time>2019-01-13T12:24:30Z</time>
      </trkpt>
      <trkpt lat="60.098657517696" lon="15.893352509307">
        <ele>421.2</ele>
        <time>2019-01-13T12:24:36Z</time>
      </trkpt>
      <trkpt lat="60.098879051313" lon="15.893419815964">
        <ele>421</ele>
        <time>2019-01-13T12:24:42Z</time>
      </trkpt>
      <trkpt lat="60.099093963229" lon="15.89351235214">
        <ele>421.2</ele>
        <time>2019-01-13T12:24:48Z</time>
      </trkpt>
      <trkpt lat="60.099299738874" lon="15.893555854201">
        <ele>421</ele>
        <time>2019-01-13T12:24:54Z</time>
      </trkpt>
      <trkpt lat="60.099497635533" lon="15.89357605458">
        <ele>421.6</ele>
        <time>2019-01-13T12:25:00Z</time>
      </trkpt>
      <trkpt lat="60.099706512481" lon="15.893730784454">
        <ele>422</ele>
        <time>2019-01-13T12:25:06Z</time>
      </trkpt>
      <trkpt lat="60.099902900398" lon="15.893808736124">
        <ele>421.6</ele>
        <time>2019-01-13T12:25:12Z</time>
      </trkpt>
      <trkpt lat="60.100053439322" lon="15.893683678176">
        <ele>422</ele>
        <time>2019-01-13T12:25:18Z</time>
      </trkpt>
      <trkpt lat="60.100117057943" lon="15.893625843066">
        <ele>421.8</ele>
        <time>2019-01-13T12:25:22Z</time>
      </trkpt>
      <trkpt lat="60.100259047329" lon="15.89355929078">
        <ele>422.2</ele>
        <time>2019-01-13T12:25:28Z</time>
      </trkpt>
      <trkpt lat="60.100488292294" lon="15.893522242782">
        <ele>421.4</ele>
        <time>2019-01-13T12:25:34Z</time>
      </trkpt>
      <trkpt lat="60.100596251166" lon="15.893521153135">
        <ele>420.4</ele>
        <time>2019-01-13T12:25:37Z</time>
      </trkpt>
      <trkpt lat="60.100802445906" lon="15.893488128449">
        <ele>421.2</ele>
        <time>2019-01-13T12:25:43Z</time>
      </trkpt>
      <trkpt lat="60.100872434771" lon="15.893499024919">
        <ele>421.4</ele>
        <time>2019-01-13T12:25:45Z</time>
      </trkpt>
      <trkpt lat="60.101107630885" lon="15.893564403739">
        <ele>421.4</ele>
        <time>2019-01-13T12:25:51Z</time>
      </trkpt>
      <trkpt lat="60.101311478693" lon="15.893637829183">
        <ele>421.6</ele>
        <time>2019-01-13T12:25:57Z</time>
      </trkpt>
      <trkpt lat="60.101530162464" lon="15.893712428093">
        <ele>421.2</ele>
        <time>2019-01-13T12:26:03Z</time>
      </trkpt>
      <trkpt lat="60.101728142942" lon="15.893766826624">
        <ele>422.4</ele>
        <time>2019-01-13T12:26:09Z</time>
      </trkpt>
      <trkpt lat="60.1017517799" lon="15.893776046714">
        <ele>422.6</ele>
        <time>2019-01-13T12:26:10Z</time>
      </trkpt>
      <trkpt lat="60.101888237232" lon="15.893763976778">
        <ele>423.4</ele>
        <time>2019-01-13T12:26:16Z</time>
      </trkpt>
      <trkpt lat="60.102011954076" lon="15.893661633779">
        <ele>423.6</ele>
        <time>2019-01-13T12:26:21Z</time>
      </trkpt>
      <trkpt lat="60.10216919852" lon="15.893468682441">
        <ele>423.6</ele>
        <time>2019-01-13T12:26:27Z</time>
      </trkpt>
      <trkpt lat="60.102341111289" lon="15.893278161854">
        <ele>423.6</ele>
        <time>2019-01-13T12:26:33Z</time>
      </trkpt>
      <trkpt lat="60.102502295226" lon="15.893111194406">
        <ele>423.8</ele>
        <time>2019-01-13T12:26:39Z</time>
      </trkpt>
      <trkpt lat="60.102671777244" lon="15.892972641599">
        <ele>424</ele>
        <time>2019-01-13T12:26:45Z</time>
      </trkpt>
      <trkpt lat="60.102871937016" lon="15.892870047143">
        <ele>424.4</ele>
        <time>2019-01-13T12:26:51Z</time>
      </trkpt>
      <trkpt lat="60.102930777954" lon="15.892837022457">
        <ele>424.6</ele>
        <time>2019-01-13T12:26:53Z</time>
      </trkpt>
      <trkpt lat="60.103117945781" lon="15.89271523345">
        <ele>424.6</ele>
        <time>2019-01-13T12:26:59Z</time>
      </trkpt>
      <trkpt lat="60.103276196053" lon="15.892625211844">
        <ele>424.4</ele>
        <time>2019-01-13T12:27:05Z</time>
      </trkpt>
      <trkpt lat="60.103393207377" lon="15.892404600236">
        <ele>424.6</ele>
        <time>2019-01-13T12:27:11Z</time>
      </trkpt>
      <trkpt lat="60.103456574541" lon="15.892218857332">
        <ele>424.2</ele>
        <time>2019-01-13T12:27:14Z</time>
      </trkpt>
      <trkpt lat="60.103520109343" lon="15.892025319261">
        <ele>423.6</ele>
        <time>2019-01-13T12:27:17Z</time>
      </trkpt>
      <trkpt lat="60.103611974967" lon="15.891863464772">
        <ele>422.2</ele>
        <time>2019-01-13T12:27:20Z</time>
      </trkpt>
      <trkpt lat="60.103652124268" lon="15.891823315471">
        <ele>422</ele>
        <time>2019-01-13T12:27:21Z</time>
      </trkpt>
      <trkpt lat="60.103930068072" lon="15.891627849563">
        <ele>421.6</ele>
        <time>2019-01-13T12:27:27Z</time>
      </trkpt>
      <trkpt lat="60.104152858974" lon="15.891417547692">
        <ele>422</ele>
        <time>2019-01-13T12:27:33Z</time>
      </trkpt>
      <trkpt lat="60.104249753738" lon="15.891269774795">
        <ele>421.8</ele>
        <time>2019-01-13T12:27:36Z</time>
      </trkpt>
      <trkpt lat="60.104451841347" lon="15.89125510647">
        <ele>421.8</ele>
        <time>2019-01-13T12:27:42Z</time>
      </trkpt>
      <trkpt lat="60.104603050823" lon="15.891569846815">
        <ele>421.8</ele>
        <time>2019-01-13T12:27:48Z</time>
      </trkpt>
      <trkpt lat="60.104718301948" lon="15.891871092301">
        <ele>421.4</ele>
        <time>2019-01-13T12:27:54Z</time>
      </trkpt>
      <trkpt lat="60.104872528908" lon="15.892085166027">
        <ele>422</ele>
        <time>2019-01-13T12:28:00Z</time>
      </trkpt>
      <trkpt lat="60.105019463615" lon="15.892185245913">
        <ele>422.8</ele>
        <time>2019-01-13T12:28:06Z</time>
      </trkpt>
      <trkpt lat="60.105125075555" lon="15.892188766311">
        <ele>423</ele>
        <time>2019-01-13T12:28:10Z</time>
      </trkpt>
      <trkpt lat="60.105184503226" lon="15.892181725515">
        <ele>423.2</ele>
        <time>2019-01-13T12:28:12Z</time>
      </trkpt>
      <trkpt lat="60.105292545917" lon="15.892187257569">
        <ele>423.6</ele>
        <time>2019-01-13T12:28:15Z</time>
      </trkpt>
      <trkpt lat="60.105525730375" lon="15.892141492395">
        <ele>422.8</ele>
        <time>2019-01-13T12:28:21Z</time>
      </trkpt>
      <trkpt lat="60.105755897349" lon="15.892127829898">
        <ele>422.8</ele>
        <time>2019-01-13T12:28:27Z</time>
      </trkpt>
      <trkpt lat="60.105963936107" lon="15.892121878749">
        <ele>422.2</ele>
        <time>2019-01-13T12:28:33Z</time>
      </trkpt>
      <trkpt lat="60.106166023716" lon="15.89214023511">
        <ele>422.2</ele>
        <time>2019-01-13T12:28:39Z</time>
      </trkpt>
      <trkpt lat="60.10637942689" lon="15.892179881497">
        <ele>422.4</ele>
        <time>2019-01-13T12:28:45Z</time>
      </trkpt>
      <trkpt lat="60.106532145108" lon="15.892285409618">
        <ele>423.2</ele>
        <time>2019-01-13T12:28:50Z</time>
      </trkpt>
      <trkpt lat="60.106740016228" lon="15.89237744288">
        <ele>423.2</ele>
        <time>2019-01-13T12:28:56Z</time>
      </trkpt>
      <trkpt lat="60.106953167945" lon="15.892469727599">
        <ele>422.8</ele>
        <time>2019-01-13T12:29:02Z</time>
      </trkpt>
      <trkpt lat="60.107179227788" lon="15.892510044538">
        <ele>422.4</ele>
        <time>2019-01-13T12:29:08Z</time>
      </trkpt>
      <trkpt lat="60.107408640391" lon="15.892494873299">
        <ele>422.4</ele>
        <time>2019-01-13T12:29:14Z</time>
      </trkpt>
      <trkpt lat="60.107514419969" lon="15.892482384268">
        <ele>422.2</ele>
        <time>2019-01-13T12:29:17Z</time>
      </trkpt>
      <trkpt lat="60.107721620537" lon="15.892476768395">
        <ele>422.2</ele>
        <time>2019-01-13T12:29:23Z</time>
      </trkpt>
      <trkpt lat="60.107941142498" lon="15.892479366784">
        <ele>422</ele>
        <time>2019-01-13T12:29:29Z</time>
      </trkpt>
      <trkpt lat="60.108128813239" lon="15.892463608812">
        <ele>422.8</ele>
        <time>2019-01-13T12:29:35Z</time>
      </trkpt>
      <trkpt lat="60.108201065217" lon="15.892461932432">
        <ele>423.4</ele>
        <time>2019-01-13T12:29:38Z</time>
      </trkpt>
      <trkpt lat="60.108342132594" lon="15.892458076758">
        <ele>423.8</ele>
        <time>2019-01-13T12:29:44Z</time>
      </trkpt>
      <trkpt lat="60.108411534726" lon="15.892460675147">
        <ele>424.4</ele>
        <time>2019-01-13T12:29:47Z</time>
      </trkpt>
      <trkpt lat="60.108587554626" lon="15.892456148921">
        <ele>424.8</ele>
        <time>2019-01-13T12:29:53Z</time>
      </trkpt>
      <trkpt lat="60.108683695019" lon="15.892450030134">
        <ele>425.4</ele>
        <time>2019-01-13T12:29:56Z</time>
      </trkpt>
      <trkpt lat="60.108890308854" lon="15.892440139492">
        <ele>424.8</ele>
        <time>2019-01-13T12:30:02Z</time>
      </trkpt>
      <trkpt lat="60.109102873838" lon="15.892450952143">
        <ele>425.4</ele>
        <time>2019-01-13T12:30:08Z</time>
      </trkpt>
      <trkpt lat="60.109322982532" lon="15.892517336791">
        <ele>424.2</ele>
        <time>2019-01-13T12:30:14Z</time>
      </trkpt>
      <trkpt lat="60.109438401295" lon="15.892578357023">
        <ele>422.8</ele>
        <time>2019-01-13T12:30:17Z</time>
      </trkpt>
      <trkpt lat="60.109695641806" lon="15.892615405021">
        <ele>422.6</ele>
        <time>2019-01-13T12:30:23Z</time>
      </trkpt>
      <trkpt lat="60.109742496627" lon="15.892605765836">
        <ele>422.6</ele>
        <time>2019-01-13T12:30:24Z</time>
      </trkpt>
      <trkpt lat="60.109864704729" lon="15.89253837536">
        <ele>423</ele>
        <time>2019-01-13T12:30:27Z</time>
      </trkpt>
      <trkpt lat="60.110089088192" lon="15.892409126462">
        <ele>422.8</ele>
        <time>2019-01-13T12:30:33Z</time>
      </trkpt>
      <trkpt lat="60.110276004562" lon="15.89261213608">
        <ele>422.4</ele>
        <time>2019-01-13T12:30:39Z</time>
      </trkpt>
      <trkpt lat="60.110378179923" lon="15.892995859462">
        <ele>422.6</ele>
        <time>2019-01-13T12:30:45Z</time>
      </trkpt>
      <trkpt lat="60.110465770778" lon="15.893357370809">
        <ele>423</ele>
        <time>2019-01-13T12:30:51Z</time>
      </trkpt>
      <trkpt lat="60.110570628347" lon="15.893714775025">
        <ele>422.8</ele>
        <time>2019-01-13T12:30:57Z</time>
      </trkpt>
      <trkpt lat="60.110691830621" lon="15.894048374645">
        <ele>422.8</ele>
        <time>2019-01-13T12:31:03Z</time>
      </trkpt>
      <trkpt lat="60.110810518325" lon="15.894398989522">
        <ele>422.2</ele>
        <time>2019-01-13T12:31:09Z</time>
      </trkpt>
      <trkpt lat="60.110947227114" lon="15.894712053487">
        <ele>422.8</ele>
        <time>2019-01-13T12:31:15Z</time>
      </trkpt>
      <trkpt lat="60.111109919793" lon="15.894975748061">
        <ele>422.2</ele>
        <time>2019-01-13T12:31:21Z</time>
      </trkpt>
      <trkpt lat="60.111285017684" lon="15.895117821266">
        <ele>422</ele>
        <time>2019-01-13T12:31:27Z</time>
      </trkpt>
      <trkpt lat="60.111388534149" lon="15.895151432685">
        <ele>421.8</ele>
        <time>2019-01-13T12:31:30Z</time>
      </trkpt>
      <trkpt lat="60.11159799783" lon="15.895149421029">
        <ele>422.2</ele>
        <time>2019-01-13T12:31:36Z</time>
      </trkpt>
      <trkpt lat="60.111797654688" lon="15.895108852633">
        <ele>422.4</ele>
        <time>2019-01-13T12:31:42Z</time>
      </trkpt>
      <trkpt lat="60.111951630191" lon="15.89510156038">
        <ele>422.4</ele>
        <time>2019-01-13T12:31:48Z</time>
      </trkpt>
      <trkpt lat="60.112113987594" lon="15.895032242067">
        <ele>422.4</ele>
        <time>2019-01-13T12:31:54Z</time>
      </trkpt>
      <trkpt lat="60.11229369553" lon="15.894949512714">
        <ele>422.6</ele>
        <time>2019-01-13T12:32:00Z</time>
      </trkpt>
      <trkpt lat="60.112472900552" lon="15.894917745313">
        <ele>422.4</ele>
        <time>2019-01-13T12:32:06Z</time>
      </trkpt>
      <trkpt lat="60.112686052269" lon="15.894818000703">
        <ele>422.4</ele>
        <time>2019-01-13T12:32:12Z</time>
      </trkpt>
      <trkpt lat="60.112845056912" lon="15.894549025532">
        <ele>422</ele>
        <time>2019-01-13T12:32:18Z</time>
      </trkpt>
      <trkpt lat="60.112928121541" lon="15.894204780899">
        <ele>422.2</ele>
        <time>2019-01-13T12:32:24Z</time>
      </trkpt>
      <trkpt lat="60.112976736561" lon="15.893775376162">
        <ele>422.4</ele>
        <time>2019-01-13T12:32:30Z</time>
      </trkpt>
      <trkpt lat="60.113059214457" lon="15.893400453775">
        <ele>422.2</ele>
        <time>2019-01-13T12:32:36Z</time>
      </trkpt>
      <trkpt lat="60.113150241891" lon="15.893030309071">
        <ele>422.2</ele>
        <time>2019-01-13T12:32:42Z</time>
      </trkpt>
      <trkpt lat="60.113277143857" lon="15.892671982846">
        <ele>422</ele>
        <time>2019-01-13T12:32:48Z</time>
      </trkpt>
      <trkpt lat="60.113380157408" lon="15.89229865302">
        <ele>422.6</ele>
        <time>2019-01-13T12:32:54Z</time>
      </trkpt>
      <trkpt lat="60.113481326941" lon="15.891939404786">
        <ele>422.8</ele>
        <time>2019-01-13T12:33:00Z</time>
      </trkpt>
      <trkpt lat="60.113575790954" lon="15.891567583702">
        <ele>422.4</ele>
        <time>2019-01-13T12:33:06Z</time>
      </trkpt>
      <trkpt lat="60.113673020994" lon="15.891274217202">
        <ele>422.4</ele>
        <time>2019-01-13T12:33:12Z</time>
      </trkpt>
      <trkpt lat="60.113812914905" lon="15.891073638335">
        <ele>422.6</ele>
        <time>2019-01-13T12:33:18Z</time>
      </trkpt>
      <trkpt lat="60.11385608169" lon="15.89101538413">
        <ele>423</ele>
        <time>2019-01-13T12:33:20Z</time>
      </trkpt>
      <trkpt lat="60.114005530967" lon="15.89078655826">
        <ele>423.2</ele>
        <time>2019-01-13T12:33:26Z</time>
      </trkpt>
      <trkpt lat="60.114193536984" lon="15.890561336607">
        <ele>423</ele>
        <time>2019-01-13T12:33:32Z</time>
      </trkpt>
      <trkpt lat="60.114347931582" lon="15.890352794935">
        <ele>423.2</ele>
        <time>2019-01-13T12:33:38Z</time>
      </trkpt>
      <trkpt lat="60.1145425593" lon="15.890166465298">
        <ele>422.4</ele>
        <time>2019-01-13T12:33:44Z</time>
      </trkpt>
      <trkpt lat="60.114743221986" lon="15.889991367407">
        <ele>422.8</ele>
        <time>2019-01-13T12:33:50Z</time>
      </trkpt>
      <trkpt lat="60.114915134755" lon="15.88986203469">
        <ele>423.4</ele>
        <time>2019-01-13T12:33:56Z</time>
      </trkpt>
      <trkpt lat="60.115083862402" lon="15.889669502447">
        <ele>423.8</ele>
        <time>2019-01-13T12:34:02Z</time>
      </trkpt>
      <trkpt lat="60.115143876806" lon="15.889587527465">
        <ele>423.6</ele>
        <time>2019-01-13T12:34:04Z</time>
      </trkpt>
      <trkpt lat="60.115299696327" lon="15.889276726613">
        <ele>423</ele>
        <time>2019-01-13T12:34:10Z</time>
      </trkpt>
      <trkpt lat="60.115424167542" lon="15.888909347936">
        <ele>423</ele>
        <time>2019-01-13T12:34:16Z</time>
      </trkpt>
      <trkpt lat="60.115529528025" lon="15.888576083592">
        <ele>423.4</ele>
        <time>2019-01-13T12:34:22Z</time>
      </trkpt>
      <trkpt lat="60.115613933758" lon="15.888279112875">
        <ele>423.6</ele>
        <time>2019-01-13T12:34:28Z</time>
      </trkpt>
      <trkpt lat="60.115732118548" lon="15.888005108564">
        <ele>423.6</ele>
        <time>2019-01-13T12:34:34Z</time>
      </trkpt>
      <trkpt lat="60.115882657472" lon="15.887708976037">
        <ele>423.8</ele>
        <time>2019-01-13T12:34:40Z</time>
      </trkpt>
      <trkpt lat="60.115900510919" lon="15.887669078193">
        <ele>424</ele>
        <time>2019-01-13T12:34:41Z</time>
      </trkpt>
      <trkpt lat="60.116019952994" lon="15.887552402145">
        <ele>425</ele>
        <time>2019-01-13T12:34:47Z</time>
      </trkpt>
      <trkpt lat="60.116161020371" lon="15.887508145713">
        <ele>425.4</ele>
        <time>2019-01-13T12:34:53Z</time>
      </trkpt>
      <trkpt lat="60.116313151856" lon="15.887534464879">
        <ele>426</ele>
        <time>2019-01-13T12:34:59Z</time>
      </trkpt>
      <trkpt lat="60.116504091538" lon="15.887603867011">
        <ele>425.8</ele>
        <time>2019-01-13T12:35:05Z</time>
      </trkpt>
      <trkpt lat="60.116694612125" lon="15.887481155995">
        <ele>425.6</ele>
        <time>2019-01-13T12:35:11Z</time>
      </trkpt>
      <trkpt lat="60.116846073058" lon="15.887273871608">
        <ele>425.8</ele>
        <time>2019-01-13T12:35:17Z</time>
      </trkpt>
      <trkpt lat="60.116921091063" lon="15.886995592528">
        <ele>426.4</ele>
        <time>2019-01-13T12:35:23Z</time>
      </trkpt>
      <trkpt lat="60.116983955313" lon="15.88690741494">
        <ele>426.6</ele>
        <time>2019-01-13T12:35:26Z</time>
      </trkpt>
      <trkpt lat="60.117072971091" lon="15.886779004232">
        <ele>427.2</ele>
        <time>2019-01-13T12:35:30Z</time>
      </trkpt>
      <trkpt lat="60.117223426196" lon="15.886560320461">
        <ele>427</ele>
        <time>2019-01-13T12:35:36Z</time>
      </trkpt>
      <trkpt lat="60.117402212123" lon="15.886304840149">
        <ele>426.6</ele>
        <time>2019-01-13T12:35:42Z</time>
      </trkpt>
      <trkpt lat="60.117566413544" lon="15.886025806698">
        <ele>426.8</ele>
        <time>2019-01-13T12:35:48Z</time>
      </trkpt>
      <trkpt lat="60.117707983835" lon="15.885773595327">
        <ele>427</ele>
        <time>2019-01-13T12:35:54Z</time>
      </trkpt>
      <trkpt lat="60.117831784498" lon="15.885524820535">
        <ele>427</ele>
        <time>2019-01-13T12:36:00Z</time>
      </trkpt>
      <trkpt lat="60.117976959006" lon="15.885256767373">
        <ele>427.2</ele>
        <time>2019-01-13T12:36:06Z</time>
      </trkpt>
      <trkpt lat="60.118120457134" lon="15.885014865739">
        <ele>427.2</ele>
        <time>2019-01-13T12:36:12Z</time>
      </trkpt>
      <trkpt lat="60.118250292765" lon="15.88473231189">
        <ele>427.4</ele>
        <time>2019-01-13T12:36:18Z</time>
      </trkpt>
      <trkpt lat="60.118361520578" lon="15.884565847356">
        <ele>428.2</ele>
        <time>2019-01-13T12:36:23Z</time>
      </trkpt>
      <trkpt lat="60.118457912428" lon="15.884290837217">
        <ele>428.8</ele>
        <time>2019-01-13T12:36:29Z</time>
      </trkpt>
      <trkpt lat="60.118567882956" lon="15.883971822103">
        <ele>429</ele>
        <time>2019-01-13T12:36:35Z</time>
      </trkpt>
      <trkpt lat="60.118686151565" lon="15.883738721464">
        <ele>429.2</ele>
        <time>2019-01-13T12:36:40Z</time>
      </trkpt>
      <trkpt lat="60.118838618326" lon="15.883505620825">
        <ele>429.2</ele>
        <time>2019-01-13T12:36:46Z</time>
      </trkpt>
      <trkpt lat="60.119019164452" lon="15.883332869866">
        <ele>429.4</ele>
        <time>2019-01-13T12:36:52Z</time>
      </trkpt>
      <trkpt lat="60.119176408896" lon="15.883059871383">
        <ele>429.8</ele>
        <time>2019-01-13T12:36:58Z</time>
      </trkpt>
      <trkpt lat="60.119302388853" lon="15.882781089389">
        <ele>429.4</ele>
        <time>2019-01-13T12:37:04Z</time>
      </trkpt>
      <trkpt lat="60.119480001314" lon="15.88251194658">
        <ele>429.4</ele>
        <time>2019-01-13T12:37:10Z</time>
      </trkpt>
      <trkpt lat="60.119623918537" lon="15.882250263662">
        <ele>429.2</ele>
        <time>2019-01-13T12:37:16Z</time>
      </trkpt>
      <trkpt lat="60.119651746445" lon="15.882169881241">
        <ele>429.2</ele>
        <time>2019-01-13T12:37:18Z</time>
      </trkpt>
      <trkpt lat="60.119799184066" lon="15.881913143644">
        <ele>429.4</ele>
        <time>2019-01-13T12:37:24Z</time>
      </trkpt>
      <trkpt lat="60.119963553125" lon="15.88167124201">
        <ele>429.4</ele>
        <time>2019-01-13T12:37:30Z</time>
      </trkpt>
      <trkpt lat="60.120085090675" lon="15.881431854946">
        <ele>429.8</ele>
        <time>2019-01-13T12:37:36Z</time>
      </trkpt>
      <trkpt lat="60.120210148623" lon="15.881151228934">
        <ele>430</ele>
        <time>2019-01-13T12:37:42Z</time>
      </trkpt>
      <trkpt lat="60.120348617611" lon="15.880946710574">
        <ele>430.4</ele>
        <time>2019-01-13T12:37:47Z</time>
      </trkpt>
      <trkpt lat="60.120426904557" lon="15.880691146443">
        <ele>431.2</ele>
        <time>2019-01-13T12:37:53Z</time>
      </trkpt>
      <trkpt lat="60.120430592593" lon="15.880652086789">
        <ele>431.4</ele>
        <time>2019-01-13T12:37:54Z</time>
      </trkpt>
      <trkpt lat="60.120535450162" lon="15.880455279777">
        <ele>432</ele>
        <time>2019-01-13T12:38:00Z</time>
      </trkpt>
      <trkpt lat="60.120666626897" lon="15.880208265184">
        <ele>432.2</ele>
        <time>2019-01-13T12:38:06Z</time>
      </trkpt>
      <trkpt lat="60.120832169422" lon="15.879925795154">
        <ele>430.8</ele>
        <time>2019-01-13T12:38:12Z</time>
      </trkpt>
      <trkpt lat="60.121030736633" lon="15.879655981793">
        <ele>430.8</ele>
        <time>2019-01-13T12:38:18Z</time>
      </trkpt>
      <trkpt lat="60.121173061295" lon="15.879288351659">
        <ele>431.4</ele>
        <time>2019-01-13T12:38:24Z</time>
      </trkpt>
      <trkpt lat="60.121218323555" lon="15.87884654171">
        <ele>430.4</ele>
        <time>2019-01-13T12:38:30Z</time>
      </trkpt>
      <trkpt lat="60.121233327156" lon="15.878401211363">
        <ele>430.2</ele>
        <time>2019-01-13T12:38:36Z</time>
      </trkpt>
      <trkpt lat="60.12131261993" lon="15.877999634534">
        <ele>430.6</ele>
        <time>2019-01-13T12:38:42Z</time>
      </trkpt>
      <trkpt lat="60.121437845516" lon="15.877655976634">
        <ele>430.2</ele>
        <time>2019-01-13T12:38:48Z</time>
      </trkpt>
      <trkpt lat="60.121582768567" lon="15.877351881302">
        <ele>430.4</ele>
        <time>2019-01-13T12:38:54Z</time>
      </trkpt>
      <trkpt lat="60.121718220071" lon="15.877087599995">
        <ele>430.8</ele>
        <time>2019-01-13T12:39:00Z</time>
      </trkpt>
      <trkpt lat="60.121817461767" lon="15.876709492486">
        <ele>430.6</ele>
        <time>2019-01-13T12:39:06Z</time>
      </trkpt>
      <trkpt lat="60.121899520568" lon="15.876324679457">
        <ele>429.8</ele>
        <time>2019-01-13T12:39:12Z</time>
      </trkpt>
      <trkpt lat="60.121950063425" lon="15.875945817577">
        <ele>430</ele>
        <time>2019-01-13T12:39:18Z</time>
      </trkpt>
      <trkpt lat="60.122005300146" lon="15.875561423643">
        <ele>430.6</ele>
        <time>2019-01-13T12:39:24Z</time>
      </trkpt>
      <trkpt lat="60.122095908485" lon="15.875168647809">
        <ele>430.6</ele>
        <time>2019-01-13T12:39:30Z</time>
      </trkpt>
      <trkpt lat="60.122201017511" lon="15.874815937457">
        <ele>430</ele>
        <time>2019-01-13T12:39:36Z</time>
      </trkpt>
      <trkpt lat="60.122260193725" lon="15.874430370057">
        <ele>430.4</ele>
        <time>2019-01-13T12:39:42Z</time>
      </trkpt>
      <trkpt lat="60.12230671327" lon="15.874107583088">
        <ele>430.4</ele>
        <time>2019-01-13T12:39:48Z</time>
      </trkpt>
      <trkpt lat="60.122292715497" lon="15.873871716422">
        <ele>431.6</ele>
        <time>2019-01-13T12:39:54Z</time>
      </trkpt>
      <trkpt lat="60.122278382448" lon="15.873739701497">
        <ele>432</ele>
        <time>2019-01-13T12:39:57Z</time>
      </trkpt>
      <trkpt lat="60.122209902325" lon="15.87338992481">
        <ele>431.8</ele>
        <time>2019-01-13T12:40:03Z</time>
      </trkpt>
      <trkpt lat="60.122160449115" lon="15.873112819196">
        <ele>430.6</ele>
        <time>2019-01-13T12:40:07Z</time>
      </trkpt>
      <trkpt lat="60.122124323126" lon="15.872688108323">
        <ele>431.6</ele>
        <time>2019-01-13T12:40:13Z</time>
      </trkpt>
      <trkpt lat="60.122124155488" lon="15.872513932441">
        <ele>431.6</ele>
        <time>2019-01-13T12:40:16Z</time>
      </trkpt>
      <trkpt lat="60.122135135777" lon="15.872188295626">
        <ele>432</ele>
        <time>2019-01-13T12:40:22Z</time>
      </trkpt>
      <trkpt lat="60.12214661898" lon="15.871993751727">
        <ele>432.8</ele>
        <time>2019-01-13T12:40:26Z</time>
      </trkpt>
      <trkpt lat="60.122153073043" lon="15.871855785653">
        <ele>433.4</ele>
        <time>2019-01-13T12:40:29Z</time>
      </trkpt>
      <trkpt lat="60.122193809077" lon="15.871653111311">
        <ele>433.6</ele>
        <time>2019-01-13T12:40:35Z</time>
      </trkpt>
      <trkpt lat="60.12219858676" lon="15.871585720835">
        <ele>434</ele>
        <time>2019-01-13T12:40:37Z</time>
      </trkpt>
      <trkpt lat="60.122229180695" lon="15.871424788355">
        <ele>435</ele>
        <time>2019-01-13T12:40:41Z</time>
      </trkpt>
      <trkpt lat="60.122294643334" lon="15.871090602002">
        <ele>435.2</ele>
        <time>2019-01-13T12:40:47Z</time>
      </trkpt>
      <trkpt lat="60.122293134592" lon="15.870771000155">
        <ele>435.4</ele>
        <time>2019-01-13T12:40:53Z</time>
      </trkpt>
      <trkpt lat="60.122261199553" lon="15.870434550689">
        <ele>435.2</ele>
        <time>2019-01-13T12:40:59Z</time>
      </trkpt>
      <trkpt lat="60.122233455464" lon="15.870097849766">
        <ele>435.4</ele>
        <time>2019-01-13T12:41:05Z</time>
      </trkpt>
      <trkpt lat="60.122196826561" lon="15.86972368175">
        <ele>435.8</ele>
        <time>2019-01-13T12:41:11Z</time>
      </trkpt>
      <trkpt lat="60.122197329475" lon="15.869611112833">
        <ele>436</ele>
        <time>2019-01-13T12:41:13Z</time>
      </trkpt>
      <trkpt lat="60.122202190977" lon="15.869520504494">
        <ele>435.8</ele>
        <time>2019-01-13T12:41:18Z</time>
      </trkpt>
      <trkpt lat="60.122206298108" lon="15.869550763153">
        <ele>435.8</ele>
        <time>2019-01-13T12:41:24Z</time>
      </trkpt>
      <trkpt lat="60.122213422723" lon="15.869535340457">
        <ele>435.8</ele>
        <time>2019-01-13T12:41:26Z</time>
      </trkpt>
      <trkpt lat="60.122222139899" lon="15.869500639391">
        <ele>435.8</ele>
        <time>2019-01-13T12:41:28Z</time>
      </trkpt>
      <trkpt lat="60.122251476549" lon="15.869263431621">
        <ele>436.2</ele>
        <time>2019-01-13T12:41:34Z</time>
      </trkpt>
      <trkpt lat="60.122268910901" lon="15.868874930556">
        <ele>436</ele>
        <time>2019-01-13T12:41:40Z</time>
      </trkpt>
      <trkpt lat="60.122237478776" lon="15.868495565762">
        <ele>436</ele>
        <time>2019-01-13T12:41:46Z</time>
      </trkpt>
      <trkpt lat="60.122139494365" lon="15.868170599499">
        <ele>436.2</ele>
        <time>2019-01-13T12:41:52Z</time>
      </trkpt>
      <trkpt lat="60.122069589319" lon="15.867836999879">
        <ele>436.2</ele>
        <time>2019-01-13T12:41:58Z</time>
      </trkpt>
      <trkpt lat="60.122065482188" lon="15.867787379031">
        <ele>436.2</ele>
        <time>2019-01-13T12:41:59Z</time>
      </trkpt>
      <trkpt lat="60.122080150513" lon="15.867376163017">
        <ele>436</ele>
        <time>2019-01-13T12:42:05Z</time>
      </trkpt>
      <trkpt lat="60.122084425282" lon="15.866900909287">
        <ele>435.6</ele>
        <time>2019-01-13T12:42:11Z</time>
      </trkpt>
      <trkpt lat="60.122022902136" lon="15.866635119238">
        <ele>435</ele>
        <time>2019-01-13T12:42:15Z</time>
      </trkpt>
      <trkpt lat="60.121870603013" lon="15.86650503215">
        <ele>434.2</ele>
        <time>2019-01-13T12:42:21Z</time>
      </trkpt>
      <trkpt lat="60.121767338005" lon="15.866508720186">
        <ele>434.8</ele>
        <time>2019-01-13T12:42:27Z</time>
      </trkpt>
      <trkpt lat="60.121706485411" lon="15.866517605">
        <ele>436</ele>
        <time>2019-01-13T12:42:33Z</time>
      </trkpt>
      <trkpt lat="60.121652422156" lon="15.866485250866">
        <ele>437</ele>
        <time>2019-01-13T12:42:39Z</time>
      </trkpt>
      <trkpt lat="60.121644040256" lon="15.866480389364">
        <ele>437.2</ele>
        <time>2019-01-13T12:42:40Z</time>
      </trkpt>
      <trkpt lat="60.121611518484" lon="15.866464631392">
        <ele>437.8</ele>
        <time>2019-01-13T12:42:44Z</time>
      </trkpt>
      <trkpt lat="60.121570447174" lon="15.866452393818">
        <ele>438.2</ele>
        <time>2019-01-13T12:42:48Z</time>
      </trkpt>
      <trkpt lat="60.12155904779" lon="15.866459099338">
        <ele>438.2</ele>
        <time>2019-01-13T12:42:49Z</time>
      </trkpt>
      <trkpt lat="60.121508002019" lon="15.866451974723">
        <ele>439</ele>
        <time>2019-01-13T12:42:53Z</time>
      </trkpt>
      <trkpt lat="60.121448909624" lon="15.866463374107">
        <ele>439.2</ele>
        <time>2019-01-13T12:42:57Z</time>
      </trkpt>
      <trkpt lat="60.121363498063" lon="15.866494470956">
        <ele>440</ele>
        <time>2019-01-13T12:43:03Z</time>
      </trkpt>
      <trkpt lat="60.121322175296" lon="15.866512994955">
        <ele>440.4</ele>
        <time>2019-01-13T12:43:06Z</time>
      </trkpt>
      <trkpt lat="60.121245229454" lon="15.866533865886">
        <ele>441</ele>
        <time>2019-01-13T12:43:11Z</time>
      </trkpt>
      <trkpt lat="60.1212145517" lon="15.866536548094">
        <ele>441.4</ele>
        <time>2019-01-13T12:43:13Z</time>
      </trkpt>
      <trkpt lat="60.12117599496" lon="15.866541241958">
        <ele>442</ele>
        <time>2019-01-13T12:43:18Z</time>
      </trkpt>
      <trkpt lat="60.121156297495" lon="15.866542834519">
        <ele>442.4</ele>
        <time>2019-01-13T12:43:22Z</time>
      </trkpt>
      <trkpt lat="60.121148586147" lon="15.866541828691">
        <ele>442.4</ele>
        <time>2019-01-13T12:43:24Z</time>
      </trkpt>
      <trkpt lat="60.121131319433" lon="15.86653520699">
        <ele>442.6</ele>
        <time>2019-01-13T12:43:26Z</time>
      </trkpt>
      <trkpt lat="60.121082285318" lon="15.866497823716">
        <ele>443.4</ele>
        <time>2019-01-13T12:43:32Z</time>
      </trkpt>
      <trkpt lat="60.121067114079" lon="15.866486508151">
        <ele>443.6</ele>
        <time>2019-01-13T12:43:33Z</time>
      </trkpt>
      <trkpt lat="60.121041214008" lon="15.866478796803">
        <ele>443.8</ele>
        <time>2019-01-13T12:43:35Z</time>
      </trkpt>
      <trkpt lat="60.121005926209" lon="15.866469995808">
        <ele>444.4</ele>
        <time>2019-01-13T12:43:40Z</time>
      </trkpt>
      <trkpt lat="60.120990084418" lon="15.866460021347">
        <ele>444.6</ele>
        <time>2019-01-13T12:43:41Z</time>
      </trkpt>
      <trkpt lat="60.120957395008" lon="15.866440826796">
        <ele>445</ele>
        <time>2019-01-13T12:43:43Z</time>
      </trkpt>
      <trkpt lat="60.120919341182" lon="15.86639522926">
        <ele>445.6</ele>
        <time>2019-01-13T12:43:49Z</time>
      </trkpt>
      <trkpt lat="60.120910540187" lon="15.866391457405">
        <ele>445.6</ele>
        <time>2019-01-13T12:43:50Z</time>
      </trkpt>
      <trkpt lat="60.120900398088" lon="15.866387769369">
        <ele>446</ele>
        <time>2019-01-13T12:43:51Z</time>
      </trkpt>
      <trkpt lat="60.120877012587" lon="15.866376286166">
        <ele>446.4</ele>
        <time>2019-01-13T12:43:53Z</time>
      </trkpt>
      <trkpt lat="60.120854800552" lon="15.866365473515">
        <ele>446.8</ele>
        <time>2019-01-13T12:43:55Z</time>
      </trkpt>
      <trkpt lat="60.120797300718" lon="15.86635415795">
        <ele>447.6</ele>
        <time>2019-01-13T12:44:01Z</time>
      </trkpt>
      <trkpt lat="60.120769556629" lon="15.866368574818">
        <ele>448</ele>
        <time>2019-01-13T12:44:04Z</time>
      </trkpt>
      <trkpt lat="60.120737789228" lon="15.866391373586">
        <ele>448.2</ele>
        <time>2019-01-13T12:44:07Z</time>
      </trkpt>
      <trkpt lat="60.12071331408" lon="15.866396402726">
        <ele>449</ele>
        <time>2019-01-13T12:44:09Z</time>
      </trkpt>
      <trkpt lat="60.120659502282" lon="15.866438060769">
        <ele>450.2</ele>
        <time>2019-01-13T12:44:14Z</time>
      </trkpt>
      <trkpt lat="60.120605858122" lon="15.866496901707">
        <ele>450.8</ele>
        <time>2019-01-13T12:44:20Z</time>
      </trkpt>
      <trkpt lat="60.120584651915" lon="15.866504445417">
        <ele>451.4</ele>
        <time>2019-01-13T12:44:22Z</time>
      </trkpt>
      <trkpt lat="60.120524888968" lon="15.866543337433">
        <ele>452.2</ele>
        <time>2019-01-13T12:44:28Z</time>
      </trkpt>
      <trkpt lat="60.120513154308" lon="15.866542666881">
        <ele>452.4</ele>
        <time>2019-01-13T12:44:29Z</time>
      </trkpt>
      <trkpt lat="60.120466970039" lon="15.866552054609">
        <ele>453.2</ele>
        <time>2019-01-13T12:44:35Z</time>
      </trkpt>
      <trkpt lat="60.120449200411" lon="15.86654861803">
        <ele>453.6</ele>
        <time>2019-01-13T12:44:37Z</time>
      </trkpt>
      <trkpt lat="60.120425228177" lon="15.866563286355">
        <ele>454</ele>
        <time>2019-01-13T12:44:40Z</time>
      </trkpt>
      <trkpt lat="60.120377451347" lon="15.866595808127">
        <ele>454.8</ele>
        <time>2019-01-13T12:44:44Z</time>
      </trkpt>
      <trkpt lat="60.120320957341" lon="15.866620953827">
        <ele>455.8</ele>
        <time>2019-01-13T12:44:50Z</time>
      </trkpt>
      <trkpt lat="60.120267229362" lon="15.866680465317">
        <ele>456.6</ele>
        <time>2019-01-13T12:44:56Z</time>
      </trkpt>
      <trkpt lat="60.120261026756" lon="15.8666936249">
        <ele>456.8</ele>
        <time>2019-01-13T12:44:57Z</time>
      </trkpt>
      <trkpt lat="60.120213082288" lon="15.866757662616">
        <ele>457.6</ele>
        <time>2019-01-13T12:45:03Z</time>
      </trkpt>
      <trkpt lat="60.120196402307" lon="15.866782892135">
        <ele>458</ele>
        <time>2019-01-13T12:45:05Z</time>
      </trkpt>
      <trkpt lat="60.120153235522" lon="15.866821197418">
        <ele>459.2</ele>
        <time>2019-01-13T12:45:10Z</time>
      </trkpt>
      <trkpt lat="60.120107973262" lon="15.866899232907">
        <ele>459.8</ele>
        <time>2019-01-13T12:45:16Z</time>
      </trkpt>
      <trkpt lat="60.120090706548" lon="15.866912811585">
        <ele>460.2</ele>
        <time>2019-01-13T12:45:18Z</time>
      </trkpt>
      <trkpt lat="60.120054245283" lon="15.86696855122">
        <ele>461</ele>
        <time>2019-01-13T12:45:24Z</time>
      </trkpt>
      <trkpt lat="60.120034212542" lon="15.866987159038">
        <ele>461.2</ele>
        <time>2019-01-13T12:45:26Z</time>
      </trkpt>
      <trkpt lat="60.119970845378" lon="15.867026805425">
        <ele>462.2</ele>
        <time>2019-01-13T12:45:32Z</time>
      </trkpt>
      <trkpt lat="60.119940754357" lon="15.867043736863">
        <ele>462.4</ele>
        <time>2019-01-13T12:45:34Z</time>
      </trkpt>
      <trkpt lat="60.119843189041" lon="15.867178433996">
        <ele>463.2</ele>
        <time>2019-01-13T12:45:40Z</time>
      </trkpt>
      <trkpt lat="60.119804129387" lon="15.867225540274">
        <ele>463.4</ele>
        <time>2019-01-13T12:45:42Z</time>
      </trkpt>
      <trkpt lat="60.119680580181" lon="15.867339450295">
        <ele>463.8</ele>
        <time>2019-01-13T12:45:48Z</time>
      </trkpt>
      <trkpt lat="60.119505817566" lon="15.867352693697">
        <ele>462.6</ele>
        <time>2019-01-13T12:45:54Z</time>
      </trkpt>
      <trkpt lat="60.119377406858" lon="15.867356130276">
        <ele>463.2</ele>
        <time>2019-01-13T12:46:00Z</time>
      </trkpt>
      <trkpt lat="60.119244134648" lon="15.867354705353">
        <ele>463.4</ele>
        <time>2019-01-13T12:46:06Z</time>
      </trkpt>
      <trkpt lat="60.119115556302" lon="15.867329392015">
        <ele>464</ele>
        <time>2019-01-13T12:46:12Z</time>
      </trkpt>
      <trkpt lat="60.119083285987" lon="15.867335846078">
        <ele>464.8</ele>
        <time>2019-01-13T12:46:14Z</time>
      </trkpt>
      <trkpt lat="60.119041292668" lon="15.867352274602">
        <ele>465.8</ele>
        <time>2019-01-13T12:46:17Z</time>
      </trkpt>
      <trkpt lat="60.118965771749" lon="15.867440703647">
        <ele>466</ele>
        <time>2019-01-13T12:46:23Z</time>
      </trkpt>
      <trkpt lat="60.118907433725" lon="15.867543884836">
        <ele>467</ele>
        <time>2019-01-13T12:46:28Z</time>
      </trkpt>
      <trkpt lat="60.118850772081" lon="15.867678246693">
        <ele>468</ele>
        <time>2019-01-13T12:46:34Z</time>
      </trkpt>
      <trkpt lat="60.118782543415" lon="15.867821409545">
        <ele>468.8</ele>
        <time>2019-01-13T12:46:40Z</time>
      </trkpt>
      <trkpt lat="60.118769467651" lon="15.86787631099">
        <ele>469.2</ele>
        <time>2019-01-13T12:46:42Z</time>
      </trkpt>
      <trkpt lat="60.118678104941" lon="15.868001285119">
        <ele>469.6</ele>
        <time>2019-01-13T12:46:48Z</time>
      </trkpt>
      <trkpt lat="60.118600907642" lon="15.868167079101">
        <ele>470</ele>
        <time>2019-01-13T12:46:54Z</time>
      </trkpt>
      <trkpt lat="60.118555980658" lon="15.868280150932">
        <ele>470.2</ele>
        <time>2019-01-13T12:46:57Z</time>
      </trkpt>
      <trkpt lat="60.118490266562" lon="15.868500008169">
        <ele>471</ele>
        <time>2019-01-13T12:47:03Z</time>
      </trkpt>
      <trkpt lat="60.118421786439" lon="15.868625233755">
        <ele>471.4</ele>
        <time>2019-01-13T12:47:07Z</time>
      </trkpt>
      <trkpt lat="60.118376105084" lon="15.868783986941">
        <ele>472.4</ele>
        <time>2019-01-13T12:47:12Z</time>
      </trkpt>
      <trkpt lat="60.118337548344" lon="15.869020021245">
        <ele>473.4</ele>
        <time>2019-01-13T12:47:18Z</time>
      </trkpt>
      <trkpt lat="60.118314330481" lon="15.869309783528">
        <ele>474.4</ele>
        <time>2019-01-13T12:47:27Z</time>
      </trkpt>
      <trkpt lat="60.118284993831" lon="15.869500220296">
        <ele>475.6</ele>
        <time>2019-01-13T12:47:33Z</time>
      </trkpt>
      <trkpt lat="60.118234534793" lon="15.869618991819">
        <ele>475.8</ele>
        <time>2019-01-13T12:47:39Z</time>
      </trkpt>
      <trkpt lat="60.118216010794" lon="15.869638270189">
        <ele>476.2</ele>
        <time>2019-01-13T12:47:42Z</time>
      </trkpt>
      <trkpt lat="60.118199498451" lon="15.869657213283">
        <ele>476.8</ele>
        <time>2019-01-13T12:47:44Z</time>
      </trkpt>
      <trkpt lat="60.118177705511" lon="15.869679341499">
        <ele>477</ele>
        <time>2019-01-13T12:47:46Z</time>
      </trkpt>
      <trkpt lat="60.118128168482" lon="15.869703313733">
        <ele>477.6</ele>
        <time>2019-01-13T12:47:52Z</time>
      </trkpt>
      <trkpt lat="60.118116350003" lon="15.869708426692">
        <ele>477.8</ele>
        <time>2019-01-13T12:47:53Z</time>
      </trkpt>
      <trkpt lat="60.118085253154" lon="15.869744720319">
        <ele>478.4</ele>
        <time>2019-01-13T12:47:56Z</time>
      </trkpt>
      <trkpt lat="60.118057425246" lon="15.869776990634">
        <ele>479</ele>
        <time>2019-01-13T12:47:59Z</time>
      </trkpt>
      <trkpt lat="60.118034961754" lon="15.869809512406">
        <ele>479.4</ele>
        <time>2019-01-13T12:48:03Z</time>
      </trkpt>
      <trkpt lat="60.117979725033" lon="15.869851338087">
        <ele>479.6</ele>
        <time>2019-01-13T12:48:08Z</time>
      </trkpt>
      <trkpt lat="60.117953657324" lon="15.869877824891">
        <ele>480</ele>
        <time>2019-01-13T12:48:10Z</time>
      </trkpt>
      <trkpt lat="60.117908981797" lon="15.870069099849">
        <ele>481</ele>
        <time>2019-01-13T12:48:16Z</time>
      </trkpt>
      <trkpt lat="60.117901521906" lon="15.870102795087">
        <ele>481.2</ele>
        <time>2019-01-13T12:48:17Z</time>
      </trkpt>
      <trkpt lat="60.117831700679" lon="15.870310833845">
        <ele>482.2</ele>
        <time>2019-01-13T12:48:23Z</time>
      </trkpt>
      <trkpt lat="60.117822480589" lon="15.870345702549">
        <ele>482.2</ele>
        <time>2019-01-13T12:48:24Z</time>
      </trkpt>
      <trkpt lat="60.117752240267" lon="15.870540665543">
        <ele>482.8</ele>
        <time>2019-01-13T12:48:30Z</time>
      </trkpt>
      <trkpt lat="60.117673953321" lon="15.870657928324">
        <ele>483.4</ele>
        <time>2019-01-13T12:48:35Z</time>
      </trkpt>
      <trkpt lat="60.117604551189" lon="15.870789188878">
        <ele>484.4</ele>
        <time>2019-01-13T12:48:40Z</time>
      </trkpt>
      <trkpt lat="60.117528359718" lon="15.870962275113">
        <ele>485.6</ele>
        <time>2019-01-13T12:48:46Z</time>
      </trkpt>
      <trkpt lat="60.117465495468" lon="15.871097810436">
        <ele>486.4</ele>
        <time>2019-01-13T12:48:52Z</time>
      </trkpt>
      <trkpt lat="60.117425597624" lon="15.871209373525">
        <ele>486.8</ele>
        <time>2019-01-13T12:48:56Z</time>
      </trkpt>
      <trkpt lat="60.117314872725" lon="15.871407689279">
        <ele>487.2</ele>
        <time>2019-01-13T12:49:02Z</time>
      </trkpt>
      <trkpt lat="60.117195849745" lon="15.871574321451">
        <ele>487.4</ele>
        <time>2019-01-13T12:49:08Z</time>
      </trkpt>
      <trkpt lat="60.117112030745" lon="15.871673144052">
        <ele>487.8</ele>
        <time>2019-01-13T12:49:12Z</time>
      </trkpt>
      <trkpt lat="60.116984625865" lon="15.871815971628">
        <ele>488.4</ele>
        <time>2019-01-13T12:49:18Z</time>
      </trkpt>
      <trkpt lat="60.116949505704" lon="15.871857210576">
        <ele>488.8</ele>
        <time>2019-01-13T12:49:20Z</time>
      </trkpt>
      <trkpt lat="60.116865099971" lon="15.871937090083">
        <ele>489.4</ele>
        <time>2019-01-13T12:49:26Z</time>
      </trkpt>
      <trkpt lat="60.116833081113" lon="15.87199266208">
        <ele>489.8</ele>
        <time>2019-01-13T12:49:29Z</time>
      </trkpt>
      <trkpt lat="60.116797374219" lon="15.872035074494">
        <ele>490.4</ele>
        <time>2019-01-13T12:49:32Z</time>
      </trkpt>
      <trkpt lat="60.116697210514" lon="15.872145045022">
        <ele>490.8</ele>
        <time>2019-01-13T12:49:38Z</time>
      </trkpt>
      <trkpt lat="60.116583971045" lon="15.872287956417">
        <ele>491</ele>
        <time>2019-01-13T12:49:44Z</time>
      </trkpt>
      <trkpt lat="60.116432761569" lon="15.872504293256">
        <ele>491.6</ele>
        <time>2019-01-13T12:49:50Z</time>
      </trkpt>
      <trkpt lat="60.116302339205" lon="15.872564223841">
        <ele>491.8</ele>
        <time>2019-01-13T12:49:56Z</time>
      </trkpt>
      <trkpt lat="60.116273673107" lon="15.87255173481">
        <ele>492</ele>
        <time>2019-01-13T12:49:58Z</time>
      </trkpt>
      <trkpt lat="60.116188596822" lon="15.872533462268">
        <ele>493</ele>
        <time>2019-01-13T12:50:03Z</time>
      </trkpt>
      <trkpt lat="60.116040656287" lon="15.872483757601">
        <ele>493.2</ele>
        <time>2019-01-13T12:50:09Z</time>
      </trkpt>
      <trkpt lat="60.115871509545" lon="15.87244947563">
        <ele>491.8</ele>
        <time>2019-01-13T12:50:14Z</time>
      </trkpt>
      <trkpt lat="60.115655591801" lon="15.872544861652">
        <ele>491.2</ele>
        <time>2019-01-13T12:50:20Z</time>
      </trkpt>
      <trkpt lat="60.115446631034" lon="15.872690203798">
        <ele>492</ele>
        <time>2019-01-13T12:50:26Z</time>
      </trkpt>
      <trkpt lat="60.115247141814" lon="15.872879383281">
        <ele>491</ele>
        <time>2019-01-13T12:50:32Z</time>
      </trkpt>
      <trkpt lat="60.115089981189" lon="15.873043500883">
        <ele>491</ele>
        <time>2019-01-13T12:50:38Z</time>
      </trkpt>
      <trkpt lat="60.114963414499" lon="15.87314014419">
        <ele>490.8</ele>
        <time>2019-01-13T12:50:42Z</time>
      </trkpt>
      <trkpt lat="60.114841038759" lon="15.873237541868">
        <ele>489</ele>
        <time>2019-01-13T12:50:45Z</time>
      </trkpt>
      <trkpt lat="60.114744227814" lon="15.873314320072">
        <ele>487.8</ele>
        <time>2019-01-13T12:50:47Z</time>
      </trkpt>
      <trkpt lat="60.11464481848" lon="15.873380872358">
        <ele>486.8</ele>
        <time>2019-01-13T12:50:49Z</time>
      </trkpt>
      <trkpt lat="60.114545660603" lon="15.873448430472">
        <ele>485.8</ele>
        <time>2019-01-13T12:50:51Z</time>
      </trkpt>
      <trkpt lat="60.114403168303" lon="15.873539793182">
        <ele>484.4</ele>
        <time>2019-01-13T12:50:54Z</time>
      </trkpt>
      <trkpt lat="60.114215497562" lon="15.873647668235">
        <ele>483.2</ele>
        <time>2019-01-13T12:50:58Z</time>
      </trkpt>
      <trkpt lat="60.113968734426" lon="15.873830477474">
        <ele>482.4</ele>
        <time>2019-01-13T12:51:04Z</time>
      </trkpt>
      <trkpt lat="60.113930261505" lon="15.873852102776">
        <ele>482.2</ele>
        <time>2019-01-13T12:51:05Z</time>
      </trkpt>
      <trkpt lat="60.113774441984" lon="15.873946063875">
        <ele>481</ele>
        <time>2019-01-13T12:51:09Z</time>
      </trkpt>
      <trkpt lat="60.113646282733" lon="15.874088723813">
        <ele>480.6</ele>
        <time>2019-01-13T12:51:11Z</time>
      </trkpt>
      <trkpt lat="60.113483506235" lon="15.874274969631">
        <ele>479.8</ele>
        <time>2019-01-13T12:51:14Z</time>
      </trkpt>
      <trkpt lat="60.113371691689" lon="15.874400111398">
        <ele>478.4</ele>
        <time>2019-01-13T12:51:16Z</time>
      </trkpt>
      <trkpt lat="60.11326264317" lon="15.874513350867">
        <ele>477</ele>
        <time>2019-01-13T12:51:18Z</time>
      </trkpt>
      <trkpt lat="60.113155019574" lon="15.874590380528">
        <ele>475.6</ele>
        <time>2019-01-13T12:51:20Z</time>
      </trkpt>
      <trkpt lat="60.11309919612" lon="15.874624913956">
        <ele>475.2</ele>
        <time>2019-01-13T12:51:21Z</time>
      </trkpt>
      <trkpt lat="60.113046809245" lon="15.874646958353">
        <ele>474.6</ele>
        <time>2019-01-13T12:51:22Z</time>
      </trkpt>
      <trkpt lat="60.112900293633" lon="15.874670176216">
        <ele>473.4</ele>
        <time>2019-01-13T12:51:25Z</time>
      </trkpt>
      <trkpt lat="60.112747407777" lon="15.874693477898">
        <ele>472.8</ele>
        <time>2019-01-13T12:51:28Z</time>
      </trkpt>
      <trkpt lat="60.112405677714" lon="15.874885758684">
        <ele>473.4</ele>
        <time>2019-01-13T12:51:34Z</time>
      </trkpt>
      <trkpt lat="60.112136031991" lon="15.874968655675">
        <ele>473</ele>
        <time>2019-01-13T12:51:40Z</time>
      </trkpt>
      <trkpt lat="60.112039053408" lon="15.874957088653">
        <ele>472</ele>
        <time>2019-01-13T12:51:42Z</time>
      </trkpt>
      <trkpt lat="60.111927322681" lon="15.874948287658">
        <ele>470.8</ele>
        <time>2019-01-13T12:51:44Z</time>
      </trkpt>
      <trkpt lat="60.111795559213" lon="15.874942336509">
        <ele>469.6</ele>
        <time>2019-01-13T12:51:46Z</time>
      </trkpt>
      <trkpt lat="60.111659772433" lon="15.874951724237">
        <ele>468</ele>
        <time>2019-01-13T12:51:48Z</time>
      </trkpt>
      <trkpt lat="60.111525410576" lon="15.874990364796">
        <ele>466.6</ele>
        <time>2019-01-13T12:51:50Z</time>
      </trkpt>
      <trkpt lat="60.111394988212" lon="15.875049373372">
        <ele>466</ele>
        <time>2019-01-13T12:51:52Z</time>
      </trkpt>
      <trkpt lat="60.111330950496" lon="15.875092791614">
        <ele>465.6</ele>
        <time>2019-01-13T12:51:53Z</time>
      </trkpt>
      <trkpt lat="60.111148141257" lon="15.875236876475">
        <ele>464.2</ele>
        <time>2019-01-13T12:51:56Z</time>
      </trkpt>
      <trkpt lat="60.110950244598" lon="15.875411136176">
        <ele>463.2</ele>
        <time>2019-01-13T12:52:00Z</time>
      </trkpt>
      <trkpt lat="60.110752850853" lon="15.875547593508">
        <ele>462.2</ele>
        <time>2019-01-13T12:52:04Z</time>
      </trkpt>
      <trkpt lat="60.11059384621" lon="15.875664604832">
        <ele>460.6</ele>
        <time>2019-01-13T12:52:07Z</time>
      </trkpt>
      <trkpt lat="60.110493095772" lon="15.87573853319">
        <ele>459.2</ele>
        <time>2019-01-13T12:52:09Z</time>
      </trkpt>
      <trkpt lat="60.110448084969" lon="15.875779185405">
        <ele>459</ele>
        <time>2019-01-13T12:52:10Z</time>
      </trkpt>
      <trkpt lat="60.11036585853" lon="15.875897956928">
        <ele>458.4</ele>
        <time>2019-01-13T12:52:12Z</time>
      </trkpt>
      <trkpt lat="60.110329900179" lon="15.875968783983">
        <ele>458.2</ele>
        <time>2019-01-13T12:52:13Z</time>
      </trkpt>
      <trkpt lat="60.110299976796" lon="15.876043801988">
        <ele>458</ele>
        <time>2019-01-13T12:52:14Z</time>
      </trkpt>
      <trkpt lat="60.110279692598" lon="15.87611320412">
        <ele>457.8</ele>
        <time>2019-01-13T12:52:15Z</time>
      </trkpt>
      <trkpt lat="60.110206183335" lon="15.876700188577">
        <ele>457.8</ele>
        <time>2019-01-13T12:52:20Z</time>
      </trkpt>
      <trkpt lat="60.110229065922" lon="15.877161612172">
        <ele>459</ele>
        <time>2019-01-13T12:52:26Z</time>
      </trkpt>
      <trkpt lat="60.110236861089" lon="15.877213160857">
        <ele>459.2</ele>
        <time>2019-01-13T12:52:27Z</time>
      </trkpt>
      <trkpt lat="60.11023342451" lon="15.8775314216">
        <ele>460.4</ele>
        <time>2019-01-13T12:52:33Z</time>
      </trkpt>
      <trkpt lat="60.110238537469" lon="15.877897207716">
        <ele>461</ele>
        <time>2019-01-13T12:52:39Z</time>
      </trkpt>
      <trkpt lat="60.110238118374" lon="15.878066605915">
        <ele>461.4</ele>
        <time>2019-01-13T12:52:42Z</time>
      </trkpt>
      <trkpt lat="60.110203501127" lon="15.878232735173">
        <ele>462.6</ele>
        <time>2019-01-13T12:52:46Z</time>
      </trkpt>
      <trkpt lat="60.110169889708" lon="15.87840481558">
        <ele>463.6</ele>
        <time>2019-01-13T12:52:51Z</time>
      </trkpt>
      <trkpt lat="60.110136865022" lon="15.878592737778">
        <ele>464.4</ele>
        <time>2019-01-13T12:52:57Z</time>
      </trkpt>
      <trkpt lat="60.110130830054" lon="15.878654931476">
        <ele>464.6</ele>
        <time>2019-01-13T12:52:59Z</time>
      </trkpt>
      <trkpt lat="60.110076263885" lon="15.878910327969">
        <ele>465.2</ele>
        <time>2019-01-13T12:53:05Z</time>
      </trkpt>
      <trkpt lat="60.110042149552" lon="15.879174525457">
        <ele>465.6</ele>
        <time>2019-01-13T12:53:11Z</time>
      </trkpt>
      <trkpt lat="60.11002220063" lon="15.879256584258">
        <ele>465.8</ele>
        <time>2019-01-13T12:53:13Z</time>
      </trkpt>
      <trkpt lat="60.110005772106" lon="15.879468143414">
        <ele>467</ele>
        <time>2019-01-13T12:53:19Z</time>
      </trkpt>
      <trkpt lat="60.109956905629" lon="15.879706859926">
        <ele>468</ele>
        <time>2019-01-13T12:53:25Z</time>
      </trkpt>
      <trkpt lat="60.109946344435" lon="15.879750613444">
        <ele>468</ele>
        <time>2019-01-13T12:53:26Z</time>
      </trkpt>
      <trkpt lat="60.109875433561" lon="15.88002336047">
        <ele>468.6</ele>
        <time>2019-01-13T12:53:32Z</time>
      </trkpt>
      <trkpt lat="60.109764708662" lon="15.880274901289">
        <ele>469</ele>
        <time>2019-01-13T12:53:38Z</time>
      </trkpt>
      <trkpt lat="60.109652726478" lon="15.880482772409">
        <ele>469</ele>
        <time>2019-01-13T12:53:44Z</time>
      </trkpt>
      <trkpt lat="60.109601596888" lon="15.880583606666">
        <ele>468.2</ele>
        <time>2019-01-13T12:53:46Z</time>
      </trkpt>
      <trkpt lat="60.109502019916" lon="15.880757782548">
        <ele>466.8</ele>
        <time>2019-01-13T12:53:48Z</time>
      </trkpt>
      <trkpt lat="60.109401353297" lon="15.880952494085">
        <ele>464.8</ele>
        <time>2019-01-13T12:53:50Z</time>
      </trkpt>
      <trkpt lat="60.109349720793" lon="15.881058022206">
        <ele>463.8</ele>
        <time>2019-01-13T12:53:51Z</time>
      </trkpt>
      <trkpt lat="60.109249305631" lon="15.881256589417">
        <ele>462.2</ele>
        <time>2019-01-13T12:53:53Z</time>
      </trkpt>
      <trkpt lat="60.109066328754" lon="15.881744248359">
        <ele>463</ele>
        <time>2019-01-13T12:53:59Z</time>
      </trkpt>
      <trkpt lat="60.109008745101" lon="15.881922112277">
        <ele>463.4</ele>
        <time>2019-01-13T12:54:01Z</time>
      </trkpt>
      <trkpt lat="60.108852506485" lon="15.882268536204">
        <ele>461.8</ele>
        <time>2019-01-13T12:54:05Z</time>
      </trkpt>
      <trkpt lat="60.108771285874" lon="15.882432150892">
        <ele>460.6</ele>
        <time>2019-01-13T12:54:07Z</time>
      </trkpt>
      <trkpt lat="60.10863080523" lon="15.882744544305">
        <ele>459.6</ele>
        <time>2019-01-13T12:54:11Z</time>
      </trkpt>
      <trkpt lat="60.10850340035" lon="15.882969682139">
        <ele>459.6</ele>
        <time>2019-01-13T12:54:15Z</time>
      </trkpt>
      <trkpt lat="60.108301564198" lon="15.883258354775">
        <ele>460</ele>
        <time>2019-01-13T12:54:21Z</time>
      </trkpt>
      <trkpt lat="60.108194694973" lon="15.883413503744">
        <ele>460.6</ele>
        <time>2019-01-13T12:54:25Z</time>
      </trkpt>
      <trkpt lat="60.108035606511" lon="15.88368625077">
        <ele>460.6</ele>
        <time>2019-01-13T12:54:31Z</time>
      </trkpt>
      <trkpt lat="60.107868387606" lon="15.883903425799">
        <ele>459.4</ele>
        <time>2019-01-13T12:54:36Z</time>
      </trkpt>
      <trkpt lat="60.107794626886" lon="15.883985652238">
        <ele>458.2</ele>
        <time>2019-01-13T12:54:38Z</time>
      </trkpt>
      <trkpt lat="60.107650877301" lon="15.88413468242">
        <ele>457.2</ele>
        <time>2019-01-13T12:54:42Z</time>
      </trkpt>
      <trkpt lat="60.107480892369" lon="15.884285388982">
        <ele>456</ele>
        <time>2019-01-13T12:54:46Z</time>
      </trkpt>
      <trkpt lat="60.107335298766" lon="15.884372812199">
        <ele>454.8</ele>
        <time>2019-01-13T12:54:49Z</time>
      </trkpt>
      <trkpt lat="60.107241840581" lon="15.884420086115">
        <ele>453.8</ele>
        <time>2019-01-13T12:54:51Z</time>
      </trkpt>
      <trkpt lat="60.107194399027" lon="15.884422433047">
        <ele>453.6</ele>
        <time>2019-01-13T12:54:52Z</time>
      </trkpt>
      <trkpt lat="60.106984180975" lon="15.884365939041">
        <ele>452.2</ele>
        <time>2019-01-13T12:54:56Z</time>
      </trkpt>
      <trkpt lat="60.106919975621" lon="15.884393012578">
        <ele>451.6</ele>
        <time>2019-01-13T12:54:57Z</time>
      </trkpt>
      <trkpt lat="60.106857865742" lon="15.884402400306">
        <ele>451.2</ele>
        <time>2019-01-13T12:54:58Z</time>
      </trkpt>
      <trkpt lat="60.106805730324" lon="15.884421846314">
        <ele>450.8</ele>
        <time>2019-01-13T12:54:59Z</time>
      </trkpt>
      <trkpt lat="60.10669290995" lon="15.884476244845">
        <ele>450.6</ele>
        <time>2019-01-13T12:55:01Z</time>
      </trkpt>
      <trkpt lat="60.106576233902" lon="15.884568194288">
        <ele>449.8</ele>
        <time>2019-01-13T12:55:03Z</time>
      </trkpt>
      <trkpt lat="60.106467269202" lon="15.88470465162">
        <ele>448.4</ele>
        <time>2019-01-13T12:55:05Z</time>
      </trkpt>
      <trkpt lat="60.106333242621" lon="15.8848907298">
        <ele>447.4</ele>
        <time>2019-01-13T12:55:08Z</time>
      </trkpt>
      <trkpt lat="60.106194605995" lon="15.885118214566">
        <ele>448.8</ele>
        <time>2019-01-13T12:55:12Z</time>
      </trkpt>
      <trkpt lat="60.106152025943" lon="15.885195076589">
        <ele>449.8</ele>
        <time>2019-01-13T12:55:14Z</time>
      </trkpt>
      <trkpt lat="60.106003582494" lon="15.885414933826">
        <ele>450.4</ele>
        <time>2019-01-13T12:55:20Z</time>
      </trkpt>
      <trkpt lat="60.10589495307" lon="15.885585924586">
        <ele>451</ele>
        <time>2019-01-13T12:55:25Z</time>
      </trkpt>
      <trkpt lat="60.105820437979" lon="15.885724225936">
        <ele>452.2</ele>
        <time>2019-01-13T12:55:29Z</time>
      </trkpt>
      <trkpt lat="60.105688171597" lon="15.885934108712">
        <ele>453</ele>
        <time>2019-01-13T12:55:35Z</time>
      </trkpt>
      <trkpt lat="60.105576859965" lon="15.88602815363">
        <ele>453.2</ele>
        <time>2019-01-13T12:55:39Z</time>
      </trkpt>
      <trkpt lat="60.105404444282" lon="15.88614969118">
        <ele>453.4</ele>
        <time>2019-01-13T12:55:45Z</time>
      </trkpt>
      <trkpt lat="60.105238231205" lon="15.886323699424">
        <ele>453.4</ele>
        <time>2019-01-13T12:55:51Z</time>
      </trkpt>
      <trkpt lat="60.105116190741" lon="15.886476250004">
        <ele>454</ele>
        <time>2019-01-13T12:55:57Z</time>
      </trkpt>
      <trkpt lat="60.10494779837" lon="15.886610192766">
        <ele>453.6</ele>
        <time>2019-01-13T12:56:03Z</time>
      </trkpt>
      <trkpt lat="60.10481452616" lon="15.886640702882">
        <ele>452</ele>
        <time>2019-01-13T12:56:07Z</time>
      </trkpt>
      <trkpt lat="60.104618138243" lon="15.886759474405">
        <ele>451.8</ele>
        <time>2019-01-13T12:56:13Z</time>
      </trkpt>
      <trkpt lat="60.104459217419" lon="15.886817980067">
        <ele>452</ele>
        <time>2019-01-13T12:56:19Z</time>
      </trkpt>
      <trkpt lat="60.104273223058" lon="15.8870113505">
        <ele>451.8</ele>
        <time>2019-01-13T12:56:25Z</time>
      </trkpt>
      <trkpt lat="60.1040735662" lon="15.887260209111">
        <ele>451.2</ele>
        <time>2019-01-13T12:56:31Z</time>
      </trkpt>
      <trkpt lat="60.104023693895" lon="15.887281499137">
        <ele>450.4</ele>
        <time>2019-01-13T12:56:32Z</time>
      </trkpt>
      <trkpt lat="60.103916573213" lon="15.887316367841">
        <ele>448.6</ele>
        <time>2019-01-13T12:56:34Z</time>
      </trkpt>
      <trkpt lat="60.103855301524" lon="15.887323743913">
        <ele>447.6</ele>
        <time>2019-01-13T12:56:35Z</time>
      </trkpt>
      <trkpt lat="60.103794365111" lon="15.887338915152">
        <ele>446.4</ele>
        <time>2019-01-13T12:56:36Z</time>
      </trkpt>
      <trkpt lat="60.103683891669" lon="15.887377052797">
        <ele>444.8</ele>
        <time>2019-01-13T12:56:38Z</time>
      </trkpt>
      <trkpt lat="60.103515666936" lon="15.887397504633">
        <ele>443.8</ele>
        <time>2019-01-13T12:56:41Z</time>
      </trkpt>
      <trkpt lat="60.103377700862" lon="15.887424913446">
        <ele>442.2</ele>
        <time>2019-01-13T12:56:43Z</time>
      </trkpt>
      <trkpt lat="60.103249960706" lon="15.887478306149">
        <ele>440.4</ele>
        <time>2019-01-13T12:56:45Z</time>
      </trkpt>
      <trkpt lat="60.10319514308" lon="15.887517449622">
        <ele>440</ele>
        <time>2019-01-13T12:56:46Z</time>
      </trkpt>
      <trkpt lat="60.103059607757" lon="15.887683327423">
        <ele>439.2</ele>
        <time>2019-01-13T12:56:48Z</time>
      </trkpt>
      <trkpt lat="60.102857268691" lon="15.887957918467">
        <ele>438</ele>
        <time>2019-01-13T12:56:51Z</time>
      </trkpt>
      <trkpt lat="60.102720895178" lon="15.888092447962">
        <ele>437</ele>
        <time>2019-01-13T12:56:53Z</time>
      </trkpt>
      <trkpt lat="60.102595669592" lon="15.88820074211">
        <ele>436.4</ele>
        <time>2019-01-13T12:56:55Z</time>
      </trkpt>
      <trkpt lat="60.102387044101" lon="15.888328314628">
        <ele>438.2</ele>
        <time>2019-01-13T12:57:00Z</time>
      </trkpt>
      <trkpt lat="60.102184202121" lon="15.888421018442">
        <ele>438.6</ele>
        <time>2019-01-13T12:57:06Z</time>
      </trkpt>
      <trkpt lat="60.102006254384" lon="15.888402913538">
        <ele>436.8</ele>
        <time>2019-01-13T12:57:10Z</time>
      </trkpt>
      <trkpt lat="60.101952861681" lon="15.888363183332">
        <ele>436.4</ele>
        <time>2019-01-13T12:57:11Z</time>
      </trkpt>
      <trkpt lat="60.101710792409" lon="15.888179200627">
        <ele>436.8</ele>
        <time>2019-01-13T12:57:17Z</time>
      </trkpt>
      <trkpt lat="60.101582633158" lon="15.888137710222">
        <ele>438</ele>
        <time>2019-01-13T12:57:21Z</time>
      </trkpt>
      <trkpt lat="60.101443074523" lon="15.888080294207">
        <ele>439.2</ele>
        <time>2019-01-13T12:57:25Z</time>
      </trkpt>
      <trkpt lat="60.101276107075" lon="15.887992368076">
        <ele>439.8</ele>
        <time>2019-01-13T12:57:31Z</time>
      </trkpt>
      <trkpt lat="60.101075528208" lon="15.887896646778">
        <ele>439.2</ele>
        <time>2019-01-13T12:57:37Z</time>
      </trkpt>
      <trkpt lat="60.100878805015" lon="15.887919864641">
        <ele>439.2</ele>
        <time>2019-01-13T12:57:43Z</time>
      </trkpt>
      <trkpt lat="60.100666742945" lon="15.88790653742">
        <ele>438.2</ele>
        <time>2019-01-13T12:57:49Z</time>
      </trkpt>
      <trkpt lat="60.100627515653" lon="15.887896143864">
        <ele>437.8</ele>
        <time>2019-01-13T12:57:50Z</time>
      </trkpt>
      <trkpt lat="60.100361474147" lon="15.887847193568">
        <ele>437.2</ele>
        <time>2019-01-13T12:57:56Z</time>
      </trkpt>
      <trkpt lat="60.100135330485" lon="15.887861442798">
        <ele>436.8</ele>
        <time>2019-01-13T12:58:01Z</time>
      </trkpt>
      <trkpt lat="60.099990491253" lon="15.887924809962">
        <ele>435.6</ele>
        <time>2019-01-13T12:58:04Z</time>
      </trkpt>
      <trkpt lat="60.099753451121" lon="15.888183475396">
        <ele>435</ele>
        <time>2019-01-13T12:58:10Z</time>
      </trkpt>
      <trkpt lat="60.099597128686" lon="15.888352035405">
        <ele>434.4</ele>
        <time>2019-01-13T12:58:14Z</time>
      </trkpt>
      <trkpt lat="60.099465532856" lon="15.888469549643">
        <ele>433.2</ele>
        <time>2019-01-13T12:58:17Z</time>
      </trkpt>
      <trkpt lat="60.099255147166" lon="15.888750427112">
        <ele>433.8</ele>
        <time>2019-01-13T12:58:23Z</time>
      </trkpt>
      <trkpt lat="60.09922296067" lon="15.888789067671">
        <ele>434.2</ele>
        <time>2019-01-13T12:58:24Z</time>
      </trkpt>
      <trkpt lat="60.099044845295" lon="15.88903725573">
        <ele>434.6</ele>
        <time>2019-01-13T12:58:30Z</time>
      </trkpt>
      <trkpt lat="60.09884912793" lon="15.889251413275">
        <ele>434.8</ele>
        <time>2019-01-13T12:58:36Z</time>
      </trkpt>
      <trkpt lat="60.098626001752" lon="15.889481580249">
        <ele>434.6</ele>
        <time>2019-01-13T12:58:42Z</time>
      </trkpt>
      <trkpt lat="60.098454843354" lon="15.889740413321">
        <ele>433.2</ele>
        <time>2019-01-13T12:58:47Z</time>
      </trkpt>
      <trkpt lat="60.098380328263" lon="15.889873685531">
        <ele>431.8</ele>
        <time>2019-01-13T12:58:49Z</time>
      </trkpt>
      <trkpt lat="60.09829759891" lon="15.890026906663">
        <ele>430.4</ele>
        <time>2019-01-13T12:58:51Z</time>
      </trkpt>
      <trkpt lat="60.098182263966" lon="15.890256738361">
        <ele>429.2</ele>
        <time>2019-01-13T12:58:54Z</time>
      </trkpt>
      <trkpt lat="60.098073047809" lon="15.89051917565">
        <ele>429</ele>
        <time>2019-01-13T12:58:57Z</time>
      </trkpt>
      <trkpt lat="60.097910019854" lon="15.890936175175">
        <ele>430.2</ele>
        <time>2019-01-13T12:59:03Z</time>
      </trkpt>
      <trkpt lat="60.097743052406" lon="15.891193834781">
        <ele>430.6</ele>
        <time>2019-01-13T12:59:09Z</time>
      </trkpt>
      <trkpt lat="60.09756753542" lon="15.89135149832">
        <ele>428.8</ele>
        <time>2019-01-13T12:59:13Z</time>
      </trkpt>
      <trkpt lat="60.0975189204" lon="15.89137496764">
        <ele>427.8</ele>
        <time>2019-01-13T12:59:14Z</time>
      </trkpt>
      <trkpt lat="60.097464857145" lon="15.891408159964">
        <ele>427.2</ele>
        <time>2019-01-13T12:59:15Z</time>
      </trkpt>
      <trkpt lat="60.097358490834" lon="15.891456104432">
        <ele>425.8</ele>
        <time>2019-01-13T12:59:17Z</time>
      </trkpt>
      <trkpt lat="60.097120109598" lon="15.891387289033">
        <ele>425</ele>
        <time>2019-01-13T12:59:23Z</time>
      </trkpt>
      <trkpt lat="60.096928247907" lon="15.891267930777">
        <ele>426</ele>
        <time>2019-01-13T12:59:29Z</time>
      </trkpt>
      <trkpt lat="60.096709983231" lon="15.891146309408">
        <ele>425.6</ele>
        <time>2019-01-13T12:59:35Z</time>
      </trkpt>
      <trkpt lat="60.096493143478" lon="15.890963919264">
        <ele>426</ele>
        <time>2019-01-13T12:59:41Z</time>
      </trkpt>
      <trkpt lat="60.096318129406" lon="15.890725789485">
        <ele>426.4</ele>
        <time>2019-01-13T12:59:47Z</time>
      </trkpt>
      <trkpt lat="60.096190556888" lon="15.890557900028">
        <ele>426.8</ele>
        <time>2019-01-13T12:59:53Z</time>
      </trkpt>
      <trkpt lat="60.096061475628" lon="15.890417335565">
        <ele>427.2</ele>
        <time>2019-01-13T12:59:59Z</time>
      </trkpt>
      <trkpt lat="60.095999952482" lon="15.890365451604">
        <ele>428</ele>
        <time>2019-01-13T13:00:02Z</time>
      </trkpt>
      <trkpt lat="60.095889562859" lon="15.890227066435">
        <ele>428.6</ele>
        <time>2019-01-13T13:00:08Z</time>
      </trkpt>
      <trkpt lat="60.095850754662" lon="15.890200076717">
        <ele>429</ele>
        <time>2019-01-13T13:00:10Z</time>
      </trkpt>
      <trkpt lat="60.095713375321" lon="15.890116592993">
        <ele>429.2</ele>
        <time>2019-01-13T13:00:16Z</time>
      </trkpt>
      <trkpt lat="60.095562082026" lon="15.890117515002">
        <ele>429.6</ele>
        <time>2019-01-13T13:00:22Z</time>
      </trkpt>
      <trkpt lat="60.095396036587" lon="15.89028951159">
        <ele>429.8</ele>
        <time>2019-01-13T13:00:28Z</time>
      </trkpt>
      <trkpt lat="60.095334848717" lon="15.890401158498">
        <ele>430</ele>
        <time>2019-01-13T13:00:31Z</time>
      </trkpt>
      <trkpt lat="60.095230913157" lon="15.890591595266">
        <ele>430.8</ele>
        <time>2019-01-13T13:00:37Z</time>
      </trkpt>
      <trkpt lat="60.095205683638" lon="15.890646999625">
        <ele>431</ele>
        <time>2019-01-13T13:00:39Z</time>
      </trkpt>
      <trkpt lat="60.095085235735" lon="15.89087792097">
        <ele>431.4</ele>
        <time>2019-01-13T13:00:45Z</time>
      </trkpt>
      <trkpt lat="60.094925392902" lon="15.891167515615">
        <ele>431.4</ele>
        <time>2019-01-13T13:00:51Z</time>
      </trkpt>
      <trkpt lat="60.094775608349" lon="15.891422828289">
        <ele>431.2</ele>
        <time>2019-01-13T13:00:57Z</time>
      </trkpt>
      <trkpt lat="60.094629176556" lon="15.891593064678">
        <ele>431.6</ele>
        <time>2019-01-13T13:01:03Z</time>
      </trkpt>
      <trkpt lat="60.094453743389" lon="15.891672441271">
        <ele>431</ele>
        <time>2019-01-13T13:01:09Z</time>
      </trkpt>
      <trkpt lat="60.094262049336" lon="15.891684008293">
        <ele>431.6</ele>
        <time>2019-01-13T13:01:15Z</time>
      </trkpt>
      <trkpt lat="60.094063817401" lon="15.891696664962">
        <ele>431.8</ele>
        <time>2019-01-13T13:01:21Z</time>
      </trkpt>
      <trkpt lat="60.093914451943" lon="15.891686019949">
        <ele>429.8</ele>
        <time>2019-01-13T13:01:24Z</time>
      </trkpt>
      <trkpt lat="60.09381747336" lon="15.891665903389">
        <ele>428.8</ele>
        <time>2019-01-13T13:01:26Z</time>
      </trkpt>
      <trkpt lat="60.093580852323" lon="15.891694820944">
        <ele>428.2</ele>
        <time>2019-01-13T13:01:32Z</time>
      </trkpt>
      <trkpt lat="60.093400557654" lon="15.891788865862">
        <ele>429.2</ele>
        <time>2019-01-13T13:01:38Z</time>
      </trkpt>
      <trkpt lat="60.093261418114" lon="15.892066139114">
        <ele>429</ele>
        <time>2019-01-13T13:01:44Z</time>
      </trkpt>
      <trkpt lat="60.093081039626" lon="15.892431003221">
        <ele>427.4</ele>
        <time>2019-01-13T13:01:50Z</time>
      </trkpt>
      <trkpt lat="60.093023036878" lon="15.892582547973">
        <ele>426.4</ele>
        <time>2019-01-13T13:01:52Z</time>
      </trkpt>
      <trkpt lat="60.093071651898" lon="15.893093089502">
        <ele>425.8</ele>
        <time>2019-01-13T13:01:57Z</time>
      </trkpt>
      <trkpt lat="60.093152285776" lon="15.893317305327">
        <ele>425.8</ele>
        <time>2019-01-13T13:02:00Z</time>
      </trkpt>
      <trkpt lat="60.093184891367" lon="15.893482093481">
        <ele>425.8</ele>
        <time>2019-01-13T13:02:02Z</time>
      </trkpt>
      <trkpt lat="60.093240295726" lon="15.893866990329">
        <ele>425.2</ele>
        <time>2019-01-13T13:02:07Z</time>
      </trkpt>
      <trkpt lat="60.093247587979" lon="15.894097157303">
        <ele>425</ele>
        <time>2019-01-13T13:02:10Z</time>
      </trkpt>
      <trkpt lat="60.093293856067" lon="15.894536285044">
        <ele>424.8</ele>
        <time>2019-01-13T13:02:16Z</time>
      </trkpt>
      <trkpt lat="60.09334305782" lon="15.894921768625">
        <ele>425.2</ele>
        <time>2019-01-13T13:02:22Z</time>
      </trkpt>
      <trkpt lat="60.093365772769" lon="15.895294092623">
        <ele>424.6</ele>
        <time>2019-01-13T13:02:28Z</time>
      </trkpt>
      <trkpt lat="60.093291760592" lon="15.895649317545">
        <ele>425.4</ele>
        <time>2019-01-13T13:02:34Z</time>
      </trkpt>
      <trkpt lat="60.09317206706" lon="15.896033543841">
        <ele>424.6</ele>
        <time>2019-01-13T13:02:40Z</time>
      </trkpt>
      <trkpt lat="60.093050613329" lon="15.896410561703">
        <ele>424.2</ele>
        <time>2019-01-13T13:02:46Z</time>
      </trkpt>
      <trkpt lat="60.092995125151" lon="15.896577864427">
        <ele>424</ele>
        <time>2019-01-13T13:02:49Z</time>
      </trkpt>
      <trkpt lat="60.092899152396" lon="15.896944991647">
        <ele>424.6</ele>
        <time>2019-01-13T13:02:55Z</time>
      </trkpt>
      <trkpt lat="60.092834695585" lon="15.897281608751">
        <ele>424.6</ele>
        <time>2019-01-13T13:03:00Z</time>
      </trkpt>
      <trkpt lat="60.092779207407" lon="15.897587129006">
        <ele>424</ele>
        <time>2019-01-13T13:03:04Z</time>
      </trkpt>
      <trkpt lat="60.092755151354" lon="15.89797152294">
        <ele>423.8</ele>
        <time>2019-01-13T13:03:10Z</time>
      </trkpt>
      <trkpt lat="60.092851543204" lon="15.898163384631">
        <ele>424</ele>
        <time>2019-01-13T13:03:16Z</time>
      </trkpt>
      <trkpt lat="60.092953970022" lon="15.898361951842">
        <ele>424.4</ele>
        <time>2019-01-13T13:03:22Z</time>
      </trkpt>
      <trkpt lat="60.093087577508" lon="15.898566386383">
        <ele>425</ele>
        <time>2019-01-13T13:03:28Z</time>
      </trkpt>
      <trkpt lat="60.093112471751" lon="15.898617348335">
        <ele>425.2</ele>
        <time>2019-01-13T13:03:29Z</time>
      </trkpt>
      <trkpt lat="60.093201152253" lon="15.89896561628">
        <ele>424.8</ele>
        <time>2019-01-13T13:03:35Z</time>
      </trkpt>
      <trkpt lat="60.093251443653" lon="15.899262084083">
        <ele>425.2</ele>
        <time>2019-01-13T13:03:41Z</time>
      </trkpt>
      <trkpt lat="60.093321935432" lon="15.899442127295">
        <ele>425.6</ele>
        <time>2019-01-13T13:03:47Z</time>
      </trkpt>
      <trkpt lat="60.093429307571" lon="15.899615297349">
        <ele>425.8</ele>
        <time>2019-01-13T13:03:53Z</time>
      </trkpt>
      <trkpt lat="60.093551096578" lon="15.899797436036">
        <ele>426</ele>
        <time>2019-01-13T13:03:59Z</time>
      </trkpt>
      <trkpt lat="60.093690571394" lon="15.900029363209">
        <ele>426.2</ele>
        <time>2019-01-13T13:04:05Z</time>
      </trkpt>
      <trkpt lat="60.093712951067" lon="15.900066662664">
        <ele>426.2</ele>
        <time>2019-01-13T13:04:06Z</time>
      </trkpt>
      <trkpt lat="60.093817892455" lon="15.900274198508">
        <ele>426.4</ele>
        <time>2019-01-13T13:04:12Z</time>
      </trkpt>
      <trkpt lat="60.093928030621" lon="15.900446614191">
        <ele>427</ele>
        <time>2019-01-13T13:04:18Z</time>
      </trkpt>
      <trkpt lat="60.0939649948" lon="15.900502940559">
        <ele>427.2</ele>
        <time>2019-01-13T13:04:20Z</time>
      </trkpt>
      <trkpt lat="60.093929204087" lon="15.900582903885">
        <ele>427.4</ele>
        <time>2019-01-13T13:04:22Z</time>
      </trkpt>
      <trkpt lat="60.093703144244" lon="15.900638140606">
        <ele>426.2</ele>
        <time>2019-01-13T13:04:28Z</time>
      </trkpt>
      <trkpt lat="60.093596694114" lon="15.900719361217">
        <ele>425.6</ele>
        <time>2019-01-13T13:04:31Z</time>
      </trkpt>
      <trkpt lat="60.093566519274" lon="15.900854142169">
        <ele>425.4</ele>
        <time>2019-01-13T13:04:33Z</time>
      </trkpt>
      <trkpt lat="60.09357858921" lon="15.900983055791">
        <ele>425.4</ele>
        <time>2019-01-13T13:04:35Z</time>
      </trkpt>
      <trkpt lat="60.093632736284" lon="15.901086907532">
        <ele>425.2</ele>
        <time>2019-01-13T13:04:38Z</time>
      </trkpt>
      <trkpt lat="60.093775899136" lon="15.901166032668">
        <ele>425.8</ele>
        <time>2019-01-13T13:04:44Z</time>
      </trkpt>
      <trkpt lat="60.093843541069" lon="15.901144575004">
        <ele>426.4</ele>
        <time>2019-01-13T13:04:47Z</time>
      </trkpt>
      <trkpt lat="60.093931215743" lon="15.901132253611">
        <ele>427.4</ele>
        <time>2019-01-13T13:04:52Z</time>
      </trkpt>
      <trkpt lat="60.094058117709" lon="15.901163685736">
        <ele>427.8</ele>
        <time>2019-01-13T13:04:58Z</time>
      </trkpt>
      <trkpt lat="60.094185941684" lon="15.901203499761">
        <ele>428.2</ele>
        <time>2019-01-13T13:05:03Z</time>
      </trkpt>
    </trkseg>
  </trk>
</gpx>